Wetterdaten: Samstag, 14.09.2024
Datum Zeit Temp. I. Temp. A. Feuchte I. Feuchte A. Luftdruck Regen Wind Richtung Richtung Sonnenschein Solar Taupunkt Windchill Windböen
14.09.2024 00:00 21,4 °C 12,1 °C 55 % 76 % 1022,0 hPa 0,0 l/m² 8,1 km/h (2 Bft) W-NW 282 ° 0 min 0 W/m² 8,0 °C 11,0 °C 16,1 km/h (3 Bft)
14.09.2024 00:01 21,4 °C 12,0 °C 55 % 76 % 1022,0 hPa 0,0 l/m² 6,6 km/h (2 Bft) W-NW 295 ° 0 min 0 W/m² 7,9 °C 11,9 °C 16,1 km/h (3 Bft)
14.09.2024 00:02 21,4 °C 12,0 °C 55 % 76 % 1022,1 hPa 0,0 l/m² 7,9 km/h (2 Bft) W-NW 284 ° 0 min 0 W/m² 7,9 °C 11,0 °C 14,5 km/h (3 Bft)
14.09.2024 00:04 21,4 °C 12,0 °C 55 % 76 % 1022,0 hPa 0,0 l/m² 4,4 km/h (1 Bft) W 263 ° 0 min 0 W/m² 7,9 °C 12,0 °C 12,9 km/h (3 Bft)
14.09.2024 00:06 21,4 °C 11,9 °C 55 % 76 % 1022,1 hPa 0,0 l/m² 10,4 km/h (2 Bft) NW 308 ° 0 min 0 W/m² 7,8 °C 9,5 °C 17,7 km/h (3 Bft)
14.09.2024 00:08 21,4 °C 11,9 °C 55 % 76 % 1022,0 hPa 0,0 l/m² 7,7 km/h (2 Bft) NW 325 ° 0 min 0 W/m² 7,8 °C 11,0 °C 12,9 km/h (3 Bft)
14.09.2024 00:10 21,4 °C 11,9 °C 55 % 76 % 1022,0 hPa 0,0 l/m² 9,3 km/h (2 Bft) W-NW 286 ° 0 min 0 W/m² 7,8 °C 10,1 °C 16,1 km/h (3 Bft)
14.09.2024 00:11 21,4 °C 11,9 °C 55 % 76 % 1022,0 hPa 0,0 l/m² 4,8 km/h (1 Bft) W-NW 297 ° 0 min 0 W/m² 7,8 °C 11,9 °C 12,9 km/h (3 Bft)
14.09.2024 00:13 21,4 °C 11,9 °C 55 % 76 % 1022,0 hPa 0,0 l/m² 5,1 km/h (1 Bft) W-NW 302 ° 0 min 0 W/m² 7,8 °C 11,9 °C 14,5 km/h (3 Bft)
14.09.2024 00:15 21,4 °C 11,9 °C 55 % 76 % 1022,0 hPa 0,0 l/m² 8,9 km/h (2 Bft) NW 307 ° 0 min 0 W/m² 7,8 °C 10,3 °C 20,9 km/h (4 Bft)
14.09.2024 00:17 21,4 °C 11,9 °C 55 % 76 % 1022,0 hPa 0,0 l/m² 9,2 km/h (2 Bft) W-NW 292 ° 0 min 0 W/m² 7,8 °C 10,1 °C 16,1 km/h (3 Bft)
14.09.2024 00:19 21,4 °C 11,9 °C 55 % 76 % 1022,1 hPa 0,0 l/m² 8,0 km/h (2 Bft) NW 317 ° 0 min 0 W/m² 7,8 °C 10,8 °C 16,1 km/h (3 Bft)
14.09.2024 00:21 21,4 °C 11,9 °C 55 % 76 % 1022,1 hPa 0,0 l/m² 7,5 km/h (2 Bft) NW 319 ° 0 min 0 W/m² 7,8 °C 11,2 °C 17,7 km/h (3 Bft)
14.09.2024 00:22 21,4 °C 11,9 °C 55 % 76 % 1022,1 hPa 0,0 l/m² 6,8 km/h (2 Bft) N-NW 338 ° 0 min 0 W/m² 7,8 °C 11,6 °C 12,9 km/h (3 Bft)
14.09.2024 00:23 21,4 °C 11,9 °C 55 % 76 % 1022,0 hPa 0,0 l/m² 6,1 km/h (2 Bft) NW 304 ° 0 min 0 W/m² 7,8 °C 11,9 °C 9,7 km/h (2 Bft)
14.09.2024 00:25 21,4 °C 11,9 °C 55 % 76 % 1022,1 hPa 0,0 l/m² 10,3 km/h (2 Bft) N-NW 331 ° 0 min 0 W/m² 7,8 °C 9,5 °C 17,7 km/h (3 Bft)
14.09.2024 00:27 21,4 °C 11,9 °C 55 % 76 % 1022,1 hPa 0,0 l/m² 6,1 km/h (2 Bft) NW 310 ° 0 min 0 W/m² 7,8 °C 11,9 °C 12,9 km/h (3 Bft)
14.09.2024 00:29 21,4 °C 12,0 °C 55 % 76 % 1022,0 hPa 0,0 l/m² 12,5 km/h (2 Bft) N 5 ° 0 min 0 W/m² 7,9 °C 8,6 °C 20,9 km/h (4 Bft)
14.09.2024 00:31 21,4 °C 12,0 °C 55 % 76 % 1022,0 hPa 0,0 l/m² 9,7 km/h (2 Bft) NW 309 ° 0 min 0 W/m² 7,9 °C 10,0 °C 19,3 km/h (3 Bft)
14.09.2024 00:32 21,4 °C 12,0 °C 55 % 76 % 1022,0 hPa 0,0 l/m² 7,1 km/h (2 Bft) N 351 ° 0 min 0 W/m² 7,9 °C 11,5 °C 12,9 km/h (3 Bft)
14.09.2024 00:33 21,4 °C 12,0 °C 55 % 76 % 1022,1 hPa 0,0 l/m² 7,9 km/h (2 Bft) W-NW 299 ° 0 min 0 W/m² 7,9 °C 11,0 °C 14,5 km/h (3 Bft)
14.09.2024 00:35 21,4 °C 11,9 °C 55 % 77 % 1022,0 hPa 0,0 l/m² 11,4 km/h (2 Bft) W-NW 286 ° 0 min 0 W/m² 8,0 °C 9,0 °C 17,7 km/h (3 Bft)
14.09.2024 00:37 21,4 °C 12,0 °C 55 % 77 % 1022,1 hPa 0,0 l/m² 12,4 km/h (2 Bft) W-NW 299 ° 0 min 0 W/m² 8,1 °C 8,6 °C 20,9 km/h (4 Bft)
14.09.2024 00:39 21,4 °C 12,0 °C 55 % 77 % 1022,1 hPa 0,0 l/m² 8,1 km/h (2 Bft) N-NW 348 ° 0 min 0 W/m² 8,1 °C 10,9 °C 14,5 km/h (3 Bft)
14.09.2024 00:41 21,4 °C 12,0 °C 55 % 77 % 1022,0 hPa 0,0 l/m² 6,9 km/h (2 Bft) W-NW 288 ° 0 min 0 W/m² 8,1 °C 11,7 °C 17,7 km/h (3 Bft)
14.09.2024 00:42 21,4 °C 12,0 °C 55 % 77 % 1022,0 hPa 0,0 l/m² 10,4 km/h (2 Bft) W-NW 296 ° 0 min 0 W/m² 8,1 °C 9,6 °C 17,7 km/h (3 Bft)
14.09.2024 00:43 21,4 °C 12,0 °C 55 % 77 % 1022,1 hPa 0,0 l/m² 6,9 km/h (2 Bft) W-NW 286 ° 0 min 0 W/m² 8,1 °C 11,7 °C 9,7 km/h (2 Bft)
14.09.2024 00:47 21,4 °C 12,0 °C 55 % 77 % 1022,1 hPa 0,0 l/m² 7,0 km/h (2 Bft) W-NW 297 ° 0 min 0 W/m² 8,1 °C 11,6 °C 16,1 km/h (3 Bft)
14.09.2024 00:49 21,3 °C 12,0 °C 55 % 78 % 1022,1 hPa 0,0 l/m² 8,6 km/h (2 Bft) NW 323 ° 0 min 0 W/m² 8,3 °C 10,6 °C 20,9 km/h (4 Bft)
14.09.2024 00:51 21,4 °C 12,0 °C 55 % 78 % 1022,0 hPa 0,0 l/m² 4,9 km/h (1 Bft) NW 309 ° 0 min 0 W/m² 8,3 °C 12,0 °C 14,5 km/h (3 Bft)
14.09.2024 00:52 21,3 °C 12,0 °C 55 % 78 % 1022,0 hPa 0,0 l/m² 5,1 km/h (1 Bft) NW 319 ° 0 min 0 W/m² 8,3 °C 12,0 °C 8,0 km/h (2 Bft)
14.09.2024 00:53 21,3 °C 12,0 °C 55 % 78 % 1022,0 hPa 0,0 l/m² 13,4 km/h (3 Bft) W 266 ° 0 min 0 W/m² 8,3 °C 8,2 °C 20,9 km/h (4 Bft)
14.09.2024 00:55 21,3 °C 12,0 °C 55 % 78 % 1022,0 hPa 0,0 l/m² 9,3 km/h (2 Bft) NW 311 ° 0 min 0 W/m² 8,3 °C 10,2 °C 20,9 km/h (4 Bft)
14.09.2024 00:57 21,3 °C 12,1 °C 55 % 77 % 1022,0 hPa 0,0 l/m² 10,7 km/h (2 Bft) W-NW 296 ° 0 min 0 W/m² 8,2 °C 9,6 °C 19,3 km/h (3 Bft)
14.09.2024 00:59 21,3 °C 12,0 °C 55 % 78 % 1022,0 hPa 0,0 l/m² 7,6 km/h (2 Bft) NW 318 ° 0 min 0 W/m² 8,3 °C 11,2 °C 17,7 km/h (3 Bft)
14.09.2024 01:01 21,3 °C 12,1 °C 55 % 78 % 1022,0 hPa 0,0 l/m² 11,3 km/h (2 Bft) W-NW 288 ° 0 min 0 W/m² 8,4 °C 9,3 °C 20,9 km/h (4 Bft)
14.09.2024 01:02 21,3 °C 12,1 °C 55 % 78 % 1021,9 hPa 0,0 l/m² 10,7 km/h (2 Bft) W-NW 287 ° 0 min 0 W/m² 8,4 °C 9,6 °C 24,1 km/h (4 Bft)
14.09.2024 01:03 21,3 °C 12,1 °C 55 % 78 % 1022,0 hPa 0,0 l/m² 10,4 km/h (2 Bft) NW 310 ° 0 min 0 W/m² 8,4 °C 9,7 °C 17,7 km/h (3 Bft)
14.09.2024 01:05 21,3 °C 12,1 °C 55 % 78 % 1021,9 hPa 0,0 l/m² 13,3 km/h (3 Bft) W-NW 292 ° 0 min 0 W/m² 8,4 °C 8,4 °C 22,5 km/h (4 Bft)
14.09.2024 01:07 21,3 °C 12,1 °C 55 % 78 % 1022,0 hPa 0,0 l/m² 10,0 km/h (2 Bft) W 275 ° 0 min 0 W/m² 8,4 °C 9,9 °C 20,9 km/h (4 Bft)
14.09.2024 01:09 21,3 °C 12,1 °C 55 % 78 % 1021,9 hPa 0,0 l/m² 11,7 km/h (2 Bft) W-NW 303 ° 0 min 0 W/m² 8,4 °C 9,1 °C 25,7 km/h (4 Bft)
14.09.2024 01:11 21,3 °C 12,0 °C 55 % 78 % 1022,0 hPa 0,0 l/m² 14,4 km/h (3 Bft) NW 324 ° 0 min 0 W/m² 8,3 °C 7,8 °C 27,4 km/h (5 Bft)
14.09.2024 01:12 21,3 °C 12,0 °C 55 % 78 % 1022,0 hPa 0,0 l/m² 9,2 km/h (2 Bft) NW 312 ° 0 min 0 W/m² 8,3 °C 10,2 °C 19,3 km/h (3 Bft)
14.09.2024 01:13 21,3 °C 12,0 °C 55 % 78 % 1022,0 hPa 0,0 l/m² 9,2 km/h (2 Bft) N-NW 336 ° 0 min 0 W/m² 8,3 °C 10,2 °C 14,5 km/h (3 Bft)
14.09.2024 01:15 21,3 °C 12,0 °C 55 % 78 % 1022,0 hPa 0,0 l/m² 10,0 km/h (2 Bft) NW 322 ° 0 min 0 W/m² 8,3 °C 9,8 °C 19,3 km/h (3 Bft)
14.09.2024 01:17 21,3 °C 12,0 °C 55 % 78 % 1022,0 hPa 0,0 l/m² 10,2 km/h (2 Bft) O-NO 69 ° 0 min 0 W/m² 8,3 °C 9,7 °C 22,5 km/h (4 Bft)
14.09.2024 01:19 21,3 °C 11,9 °C 55 % 78 % 1022,0 hPa 0,0 l/m² 8,8 km/h (2 Bft) W-NW 288 ° 0 min 0 W/m² 8,2 °C 10,4 °C 16,1 km/h (3 Bft)
14.09.2024 01:21 21,3 °C 11,9 °C 55 % 78 % 1022,0 hPa 0,0 l/m² 12,9 km/h (3 Bft) NW 321 ° 0 min 0 W/m² 8,2 °C 8,3 °C 25,7 km/h (4 Bft)
14.09.2024 01:22 21,3 °C 11,9 °C 55 % 78 % 1022,0 hPa 0,0 l/m² 9,5 km/h (2 Bft) W-NW 292 ° 0 min 0 W/m² 8,2 °C 10,0 °C 19,3 km/h (3 Bft)
14.09.2024 01:23 21,3 °C 11,9 °C 55 % 78 % 1022,0 hPa 0,0 l/m² 15,6 km/h (3 Bft) NW 316 ° 0 min 0 W/m² 8,2 °C 7,2 °C 24,1 km/h (4 Bft)
14.09.2024 01:25 21,3 °C 11,9 °C 55 % 78 % 1022,0 hPa 0,0 l/m² 6,4 km/h (2 Bft) W 272 ° 0 min 0 W/m² 8,2 °C 11,9 °C 17,7 km/h (3 Bft)
14.09.2024 01:27 21,3 °C 11,9 °C 55 % 78 % 1022,0 hPa 0,0 l/m² 9,0 km/h (2 Bft) NW 312 ° 0 min 0 W/m² 8,2 °C 10,2 °C 16,1 km/h (3 Bft)
14.09.2024 01:29 21,3 °C 11,8 °C 55 % 78 % 1022,1 hPa 0,0 l/m² 8,0 km/h (2 Bft) NW 312 ° 0 min 0 W/m² 8,1 °C 10,7 °C 22,5 km/h (4 Bft)
14.09.2024 01:31 21,3 °C 11,8 °C 55 % 78 % 1022,0 hPa 0,0 l/m² 11,6 km/h (2 Bft) W-NW 288 ° 0 min 0 W/m² 8,1 °C 8,8 °C 24,1 km/h (4 Bft)
14.09.2024 01:32 21,3 °C 11,8 °C 55 % 78 % 1022,1 hPa 0,0 l/m² 9,8 km/h (2 Bft) W 269 ° 0 min 0 W/m² 8,1 °C 9,7 °C 14,5 km/h (3 Bft)
14.09.2024 01:33 21,3 °C 11,8 °C 55 % 78 % 1022,1 hPa 0,0 l/m² 8,0 km/h (2 Bft) N-NW 344 ° 0 min 0 W/m² 8,1 °C 10,7 °C 14,5 km/h (3 Bft)
14.09.2024 01:35 21,3 °C 11,8 °C 55 % 78 % 1022,0 hPa 0,0 l/m² 14,5 km/h (3 Bft) NW 317 ° 0 min 0 W/m² 8,1 °C 7,5 °C 24,1 km/h (4 Bft)
14.09.2024 01:37 21,3 °C 11,8 °C 55 % 78 % 1022,1 hPa 0,0 l/m² 11,4 km/h (2 Bft) W-NW 300 ° 0 min 0 W/m² 8,1 °C 8,9 °C 20,9 km/h (4 Bft)
14.09.2024 01:39 21,3 °C 11,8 °C 55 % 78 % 1022,1 hPa 0,0 l/m² 5,7 km/h (2 Bft) NW 306 ° 0 min 0 W/m² 8,1 °C 11,8 °C 14,5 km/h (3 Bft)
14.09.2024 01:41 21,3 °C 11,7 °C 55 % 78 % 1022,0 hPa 0,0 l/m² 8,7 km/h (2 Bft) N-NW 327 ° 0 min 0 W/m² 8,0 °C 10,2 °C 17,7 km/h (3 Bft)
14.09.2024 01:42 21,3 °C 11,7 °C 55 % 78 % 1022,0 hPa 0,0 l/m² 12,2 km/h (2 Bft) W 275 ° 0 min 0 W/m² 8,0 °C 8,4 °C 19,3 km/h (3 Bft)
14.09.2024 01:43 21,3 °C 11,7 °C 55 % 79 % 1022,0 hPa 0,0 l/m² 7,2 km/h (2 Bft) W-NW 296 ° 0 min 0 W/m² 8,2 °C 11,2 °C 14,5 km/h (3 Bft)
14.09.2024 01:45 21,3 °C 11,7 °C 55 % 79 % 1022,0 hPa 0,0 l/m² 10,4 km/h (2 Bft) NW 311 ° 0 min 0 W/m² 8,2 °C 9,3 °C 24,1 km/h (4 Bft)
14.09.2024 01:47 21,3 °C 11,7 °C 55 % 79 % 1022,1 hPa 0,0 l/m² 5,2 km/h (1 Bft) NW 315 ° 0 min 0 W/m² 8,2 °C 11,7 °C 12,9 km/h (3 Bft)
14.09.2024 01:49 21,3 °C 11,7 °C 55 % 79 % 1022,0 hPa 0,0 l/m² 8,8 km/h (2 Bft) W-NW 303 ° 0 min 0 W/m² 8,2 °C 10,1 °C 19,3 km/h (3 Bft)
14.09.2024 01:51 21,3 °C 11,7 °C 55 % 79 % 1022,0 hPa 0,0 l/m² 8,5 km/h (2 Bft) W-NW 302 ° 0 min 0 W/m² 8,2 °C 10,3 °C 16,1 km/h (3 Bft)
14.09.2024 01:52 21,3 °C 11,7 °C 55 % 79 % 1022,0 hPa 0,0 l/m² 7,2 km/h (2 Bft) W-NW 287 ° 0 min 0 W/m² 8,2 °C 11,2 °C 16,1 km/h (3 Bft)
14.09.2024 01:53 21,3 °C 11,6 °C 55 % 79 % 1022,0 hPa 0,0 l/m² 6,2 km/h (2 Bft) NW 321 ° 0 min 0 W/m² 8,1 °C 11,6 °C 11,3 km/h (2 Bft)
14.09.2024 01:55 21,3 °C 11,6 °C 55 % 79 % 1022,0 hPa 0,0 l/m² 10,3 km/h (2 Bft) W 269 ° 0 min 0 W/m² 8,1 °C 9,2 °C 24,1 km/h (4 Bft)
14.09.2024 01:57 21,3 °C 11,7 °C 55 % 79 % 1022,1 hPa 0,0 l/m² 9,4 km/h (2 Bft) NW 308 ° 0 min 0 W/m² 8,2 °C 9,8 °C 24,1 km/h (4 Bft)
14.09.2024 01:59 21,3 °C 11,6 °C 55 % 79 % 1022,1 hPa 0,0 l/m² 6,8 km/h (2 Bft) N-NW 333 ° 0 min 0 W/m² 8,1 °C 11,3 °C 12,9 km/h (3 Bft)
14.09.2024 02:01 21,3 °C 11,6 °C 55 % 79 % 1022,1 hPa 0,0 l/m² 6,7 km/h (2 Bft) W-NW 297 ° 0 min 0 W/m² 8,1 °C 11,4 °C 16,1 km/h (3 Bft)
14.09.2024 02:02 21,3 °C 11,6 °C 55 % 79 % 1022,1 hPa 0,0 l/m² 12,8 km/h (3 Bft) NW 305 ° 0 min 0 W/m² 8,1 °C 8,0 °C 16,1 km/h (3 Bft)
14.09.2024 02:03 21,3 °C 11,6 °C 55 % 79 % 1022,1 hPa 0,0 l/m² 10,0 km/h (2 Bft) NW 304 ° 0 min 0 W/m² 8,1 °C 9,4 °C 19,3 km/h (3 Bft)
14.09.2024 02:05 21,3 °C 11,6 °C 55 % 79 % 1022,1 hPa 0,0 l/m² 12,3 km/h (2 Bft) W-NW 293 ° 0 min 0 W/m² 8,1 °C 8,2 °C 20,9 km/h (4 Bft)
14.09.2024 02:07 21,3 °C 11,6 °C 55 % 79 % 1022,0 hPa 0,0 l/m² 9,5 km/h (2 Bft) W-NW 286 ° 0 min 0 W/m² 8,1 °C 9,6 °C 20,9 km/h (4 Bft)
14.09.2024 02:09 21,3 °C 11,6 °C 55 % 79 % 1022,1 hPa 0,0 l/m² 6,9 km/h (2 Bft) W-SW 246 ° 0 min 0 W/m² 8,1 °C 11,3 °C 14,5 km/h (3 Bft)
14.09.2024 02:11 21,3 °C 11,7 °C 55 % 79 % 1022,1 hPa 0,0 l/m² 10,9 km/h (2 Bft) NW 310 ° 0 min 0 W/m² 8,2 °C 9,0 °C 20,9 km/h (4 Bft)
14.09.2024 02:12 21,3 °C 11,6 °C 55 % 79 % 1022,1 hPa 0,0 l/m² 10,1 km/h (2 Bft) W-NW 288 ° 0 min 0 W/m² 8,1 °C 9,3 °C 17,7 km/h (3 Bft)
14.09.2024 02:13 21,3 °C 11,6 °C 55 % 79 % 1022,1 hPa 0,0 l/m² 8,8 km/h (2 Bft) NW 304 ° 0 min 0 W/m² 8,1 °C 10,0 °C 12,9 km/h (3 Bft)
14.09.2024 02:15 21,3 °C 11,6 °C 55 % 79 % 1022,1 hPa 0,0 l/m² 8,2 km/h (2 Bft) NW 325 ° 0 min 0 W/m² 8,1 °C 10,4 °C 20,9 km/h (4 Bft)
14.09.2024 02:17 21,3 °C 11,6 °C 55 % 79 % 1022,1 hPa 0,0 l/m² 11,3 km/h (2 Bft) N-NW 344 ° 0 min 0 W/m² 8,1 °C 8,7 °C 19,3 km/h (3 Bft)
14.09.2024 02:19 21,2 °C 11,6 °C 55 % 79 % 1022,2 hPa 0,0 l/m² 8,9 km/h (2 Bft) W-SW 238 ° 0 min 0 W/m² 8,1 °C 10,0 °C 16,1 km/h (3 Bft)
14.09.2024 02:21 21,2 °C 11,6 °C 55 % 79 % 1022,0 hPa 0,0 l/m² 6,8 km/h (2 Bft) W-NW 297 ° 0 min 0 W/m² 8,1 °C 11,3 °C 17,7 km/h (3 Bft)
14.09.2024 02:22 21,2 °C 11,6 °C 55 % 79 % 1022,0 hPa 0,0 l/m² 7,2 km/h (2 Bft) W 262 ° 0 min 0 W/m² 8,1 °C 11,1 °C 11,3 km/h (2 Bft)
14.09.2024 02:23 21,3 °C 11,6 °C 55 % 78 % 1022,1 hPa 0,0 l/m² 4,5 km/h (1 Bft) N-NW 342 ° 0 min 0 W/m² 7,9 °C 11,6 °C 11,3 km/h (2 Bft)
14.09.2024 02:25 21,2 °C 11,6 °C 55 % 78 % 1022,1 hPa 0,0 l/m² 10,9 km/h (2 Bft) NW 324 ° 0 min 0 W/m² 7,9 °C 8,9 °C 24,1 km/h (4 Bft)
14.09.2024 02:27 21,3 °C 11,6 °C 55 % 78 % 1022,1 hPa 0,0 l/m² 12,4 km/h (2 Bft) W-NW 288 ° 0 min 0 W/m² 7,9 °C 8,2 °C 20,9 km/h (4 Bft)
14.09.2024 02:29 21,2 °C 11,6 °C 55 % 78 % 1022,2 hPa 0,0 l/m² 10,3 km/h (2 Bft) NW 323 ° 0 min 0 W/m² 7,9 °C 9,2 °C 17,7 km/h (3 Bft)
14.09.2024 02:31 21,3 °C 11,6 °C 55 % 78 % 1022,2 hPa 0,0 l/m² 10,6 km/h (2 Bft) W-NW 299 ° 0 min 0 W/m² 7,9 °C 9,0 °C 22,5 km/h (4 Bft)
14.09.2024 02:32 21,3 °C 11,6 °C 55 % 78 % 1022,2 hPa 0,0 l/m² 7,2 km/h (2 Bft) W 275 ° 0 min 0 W/m² 7,9 °C 11,1 °C 11,3 km/h (2 Bft)
14.09.2024 02:33 21,2 °C 11,6 °C 55 % 78 % 1022,2 hPa 0,0 l/m² 3,9 km/h (1 Bft) W 279 ° 0 min 0 W/m² 7,9 °C 11,6 °C 6,4 km/h (2 Bft)
14.09.2024 02:35 21,2 °C 11,6 °C 55 % 78 % 1022,2 hPa 0,0 l/m² 6,1 km/h (2 Bft) N-NW 344 ° 0 min 0 W/m² 7,9 °C 11,6 °C 16,1 km/h (3 Bft)
14.09.2024 02:37 21,2 °C 11,5 °C 55 % 78 % 1022,1 hPa 0,0 l/m² 8,0 km/h (2 Bft) W-SW 252 ° 0 min 0 W/m² 7,8 °C 10,4 °C 19,3 km/h (3 Bft)
14.09.2024 02:39 21,2 °C 11,5 °C 55 % 78 % 1022,2 hPa 0,0 l/m² 11,3 km/h (2 Bft) NW 311 ° 0 min 0 W/m² 7,8 °C 8,6 °C 20,9 km/h (4 Bft)
14.09.2024 02:41 21,2 °C 11,5 °C 55 % 78 % 1022,2 hPa 0,0 l/m² 10,1 km/h (2 Bft) NW 306 ° 0 min 0 W/m² 7,8 °C 9,2 °C 17,7 km/h (3 Bft)
14.09.2024 02:42 21,3 °C 11,5 °C 55 % 78 % 1022,2 hPa 0,0 l/m² 10,4 km/h (2 Bft) NW 315 ° 0 min 0 W/m² 7,8 °C 9,0 °C 14,5 km/h (3 Bft)
14.09.2024 02:43 21,3 °C 11,4 °C 55 % 78 % 1022,2 hPa 0,0 l/m² 5,4 km/h (2 Bft) W 279 ° 0 min 0 W/m² 7,7 °C 11,4 °C 14,5 km/h (3 Bft)
14.09.2024 02:45 21,3 °C 11,5 °C 55 % 78 % 1022,2 hPa 0,0 l/m² 7,4 km/h (2 Bft) W-NW 300 ° 0 min 0 W/m² 7,8 °C 10,8 °C 16,1 km/h (3 Bft)
14.09.2024 02:47 21,2 °C 11,5 °C 55 % 78 % 1022,3 hPa 0,0 l/m² 11,7 km/h (2 Bft) NW 314 ° 0 min 0 W/m² 7,8 °C 8,4 °C 20,9 km/h (4 Bft)
14.09.2024 02:49 21,2 °C 11,4 °C 55 % 78 % 1022,2 hPa 0,0 l/m² 7,1 km/h (2 Bft) NW 306 ° 0 min 0 W/m² 7,7 °C 10,9 °C 19,3 km/h (3 Bft)
14.09.2024 02:51 21,2 °C 11,4 °C 55 % 78 % 1022,3 hPa 0,0 l/m² 11,4 km/h (2 Bft) NW 312 ° 0 min 0 W/m² 7,7 °C 8,4 °C 22,5 km/h (4 Bft)
14.09.2024 02:52 21,2 °C 11,4 °C 55 % 78 % 1022,3 hPa 0,0 l/m² 10,2 km/h (2 Bft) W-NW 294 ° 0 min 0 W/m² 7,7 °C 9,0 °C 19,3 km/h (3 Bft)
14.09.2024 02:53 21,2 °C 11,4 °C 55 % 78 % 1022,2 hPa 0,0 l/m² 6,3 km/h (2 Bft) W 281 ° 0 min 0 W/m² 7,7 °C 11,4 °C 11,3 km/h (2 Bft)
14.09.2024 02:55 21,2 °C 11,4 °C 55 % 78 % 1022,2 hPa 0,0 l/m² 7,1 km/h (2 Bft) W-NW 292 ° 0 min 0 W/m² 7,7 °C 10,9 °C 14,5 km/h (3 Bft)
14.09.2024 02:57 21,2 °C 11,4 °C 55 % 78 % 1022,3 hPa 0,0 l/m² 8,6 km/h (2 Bft) NW 318 ° 0 min 0 W/m² 7,7 °C 9,9 °C 24,1 km/h (4 Bft)
14.09.2024 02:59 21,2 °C 11,4 °C 55 % 78 % 1022,4 hPa 0,0 l/m² 12,1 km/h (2 Bft) W-NW 288 ° 0 min 0 W/m² 7,7 °C 8,1 °C 20,9 km/h (4 Bft)
14.09.2024 03:00 21,2 °C 11,4 °C 55 % 78 % 1022,3 hPa 0,0 l/m² 12,9 km/h (3 Bft) W-NW 292 ° 0 min 0 W/m² 7,7 °C 7,7 °C 22,5 km/h (4 Bft)
14.09.2024 03:01 21,2 °C 11,4 °C 55 % 78 % 1022,3 hPa 0,0 l/m² 12,9 km/h (3 Bft) W-NW 292 ° 0 min 0 W/m² 7,7 °C 7,7 °C 22,5 km/h (4 Bft)
14.09.2024 03:06 21,2 °C 11,3 °C 55 % 78 % 1022,3 hPa 0,0 l/m² 14,5 km/h (3 Bft) W 266 ° 0 min 0 W/m² 7,6 °C 6,9 °C 14,5 km/h (3 Bft)
14.09.2024 03:08 21,2 °C 11,3 °C 55 % 78 % 1022,4 hPa 0,0 l/m² 9,8 km/h (2 Bft) W 259 ° 0 min 0 W/m² 7,6 °C 9,1 °C 20,9 km/h (4 Bft)
14.09.2024 03:10 21,2 °C 11,3 °C 55 % 78 % 1022,3 hPa 0,0 l/m² 7,3 km/h (2 Bft) W-NW 302 ° 0 min 0 W/m² 7,6 °C 10,7 °C 16,1 km/h (3 Bft)
14.09.2024 03:11 21,2 °C 11,3 °C 55 % 78 % 1022,3 hPa 0,0 l/m² 8,4 km/h (2 Bft) W-NW 302 ° 0 min 0 W/m² 7,6 °C 10,0 °C 14,5 km/h (3 Bft)
14.09.2024 03:12 21,2 °C 11,3 °C 55 % 78 % 1022,4 hPa 0,0 l/m² 5,7 km/h (2 Bft) W-NW 290 ° 0 min 0 W/m² 7,6 °C 11,3 °C 11,3 km/h (2 Bft)
14.09.2024 03:13 21,2 °C 11,3 °C 55 % 78 % 1022,4 hPa 0,0 l/m² 11,3 km/h (2 Bft) NW 315 ° 0 min 0 W/m² 7,6 °C 8,4 °C 20,9 km/h (4 Bft)
14.09.2024 03:15 21,2 °C 11,3 °C 55 % 78 % 1022,4 hPa 0,0 l/m² 13,7 km/h (3 Bft) NW 324 ° 0 min 0 W/m² 7,6 °C 7,2 °C 25,7 km/h (4 Bft)
14.09.2024 03:17 21,2 °C 11,3 °C 55 % 78 % 1022,4 hPa 0,0 l/m² 8,8 km/h (2 Bft) W 274 ° 0 min 0 W/m² 7,6 °C 9,7 °C 17,7 km/h (3 Bft)
14.09.2024 03:19 21,2 °C 11,2 °C 55 % 78 % 1022,4 hPa 0,0 l/m² 9,2 km/h (2 Bft) W 279 ° 0 min 0 W/m² 7,5 °C 9,4 °C 17,7 km/h (3 Bft)
14.09.2024 03:20 21,2 °C 11,2 °C 55 % 78 % 1022,4 hPa 0,0 l/m² 13,4 km/h (3 Bft) W-NW 284 ° 0 min 0 W/m² 7,5 °C 7,3 °C 27,4 km/h (5 Bft)
14.09.2024 03:22 21,2 °C 11,2 °C 55 % 79 % 1022,4 hPa 0,0 l/m² 10,6 km/h (2 Bft) W 270 ° 0 min 0 W/m² 7,7 °C 8,6 °C 24,1 km/h (4 Bft)
14.09.2024 03:23 21,2 °C 11,2 °C 55 % 79 % 1022,4 hPa 0,0 l/m² 15,4 km/h (3 Bft) W-NW 282 ° 0 min 0 W/m² 7,7 °C 6,4 °C 25,7 km/h (4 Bft)
14.09.2024 03:25 21,2 °C 11,2 °C 55 % 79 % 1022,4 hPa 0,0 l/m² 7,5 km/h (2 Bft) W 281 ° 0 min 0 W/m² 7,7 °C 10,4 °C 16,1 km/h (3 Bft)
14.09.2024 03:27 21,2 °C 11,2 °C 55 % 79 % 1022,4 hPa 0,0 l/m² 9,7 km/h (2 Bft) N-NW 330 ° 0 min 0 W/m² 7,7 °C 9,1 °C 17,7 km/h (3 Bft)
14.09.2024 03:29 21,2 °C 11,1 °C 55 % 79 % 1022,4 hPa 0,0 l/m² 10,2 km/h (2 Bft) NW 308 ° 0 min 0 W/m² 7,6 °C 8,7 °C 19,3 km/h (3 Bft)
14.09.2024 03:30 21,2 °C 11,1 °C 55 % 79 % 1022,4 hPa 0,0 l/m² 12,8 km/h (3 Bft) W-NW 286 ° 0 min 0 W/m² 7,6 °C 7,4 °C 20,9 km/h (4 Bft)
14.09.2024 03:32 21,2 °C 11,1 °C 55 % 79 % 1022,4 hPa 0,0 l/m² 11,3 km/h (2 Bft) NW 322 ° 0 min 0 W/m² 7,6 °C 8,1 °C 22,5 km/h (4 Bft)
14.09.2024 03:34 21,2 °C 11,1 °C 55 % 79 % 1022,5 hPa 0,0 l/m² 10,3 km/h (2 Bft) NW 311 ° 0 min 0 W/m² 7,6 °C 8,6 °C 25,7 km/h (4 Bft)
14.09.2024 03:36 21,2 °C 11,1 °C 55 % 79 % 1022,5 hPa 0,0 l/m² 11,8 km/h (2 Bft) N 355 ° 0 min 0 W/m² 7,6 °C 7,9 °C 24,1 km/h (4 Bft)
14.09.2024 03:38 21,2 °C 11,1 °C 55 % 79 % 1022,4 hPa 0,0 l/m² 12,2 km/h (2 Bft) N-NW 329 ° 0 min 0 W/m² 7,6 °C 7,7 °C 19,3 km/h (3 Bft)
14.09.2024 03:40 21,2 °C 11,0 °C 55 % 79 % 1022,4 hPa 0,0 l/m² 11,3 km/h (2 Bft) N-NW 339 ° 0 min 0 W/m² 7,5 °C 8,0 °C 20,9 km/h (4 Bft)
14.09.2024 03:41 21,2 °C 11,0 °C 55 % 79 % 1022,4 hPa 0,0 l/m² 15,0 km/h (3 Bft) N-NW 331 ° 0 min 0 W/m² 7,5 °C 6,3 °C 20,9 km/h (4 Bft)
14.09.2024 03:43 21,2 °C 11,0 °C 55 % 79 % 1022,5 hPa 0,0 l/m² 12,4 km/h (2 Bft) NW 313 ° 0 min 0 W/m² 7,5 °C 7,5 °C 20,9 km/h (4 Bft)
14.09.2024 03:45 21,2 °C 11,0 °C 55 % 79 % 1022,5 hPa 0,0 l/m² 10,9 km/h (2 Bft) NW 305 ° 0 min 0 W/m² 7,5 °C 8,2 °C 24,1 km/h (4 Bft)
14.09.2024 03:47 21,2 °C 11,0 °C 55 % 79 % 1022,4 hPa 0,0 l/m² 10,5 km/h (2 Bft) N 355 ° 0 min 0 W/m² 7,5 °C 8,4 °C 22,5 km/h (4 Bft)
14.09.2024 03:48 21,2 °C 10,9 °C 55 % 79 % 1022,5 hPa 0,0 l/m² 10,0 km/h (2 Bft) W-NW 295 ° 0 min 0 W/m² 7,4 °C 8,6 °C 20,9 km/h (4 Bft)
14.09.2024 03:50 21,2 °C 10,9 °C 55 % 79 % 1022,4 hPa 0,0 l/m² 8,8 km/h (2 Bft) NW 319 ° 0 min 0 W/m² 7,4 °C 9,3 °C 20,9 km/h (4 Bft)
14.09.2024 03:51 21,2 °C 10,9 °C 55 % 79 % 1022,4 hPa 0,0 l/m² 8,7 km/h (2 Bft) W-NW 286 ° 0 min 0 W/m² 7,4 °C 9,4 °C 17,7 km/h (3 Bft)
14.09.2024 03:53 21,2 °C 10,9 °C 55 % 79 % 1022,4 hPa 0,0 l/m² 8,9 km/h (2 Bft) NW 311 ° 0 min 0 W/m² 7,4 °C 9,2 °C 17,7 km/h (3 Bft)
14.09.2024 03:55 21,2 °C 10,9 °C 55 % 80 % 1022,5 hPa 0,0 l/m² 6,4 km/h (2 Bft) W-SW 258 ° 0 min 0 W/m² 7,6 °C 10,9 °C 16,1 km/h (3 Bft)
14.09.2024 03:57 21,2 °C 10,9 °C 55 % 80 % 1022,5 hPa 0,0 l/m² 9,9 km/h (2 Bft) W-NW 293 ° 0 min 0 W/m² 7,6 °C 8,6 °C 22,5 km/h (4 Bft)
14.09.2024 03:59 21,2 °C 10,9 °C 55 % 80 % 1022,5 hPa 0,0 l/m² 8,8 km/h (2 Bft) W-NW 291 ° 0 min 0 W/m² 7,6 °C 9,3 °C 24,1 km/h (4 Bft)
14.09.2024 04:00 21,2 °C 10,8 °C 55 % 80 % 1022,5 hPa 0,0 l/m² 13,5 km/h (3 Bft) W 262 ° 0 min 0 W/m² 7,5 °C 6,7 °C 25,7 km/h (4 Bft)
14.09.2024 04:02 21,2 °C 10,9 °C 55 % 80 % 1022,5 hPa 0,0 l/m² 10,3 km/h (2 Bft) NW 306 ° 0 min 0 W/m² 7,6 °C 8,4 °C 20,9 km/h (4 Bft)
14.09.2024 04:04 21,2 °C 10,8 °C 55 % 80 % 1022,6 hPa 0,0 l/m² 9,4 km/h (2 Bft) W 263 ° 0 min 0 W/m² 7,5 °C 8,8 °C 19,3 km/h (3 Bft)
14.09.2024 04:06 21,1 °C 10,8 °C 55 % 80 % 1022,5 hPa 0,0 l/m² 10,4 km/h (2 Bft) NW 326 ° 0 min 0 W/m² 7,5 °C 8,3 °C 17,7 km/h (3 Bft)
14.09.2024 04:08 21,2 °C 10,8 °C 55 % 80 % 1022,5 hPa 0,0 l/m² 13,3 km/h (3 Bft) NW 307 ° 0 min 0 W/m² 7,5 °C 6,8 °C 24,1 km/h (4 Bft)
14.09.2024 04:10 21,2 °C 10,8 °C 55 % 80 % 1022,4 hPa 0,0 l/m² 12,2 km/h (2 Bft) W-NW 288 ° 0 min 0 W/m² 7,5 °C 7,3 °C 24,1 km/h (4 Bft)
14.09.2024 04:11 21,2 °C 10,8 °C 55 % 80 % 1022,5 hPa 0,0 l/m² 12,0 km/h (2 Bft) NW 321 ° 0 min 0 W/m² 7,5 °C 7,4 °C 20,9 km/h (4 Bft)
14.09.2024 04:13 21,2 °C 10,8 °C 55 % 80 % 1022,5 hPa 0,0 l/m² 9,8 km/h (2 Bft) NW 320 ° 0 min 0 W/m² 7,5 °C 8,6 °C 20,9 km/h (4 Bft)
14.09.2024 04:15 21,1 °C 10,8 °C 55 % 80 % 1022,5 hPa 0,0 l/m² 9,4 km/h (2 Bft) N-NW 338 ° 0 min 0 W/m² 7,5 °C 8,8 °C 20,9 km/h (4 Bft)
14.09.2024 04:17 21,1 °C 10,8 °C 55 % 80 % 1022,5 hPa 0,0 l/m² 12,6 km/h (3 Bft) W-NW 300 ° 0 min 0 W/m² 7,5 °C 7,1 °C 25,7 km/h (4 Bft)
14.09.2024 04:19 21,2 °C 10,8 °C 55 % 80 % 1022,5 hPa 0,0 l/m² 10,9 km/h (2 Bft) SW 234 ° 0 min 0 W/m² 7,5 °C 8,0 °C 20,9 km/h (4 Bft)
14.09.2024 04:20 21,2 °C 10,8 °C 55 % 80 % 1022,5 hPa 0,0 l/m² 11,1 km/h (2 Bft) W-NW 292 ° 0 min 0 W/m² 7,5 °C 7,9 °C 19,3 km/h (3 Bft)
14.09.2024 04:22 21,1 °C 10,8 °C 55 % 80 % 1022,5 hPa 0,0 l/m² 12,8 km/h (3 Bft) NW 304 ° 0 min 0 W/m² 7,5 °C 7,1 °C 25,7 km/h (4 Bft)
14.09.2024 04:24 21,1 °C 10,8 °C 55 % 80 % 1022,5 hPa 0,0 l/m² 12,3 km/h (2 Bft) W-NW 288 ° 0 min 0 W/m² 7,5 °C 7,3 °C 20,9 km/h (4 Bft)
14.09.2024 04:26 21,1 °C 10,7 °C 55 % 80 % 1022,5 hPa 0,0 l/m² 8,4 km/h (2 Bft) W 276 ° 0 min 0 W/m² 7,4 °C 9,3 °C 19,3 km/h (3 Bft)
14.09.2024 04:28 21,1 °C 10,7 °C 55 % 80 % 1022,5 hPa 0,0 l/m² 9,6 km/h (2 Bft) NW 321 ° 0 min 0 W/m² 7,4 °C 8,6 °C 25,7 km/h (4 Bft)
14.09.2024 04:30 21,1 °C 10,7 °C 55 % 80 % 1022,5 hPa 0,0 l/m² 11,3 km/h (2 Bft) N-NW 347 ° 0 min 0 W/m² 7,4 °C 7,7 °C 24,1 km/h (4 Bft)
14.09.2024 04:31 21,1 °C 10,7 °C 55 % 80 % 1022,5 hPa 0,0 l/m² 5,7 km/h (2 Bft) N-NW 333 ° 0 min 0 W/m² 7,4 °C 10,7 °C 9,7 km/h (2 Bft)
14.09.2024 04:33 21,1 °C 10,7 °C 55 % 80 % 1022,5 hPa 0,0 l/m² 10,6 km/h (2 Bft) W 267 ° 0 min 0 W/m² 7,4 °C 8,0 °C 30,6 km/h (5 Bft)
14.09.2024 04:35 21,1 °C 10,7 °C 55 % 80 % 1022,5 hPa 0,0 l/m² 10,1 km/h (2 Bft) W-NW 296 ° 0 min 0 W/m² 7,4 °C 8,3 °C 25,7 km/h (4 Bft)
14.09.2024 04:36 21,1 °C 10,7 °C 55 % 81 % 1022,6 hPa 0,0 l/m² 9,4 km/h (2 Bft) NW 308 ° 0 min 0 W/m² 7,6 °C 8,7 °C 19,3 km/h (3 Bft)
14.09.2024 04:38 21,1 °C 10,7 °C 55 % 81 % 1022,5 hPa 0,0 l/m² 12,5 km/h (2 Bft) W-NW 294 ° 0 min 0 W/m² 7,6 °C 7,1 °C 24,1 km/h (4 Bft)
14.09.2024 04:40 21,1 °C 10,7 °C 55 % 81 % 1022,5 hPa 0,0 l/m² 11,2 km/h (2 Bft) W-NW 290 ° 0 min 0 W/m² 7,6 °C 7,7 °C 20,9 km/h (4 Bft)
14.09.2024 04:41 21,1 °C 10,7 °C 55 % 80 % 1022,5 hPa 0,0 l/m² 13,3 km/h (3 Bft) W-SW 246 ° 0 min 0 W/m² 7,4 °C 6,7 °C 22,5 km/h (4 Bft)
14.09.2024 04:43 21,2 °C 10,7 °C 55 % 81 % 1022,5 hPa 0,0 l/m² 10,8 km/h (2 Bft) NW 322 ° 0 min 0 W/m² 7,6 °C 7,9 °C 19,3 km/h (3 Bft)
14.09.2024 04:45 21,1 °C 10,7 °C 55 % 81 % 1022,5 hPa 0,0 l/m² 15,9 km/h (3 Bft) NW 312 ° 0 min 0 W/m² 7,6 °C 5,6 °C 27,4 km/h (5 Bft)
14.09.2024 04:47 21,1 °C 10,7 °C 55 % 80 % 1022,5 hPa 0,0 l/m² 10,9 km/h (2 Bft) W-NW 293 ° 0 min 0 W/m² 7,4 °C 7,9 °C 20,9 km/h (4 Bft)
14.09.2024 04:49 21,1 °C 10,7 °C 55 % 81 % 1022,5 hPa 0,0 l/m² 9,6 km/h (2 Bft) W-NW 303 ° 0 min 0 W/m² 7,6 °C 8,6 °C 24,1 km/h (4 Bft)
14.09.2024 04:50 21,1 °C 10,6 °C 55 % 81 % 1022,5 hPa 0,0 l/m² 15,9 km/h (3 Bft) NW 306 ° 0 min 0 W/m² 7,5 °C 5,5 °C 24,1 km/h (4 Bft)
14.09.2024 04:52 21,1 °C 10,7 °C 55 % 81 % 1022,6 hPa 0,0 l/m² 15,2 km/h (3 Bft) N-NW 346 ° 0 min 0 W/m² 7,6 °C 5,9 °C 22,5 km/h (4 Bft)
14.09.2024 04:54 21,1 °C 10,7 °C 55 % 81 % 1022,5 hPa 0,0 l/m² 10,9 km/h (2 Bft) NW 313 ° 0 min 0 W/m² 7,6 °C 7,9 °C 19,3 km/h (3 Bft)
14.09.2024 04:56 21,1 °C 10,6 °C 55 % 80 % 1022,6 hPa 0,0 l/m² 12,0 km/h (2 Bft) W-NW 283 ° 0 min 0 W/m² 7,3 °C 7,2 °C 20,9 km/h (4 Bft)
14.09.2024 04:58 21,1 °C 10,6 °C 55 % 81 % 1022,6 hPa 0,0 l/m² 15,6 km/h (3 Bft) W 278 ° 0 min 0 W/m² 7,5 °C 5,6 °C 24,1 km/h (4 Bft)
14.09.2024 05:00 21,1 °C 10,6 °C 55 % 80 % 1022,5 hPa 0,0 l/m² 8,7 km/h (2 Bft) W-NW 288 ° 0 min 0 W/m² 7,3 °C 9,0 °C 19,3 km/h (3 Bft)
14.09.2024 05:01 21,1 °C 10,6 °C 55 % 80 % 1022,6 hPa 0,0 l/m² 4,9 km/h (1 Bft) S-SW 202 ° 0 min 0 W/m² 7,3 °C 10,6 °C 11,3 km/h (2 Bft)
14.09.2024 05:02 21,1 °C 10,6 °C 55 % 81 % 1022,6 hPa 0,0 l/m² 10,3 km/h (2 Bft) W-NW 290 ° 0 min 0 W/m² 7,5 °C 8,1 °C 20,9 km/h (4 Bft)
14.09.2024 05:03 21,1 °C 10,6 °C 55 % 81 % 1022,6 hPa 0,0 l/m² 7,7 km/h (2 Bft) W-NW 302 ° 0 min 0 W/m² 7,5 °C 9,7 °C 17,7 km/h (3 Bft)
14.09.2024 05:05 21,1 °C 10,6 °C 55 % 81 % 1022,6 hPa 0,0 l/m² 6,9 km/h (2 Bft) NW 306 ° 0 min 0 W/m² 7,5 °C 10,3 °C 22,5 km/h (4 Bft)
14.09.2024 05:07 21,1 °C 10,6 °C 55 % 81 % 1022,6 hPa 0,0 l/m² 5,4 km/h (2 Bft) N-NW 328 ° 0 min 0 W/m² 7,5 °C 10,6 °C 14,5 km/h (3 Bft)
14.09.2024 05:09 21,1 °C 10,6 °C 55 % 81 % 1022,6 hPa 0,0 l/m² 12,1 km/h (2 Bft) NW 313 ° 0 min 0 W/m² 7,5 °C 7,2 °C 22,5 km/h (4 Bft)
14.09.2024 05:10 21,1 °C 10,6 °C 55 % 81 % 1022,6 hPa 0,0 l/m² 6,4 km/h (2 Bft) N-NW 334 ° 0 min 0 W/m² 7,5 °C 10,6 °C 16,1 km/h (3 Bft)
14.09.2024 05:12 21,1 °C 10,6 °C 55 % 81 % 1022,7 hPa 0,0 l/m² 10,8 km/h (2 Bft) NW 307 ° 0 min 0 W/m² 7,5 °C 7,8 °C 20,9 km/h (4 Bft)
14.09.2024 05:14 21,1 °C 10,6 °C 55 % 81 % 1022,7 hPa 0,0 l/m² 7,2 km/h (2 Bft) NW 309 ° 0 min 0 W/m² 7,5 °C 10,0 °C 24,1 km/h (4 Bft)
14.09.2024 05:16 21,1 °C 10,5 °C 55 % 81 % 1022,7 hPa 0,0 l/m² 11,4 km/h (2 Bft) NW 311 ° 0 min 0 W/m² 7,4 °C 7,4 °C 22,5 km/h (4 Bft)
14.09.2024 05:18 21,1 °C 10,4 °C 55 % 81 % 1022,7 hPa 0,0 l/m² 12,0 km/h (2 Bft) NW 320 ° 0 min 0 W/m² 7,3 °C 7,0 °C 20,9 km/h (4 Bft)
14.09.2024 05:20 21,1 °C 10,4 °C 55 % 81 % 1022,8 hPa 0,0 l/m² 9,9 km/h (2 Bft) W 276 ° 0 min 0 W/m² 7,3 °C 8,1 °C 24,1 km/h (4 Bft)
14.09.2024 05:21 21,1 °C 10,4 °C 55 % 81 % 1022,8 hPa 0,0 l/m² 12,1 km/h (2 Bft) NW 305 ° 0 min 0 W/m² 7,3 °C 6,9 °C 19,3 km/h (3 Bft)
14.09.2024 05:23 21,1 °C 10,4 °C 55 % 81 % 1022,8 hPa 0,0 l/m² 7,6 km/h (2 Bft) W-NW 293 ° 0 min 0 W/m² 7,3 °C 9,5 °C 19,3 km/h (3 Bft)
14.09.2024 05:25 21,1 °C 10,4 °C 55 % 81 % 1022,7 hPa 0,0 l/m² 12,1 km/h (2 Bft) W-SW 247 ° 0 min 0 W/m² 7,3 °C 6,9 °C 20,9 km/h (4 Bft)
14.09.2024 05:27 21,1 °C 10,4 °C 55 % 81 % 1022,8 hPa 0,0 l/m² 9,8 km/h (2 Bft) W 281 ° 0 min 0 W/m² 7,3 °C 8,2 °C 17,7 km/h (3 Bft)
14.09.2024 05:29 21,1 °C 10,4 °C 55 % 81 % 1022,8 hPa 0,0 l/m² 7,2 km/h (2 Bft) W-NW 284 ° 0 min 0 W/m² 7,3 °C 9,8 °C 14,5 km/h (3 Bft)
14.09.2024 05:30 21,1 °C 10,4 °C 55 % 81 % 1022,8 hPa 0,0 l/m² 7,4 km/h (2 Bft) N 5 ° 0 min 0 W/m² 7,3 °C 9,7 °C 19,3 km/h (3 Bft)
14.09.2024 05:32 21,0 °C 10,4 °C 55 % 81 % 1022,8 hPa 0,0 l/m² 12,6 km/h (3 Bft) W-NW 283 ° 0 min 0 W/m² 7,3 °C 6,7 °C 22,5 km/h (4 Bft)
14.09.2024 05:34 21,1 °C 10,3 °C 55 % 81 % 1022,8 hPa 0,0 l/m² 11,0 km/h (2 Bft) NW 317 ° 0 min 0 W/m² 7,2 °C 7,4 °C 22,5 km/h (4 Bft)
14.09.2024 05:36 21,1 °C 10,4 °C 55 % 81 % 1022,8 hPa 0,0 l/m² 11,1 km/h (2 Bft) W 262 ° 0 min 0 W/m² 7,3 °C 7,4 °C 22,5 km/h (4 Bft)
14.09.2024 05:38 21,1 °C 10,3 °C 55 % 81 % 1022,8 hPa 0,0 l/m² 9,0 km/h (2 Bft) N 351 ° 0 min 0 W/m² 7,2 °C 8,5 °C 19,3 km/h (3 Bft)
14.09.2024 05:40 21,1 °C 10,3 °C 55 % 81 % 1022,9 hPa 0,0 l/m² 9,1 km/h (2 Bft) W 279 ° 0 min 0 W/m² 7,2 °C 8,5 °C 17,7 km/h (3 Bft)
14.09.2024 05:41 21,1 °C 10,3 °C 55 % 81 % 1022,9 hPa 0,0 l/m² 6,7 km/h (2 Bft) W-NW 296 ° 0 min 0 W/m² 7,2 °C 10,1 °C 12,9 km/h (3 Bft)
14.09.2024 05:42 21,1 °C 10,3 °C 55 % 81 % 1022,8 hPa 0,0 l/m² 8,0 km/h (2 Bft) W-NW 284 ° 0 min 0 W/m² 7,2 °C 9,2 °C 14,5 km/h (3 Bft)
14.09.2024 05:43 21,1 °C 10,3 °C 55 % 82 % 1022,8 hPa 0,0 l/m² 9,1 km/h (2 Bft) W-SW 254 ° 0 min 0 W/m² 7,4 °C 8,5 °C 17,7 km/h (3 Bft)
14.09.2024 05:44 21,1 °C 10,3 °C 55 % 82 % 1022,9 hPa 0,0 l/m² 8,6 km/h (2 Bft) NW 305 ° 0 min 0 W/m² 7,4 °C 8,8 °C 17,7 km/h (3 Bft)
14.09.2024 05:46 21,1 °C 10,3 °C 55 % 81 % 1022,9 hPa 0,0 l/m² 7,6 km/h (2 Bft) W-NW 302 ° 0 min 0 W/m² 7,2 °C 9,4 °C 14,5 km/h (3 Bft)
14.09.2024 05:48 21,1 °C 10,3 °C 55 % 82 % 1022,9 hPa 0,0 l/m² 10,0 km/h (2 Bft) W-NW 298 ° 0 min 0 W/m² 7,4 °C 7,9 °C 20,9 km/h (4 Bft)
14.09.2024 05:50 21,0 °C 10,3 °C 55 % 82 % 1022,9 hPa 0,0 l/m² 11,1 km/h (2 Bft) W-NW 299 ° 0 min 0 W/m² 7,4 °C 7,3 °C 20,9 km/h (4 Bft)
14.09.2024 05:51 21,1 °C 10,3 °C 55 % 82 % 1022,9 hPa 0,0 l/m² 9,7 km/h (2 Bft) W-NW 303 ° 0 min 0 W/m² 7,4 °C 8,1 °C 17,7 km/h (3 Bft)
14.09.2024 05:53 21,1 °C 10,3 °C 55 % 82 % 1022,9 hPa 0,0 l/m² 7,7 km/h (2 Bft) NW 315 ° 0 min 0 W/m² 7,4 °C 9,4 °C 14,5 km/h (3 Bft)
14.09.2024 05:55 21,1 °C 10,3 °C 55 % 82 % 1022,9 hPa 0,0 l/m² 7,2 km/h (2 Bft) N 355 ° 0 min 0 W/m² 7,4 °C 9,7 °C 20,9 km/h (4 Bft)
14.09.2024 05:56 21,1 °C 10,3 °C 55 % 82 % 1022,9 hPa 0,0 l/m² 9,4 km/h (2 Bft) W-NW 301 ° 0 min 0 W/m² 7,4 °C 8,3 °C 20,9 km/h (4 Bft)
14.09.2024 05:57 21,1 °C 10,3 °C 55 % 82 % 1022,9 hPa 0,0 l/m² 6,7 km/h (2 Bft) NW 307 ° 0 min 0 W/m² 7,4 °C 10,1 °C 14,5 km/h (3 Bft)
14.09.2024 05:59 21,1 °C 10,3 °C 55 % 82 % 1022,9 hPa 0,0 l/m² 10,4 km/h (2 Bft) NW 311 ° 0 min 0 W/m² 7,4 °C 7,7 °C 19,3 km/h (3 Bft)
14.09.2024 06:01 21,1 °C 10,2 °C 55 % 82 % 1023,0 hPa 0,0 l/m² 9,1 km/h (2 Bft) NW 325 ° 0 min 0 W/m² 7,3 °C 8,4 °C 19,3 km/h (3 Bft)
14.09.2024 06:02 21,0 °C 10,3 °C 55 % 82 % 1023,0 hPa 0,0 l/m² 8,6 km/h (2 Bft) NW 315 ° 0 min 0 W/m² 7,4 °C 8,8 °C 16,1 km/h (3 Bft)
14.09.2024 06:04 21,0 °C 10,2 °C 55 % 82 % 1023,0 hPa 0,0 l/m² 8,9 km/h (2 Bft) W 279 ° 0 min 0 W/m² 7,3 °C 8,5 °C 19,3 km/h (3 Bft)
14.09.2024 06:06 21,0 °C 10,2 °C 55 % 82 % 1023,0 hPa 0,0 l/m² 10,6 km/h (2 Bft) W-NW 300 ° 0 min 0 W/m² 7,3 °C 7,5 °C 22,5 km/h (4 Bft)
14.09.2024 06:08 21,1 °C 10,2 °C 55 % 82 % 1023,1 hPa 0,0 l/m² 8,4 km/h (2 Bft) W-NW 293 ° 0 min 0 W/m² 7,3 °C 8,8 °C 16,1 km/h (3 Bft)
14.09.2024 06:10 21,1 °C 10,2 °C 55 % 82 % 1023,0 hPa 0,0 l/m² 9,7 km/h (2 Bft) SW 229 ° 0 min 0 W/m² 7,3 °C 8,0 °C 19,3 km/h (3 Bft)
14.09.2024 06:11 21,1 °C 10,2 °C 55 % 82 % 1023,1 hPa 0,0 l/m² 5,5 km/h (2 Bft) NW 317 ° 0 min 0 W/m² 7,3 °C 10,2 °C 12,9 km/h (3 Bft)
14.09.2024 06:13 21,1 °C 10,1 °C 55 % 82 % 1023,1 hPa 0,0 l/m² 10,9 km/h (2 Bft) NW 312 ° 0 min 0 W/m² 7,2 °C 7,2 °C 27,4 km/h (5 Bft)
14.09.2024 06:15 21,0 °C 10,1 °C 55 % 82 % 1023,2 hPa 0,0 l/m² 10,1 km/h (2 Bft) NW 306 ° 0 min 0 W/m² 7,2 °C 7,6 °C 20,9 km/h (4 Bft)
14.09.2024 06:17 21,0 °C 10,1 °C 55 % 82 % 1023,2 hPa 0,0 l/m² 12,5 km/h (2 Bft) W-NW 301 ° 0 min 0 W/m² 7,2 °C 6,4 °C 20,9 km/h (4 Bft)
14.09.2024 06:19 21,0 °C 10,1 °C 55 % 82 % 1023,3 hPa 0,0 l/m² 9,3 km/h (2 Bft) W-SW 244 ° 0 min 0 W/m² 7,2 °C 8,1 °C 20,9 km/h (4 Bft)
14.09.2024 06:20 21,0 °C 10,1 °C 55 % 82 % 1023,3 hPa 0,0 l/m² 9,4 km/h (2 Bft) W-NW 292 ° 0 min 0 W/m² 7,2 °C 8,1 °C 19,3 km/h (3 Bft)
14.09.2024 06:22 21,0 °C 10,1 °C 55 % 82 % 1023,4 hPa 0,0 l/m² 8,3 km/h (2 Bft) NW 306 ° 0 min 0 W/m² 7,2 °C 8,8 °C 17,7 km/h (3 Bft)
14.09.2024 06:23 21,1 °C 10,1 °C 55 % 82 % 1023,3 hPa 0,0 l/m² 10,9 km/h (2 Bft) N-NW 327 ° 0 min 0 W/m² 7,2 °C 7,2 °C 14,5 km/h (3 Bft)
14.09.2024 06:25 21,1 °C 10,1 °C 55 % 82 % 1023,4 hPa 0,0 l/m² 12,9 km/h (3 Bft) NW 305 ° 0 min 0 W/m² 7,2 °C 6,2 °C 24,1 km/h (4 Bft)
14.09.2024 06:27 21,0 °C 10,0 °C 55 % 82 % 1023,3 hPa 0,0 l/m² 11,7 km/h (2 Bft) NW 322 ° 0 min 0 W/m² 7,1 °C 6,7 °C 22,5 km/h (4 Bft)
14.09.2024 06:29 21,0 °C 9,9 °C 55 % 82 % 1023,3 hPa 0,0 l/m² 9,4 km/h (2 Bft) NW 313 ° 0 min 0 W/m² 7,0 °C 7,8 °C 19,3 km/h (3 Bft)
14.09.2024 06:31 21,0 °C 9,9 °C 55 % 82 % 1023,4 hPa 0,0 l/m² 9,3 km/h (2 Bft) W-NW 292 ° 0 min 0 W/m² 7,0 °C 7,9 °C 19,3 km/h (3 Bft)
14.09.2024 06:32 21,0 °C 9,9 °C 55 % 82 % 1023,4 hPa 0,0 l/m² 6,3 km/h (2 Bft) N 5 ° 0 min 0 W/m² 7,0 °C 9,9 °C 16,1 km/h (3 Bft)
14.09.2024 06:34 21,0 °C 9,9 °C 55 % 82 % 1023,4 hPa 0,0 l/m² 10,8 km/h (2 Bft) NW 322 ° 0 min 0 W/m² 7,0 °C 7,0 °C 25,7 km/h (4 Bft)
14.09.2024 06:36 21,0 °C 9,9 °C 55 % 82 % 1023,4 hPa 0,0 l/m² 13,4 km/h (3 Bft) W-NW 290 ° 0 min 0 W/m² 7,0 °C 5,7 °C 27,4 km/h (5 Bft)
14.09.2024 06:38 21,0 °C 9,9 °C 55 % 82 % 1023,5 hPa 0,0 l/m² 13,1 km/h (3 Bft) N-NW 327 ° 0 min 0 W/m² 7,0 °C 5,9 °C 29,0 km/h (5 Bft)
14.09.2024 06:40 21,0 °C 9,9 °C 55 % 82 % 1023,5 hPa 0,0 l/m² 14,3 km/h (3 Bft) N-NW 329 ° 0 min 0 W/m² 7,0 °C 5,3 °C 29,0 km/h (5 Bft)
14.09.2024 06:41 21,0 °C 9,9 °C 55 % 82 % 1023,5 hPa 0,0 l/m² 10,3 km/h (2 Bft) NW 318 ° 0 min 0 W/m² 7,0 °C 7,3 °C 22,5 km/h (4 Bft)
14.09.2024 06:42 21,0 °C 9,9 °C 55 % 82 % 1023,5 hPa 0,0 l/m² 12,3 km/h (2 Bft) NW 304 ° 0 min 0 W/m² 7,0 °C 6,2 °C 19,3 km/h (3 Bft)
14.09.2024 06:44 21,0 °C 9,9 °C 55 % 82 % 1023,6 hPa 0,0 l/m² 9,7 km/h (2 Bft) NW 325 ° 0 min 0 W/m² 7,0 °C 7,7 °C 25,7 km/h (4 Bft)
14.09.2024 06:46 21,0 °C 9,9 °C 55 % 82 % 1023,6 hPa 0,0 l/m² 11,6 km/h (2 Bft) W-NW 299 ° 0 min 0 W/m² 7,0 °C 6,6 °C 24,1 km/h (4 Bft)
14.09.2024 06:47 21,0 °C 9,9 °C 55 % 82 % 1023,6 hPa 0,0 l/m² 7,9 km/h (2 Bft) NW 309 ° 0 min 0 W/m² 7,0 °C 8,8 °C 17,7 km/h (3 Bft)
14.09.2024 06:49 21,0 °C 9,9 °C 55 % 82 % 1023,6 hPa 0,0 l/m² 12,2 km/h (2 Bft) NW 326 ° 0 min 0 W/m² 7,0 °C 6,3 °C 22,5 km/h (4 Bft)
14.09.2024 06:51 21,0 °C 9,9 °C 55 % 82 % 1023,6 hPa 0,0 l/m² 11,4 km/h (2 Bft) N-NW 347 ° 0 min 0 W/m² 7,0 °C 6,7 °C 20,9 km/h (4 Bft)
14.09.2024 06:52 20,9 °C 9,9 °C 55 % 82 % 1023,7 hPa 0,0 l/m² 11,4 km/h (2 Bft) W-NW 288 ° 0 min 0 W/m² 7,0 °C 6,7 °C 22,5 km/h (4 Bft)
14.09.2024 06:54 21,0 °C 9,8 °C 55 % 82 % 1023,7 hPa 0,0 l/m² 10,5 km/h (2 Bft) W-NW 295 ° 0 min 0 W/m² 6,9 °C 7,1 °C 19,3 km/h (3 Bft)
14.09.2024 06:56 21,0 °C 9,9 °C 55 % 82 % 1023,7 hPa 0,0 l/m² 14,0 km/h (3 Bft) NW 309 ° 0 min 0 W/m² 7,0 °C 5,4 °C 30,6 km/h (5 Bft)
14.09.2024 06:58 21,0 °C 9,8 °C 55 % 82 % 1023,7 hPa 0,0 l/m² 13,0 km/h (3 Bft) W-NW 301 ° 0 min 0 W/m² 6,9 °C 5,8 °C 22,5 km/h (4 Bft)
14.09.2024 07:00 20,9 °C 9,8 °C 55 % 82 % 1023,8 hPa 0,0 l/m² 10,9 km/h (2 Bft) W-NW 299 ° 0 min 0 W/m² 6,9 °C 6,9 °C 22,5 km/h (4 Bft)
14.09.2024 07:01 21,0 °C 9,9 °C 55 % 82 % 1023,8 hPa 0,0 l/m² 15,3 km/h (3 Bft) NW 321 ° 0 min 0 W/m² 7,0 °C 4,9 °C 27,4 km/h (5 Bft)
14.09.2024 07:02 21,0 °C 9,9 °C 55 % 82 % 1023,8 hPa 0,0 l/m² 10,1 km/h (2 Bft) N-NO 12 ° 0 min 0 W/m² 7,0 °C 7,4 °C 20,9 km/h (4 Bft)
14.09.2024 07:03 21,0 °C 9,9 °C 55 % 82 % 1023,8 hPa 0,0 l/m² 14,6 km/h (3 Bft) N-NW 336 ° 0 min 5 W/m² 7,0 °C 5,2 °C 27,4 km/h (5 Bft)
14.09.2024 07:05 21,0 °C 9,9 °C 55 % 82 % 1023,9 hPa 0,0 l/m² 14,0 km/h (3 Bft) W-NW 303 ° 0 min 5 W/m² 7,0 °C 5,4 °C 25,7 km/h (4 Bft)
14.09.2024 07:07 21,0 °C 9,9 °C 55 % 82 % 1023,9 hPa 0,0 l/m² 8,0 km/h (2 Bft) W 266 ° 0 min 5 W/m² 7,0 °C 8,7 °C 17,7 km/h (3 Bft)
14.09.2024 07:09 20,9 °C 9,9 °C 55 % 82 % 1023,8 hPa 0,0 l/m² 13,1 km/h (3 Bft) NW 313 ° 0 min 7 W/m² 7,0 °C 5,9 °C 22,5 km/h (4 Bft)
14.09.2024 07:11 20,9 °C 9,9 °C 55 % 82 % 1023,9 hPa 0,0 l/m² 11,5 km/h (2 Bft) NW 304 ° 0 min 9 W/m² 7,0 °C 6,7 °C 25,7 km/h (4 Bft)
14.09.2024 07:12 20,9 °C 9,9 °C 55 % 82 % 1023,9 hPa 0,0 l/m² 9,4 km/h (2 Bft) W 279 ° 0 min 9 W/m² 7,0 °C 7,8 °C 19,3 km/h (3 Bft)
14.09.2024 07:14 20,9 °C 9,9 °C 55 % 82 % 1023,9 hPa 0,0 l/m² 10,5 km/h (2 Bft) W-NW 290 ° 0 min 11 W/m² 7,0 °C 7,2 °C 22,5 km/h (4 Bft)
14.09.2024 07:16 21,0 °C 9,9 °C 55 % 82 % 1023,9 hPa 0,0 l/m² 11,0 km/h (2 Bft) NW 318 ° 0 min 12 W/m² 7,0 °C 6,9 °C 22,5 km/h (4 Bft)
14.09.2024 07:18 21,0 °C 9,9 °C 55 % 82 % 1024,0 hPa 0,0 l/m² 10,5 km/h (2 Bft) W-NW 296 ° 0 min 12 W/m² 7,0 °C 7,2 °C 17,7 km/h (3 Bft)
14.09.2024 07:20 20,9 °C 9,9 °C 55 % 82 % 1024,0 hPa 0,0 l/m² 10,1 km/h (2 Bft) NW 313 ° 0 min 12 W/m² 7,0 °C 7,4 °C 17,7 km/h (3 Bft)
14.09.2024 07:21 20,9 °C 10,0 °C 55 % 82 % 1023,9 hPa 0,0 l/m² 7,9 km/h (2 Bft) W 275 ° 0 min 14 W/m² 7,1 °C 8,9 °C 16,1 km/h (3 Bft)
14.09.2024 07:23 20,9 °C 9,9 °C 55 % 82 % 1024,0 hPa 0,0 l/m² 10,3 km/h (2 Bft) NW 313 ° 0 min 16 W/m² 7,0 °C 7,3 °C 19,3 km/h (3 Bft)
14.09.2024 07:25 20,9 °C 9,9 °C 55 % 82 % 1024,0 hPa 0,0 l/m² 11,6 km/h (2 Bft) W-NW 288 ° 0 min 18 W/m² 7,0 °C 6,6 °C 20,9 km/h (4 Bft)
14.09.2024 07:27 20,9 °C 10,0 °C 55 % 82 % 1024,0 hPa 0,0 l/m² 12,9 km/h (3 Bft) W-NW 286 ° 0 min 19 W/m² 7,1 °C 6,1 °C 29,0 km/h (5 Bft)
14.09.2024 07:29 20,9 °C 10,0 °C 55 % 82 % 1024,0 hPa 0,0 l/m² 12,6 km/h (3 Bft) NW 309 ° 0 min 23 W/m² 7,1 °C 6,2 °C 25,7 km/h (4 Bft)
14.09.2024 07:31 20,9 °C 10,1 °C 55 % 82 % 1024,0 hPa 0,0 l/m² 11,1 km/h (2 Bft) W-NW 302 ° 0 min 23 W/m² 7,2 °C 7,1 °C 17,7 km/h (3 Bft)
14.09.2024 07:32 20,9 °C 10,0 °C 55 % 82 % 1024,0 hPa 0,0 l/m² 11,7 km/h (2 Bft) N-NW 328 ° 0 min 25 W/m² 7,1 °C 6,7 °C 20,9 km/h (4 Bft)
14.09.2024 07:33 20,9 °C 10,1 °C 55 % 82 % 1024,0 hPa 0,0 l/m² 8,4 km/h (2 Bft) N-NW 346 ° 0 min 26 W/m² 7,2 °C 8,7 °C 19,3 km/h (3 Bft)
14.09.2024 07:34 20,9 °C 10,1 °C 55 % 82 % 1024,1 hPa 0,0 l/m² 10,7 km/h (2 Bft) NW 308 ° 0 min 26 W/m² 7,2 °C 7,3 °C 17,7 km/h (3 Bft)
14.09.2024 07:36 20,9 °C 10,1 °C 55 % 82 % 1024,2 hPa 0,0 l/m² 10,7 km/h (2 Bft) W 279 ° 0 min 30 W/m² 7,2 °C 7,3 °C 20,9 km/h (4 Bft)
14.09.2024 07:38 20,9 °C 10,1 °C 55 % 82 % 1024,1 hPa 0,0 l/m² 9,3 km/h (2 Bft) W 277 ° 0 min 35 W/m² 7,2 °C 8,1 °C 17,7 km/h (3 Bft)
14.09.2024 07:40 20,9 °C 10,1 °C 55 % 82 % 1024,2 hPa 0,0 l/m² 12,6 km/h (3 Bft) N-NW 341 ° 0 min 39 W/m² 7,2 °C 6,3 °C 29,0 km/h (5 Bft)
14.09.2024 07:41 20,9 °C 10,1 °C 55 % 82 % 1024,1 hPa 0,0 l/m² 8,5 km/h (2 Bft) W-NW 297 ° 0 min 39 W/m² 7,2 °C 8,6 °C 19,3 km/h (3 Bft)
14.09.2024 07:42 20,9 °C 10,1 °C 55 % 82 % 1024,1 hPa 0,0 l/m² 6,0 km/h (2 Bft) W-NW 296 ° 0 min 40 W/m² 7,2 °C 10,1 °C 14,5 km/h (3 Bft)
14.09.2024 07:43 20,9 °C 10,1 °C 55 % 82 % 1024,2 hPa 0,0 l/m² 9,8 km/h (2 Bft) W-NW 294 ° 0 min 40 W/m² 7,2 °C 7,8 °C 24,1 km/h (4 Bft)
14.09.2024 07:44 20,9 °C 10,1 °C 55 % 82 % 1024,2 hPa 0,0 l/m² 11,4 km/h (2 Bft) NW 311 ° 0 min 39 W/m² 7,2 °C 6,9 °C 24,1 km/h (4 Bft)
14.09.2024 07:45 20,9 °C 10,1 °C 55 % 82 % 1024,2 hPa 0,0 l/m² 14,3 km/h (3 Bft) W-NW 292 ° 0 min 39 W/m² 7,2 °C 5,6 °C 22,5 km/h (4 Bft)
14.09.2024 07:46 20,9 °C 10,1 °C 55 % 81 % 1024,2 hPa 0,0 l/m² 17,8 km/h (3 Bft) N-NW 327 ° 0 min 39 W/m² 7,0 °C 4,2 °C 22,5 km/h (4 Bft)
14.09.2024 07:48 20,9 °C 10,1 °C 55 % 82 % 1024,2 hPa 0,0 l/m² 7,8 km/h (2 Bft) W-NW 301 ° 0 min 40 W/m² 7,2 °C 9,1 °C 19,3 km/h (3 Bft)
14.09.2024 07:50 20,9 °C 10,1 °C 55 % 82 % 1024,2 hPa 0,0 l/m² 13,7 km/h (3 Bft) W-SW 237 ° 0 min 40 W/m² 7,2 °C 5,8 °C 27,4 km/h (5 Bft)
14.09.2024 07:51 20,9 °C 10,1 °C 55 % 81 % 1024,2 hPa 0,0 l/m² 8,3 km/h (2 Bft) NW 313 ° 0 min 40 W/m² 7,0 °C 8,8 °C 19,3 km/h (3 Bft)
14.09.2024 07:53 20,9 °C 10,1 °C 55 % 81 % 1024,2 hPa 0,0 l/m² 12,7 km/h (3 Bft) NW 304 ° 0 min 39 W/m² 7,0 °C 6,3 °C 22,5 km/h (4 Bft)
14.09.2024 07:55 20,9 °C 10,2 °C 55 % 82 % 1024,2 hPa 0,0 l/m² 10,5 km/h (2 Bft) W 273 ° 0 min 39 W/m² 7,3 °C 7,5 °C 20,9 km/h (4 Bft)
14.09.2024 07:57 20,9 °C 10,2 °C 55 % 82 % 1024,2 hPa 0,0 l/m² 9,1 km/h (2 Bft) N 350 ° 0 min 39 W/m² 7,3 °C 8,4 °C 19,3 km/h (3 Bft)
14.09.2024 07:59 20,9 °C 10,2 °C 55 % 82 % 1024,2 hPa 0,0 l/m² 9,8 km/h (2 Bft) N-NW 343 ° 0 min 40 W/m² 7,3 °C 7,9 °C 17,7 km/h (3 Bft)
14.09.2024 08:01 20,9 °C 10,2 °C 55 % 82 % 1024,2 hPa 0,0 l/m² 9,0 km/h (2 Bft) NW 321 ° 0 min 44 W/m² 7,3 °C 8,4 °C 19,3 km/h (3 Bft)
14.09.2024 08:03 20,9 °C 10,2 °C 55 % 82 % 1024,3 hPa 0,0 l/m² 9,0 km/h (2 Bft) W 263 ° 0 min 47 W/m² 7,3 °C 8,4 °C 20,9 km/h (4 Bft)
14.09.2024 08:05 20,9 °C 10,2 °C 55 % 81 % 1024,3 hPa 0,0 l/m² 12,2 km/h (2 Bft) N-NW 333 ° 0 min 49 W/m² 7,1 °C 6,6 °C 22,5 km/h (4 Bft)
14.09.2024 08:07 20,9 °C 10,2 °C 55 % 81 % 1024,2 hPa 0,0 l/m² 8,1 km/h (2 Bft) NW 320 ° 0 min 49 W/m² 7,1 °C 9,0 °C 24,1 km/h (4 Bft)
14.09.2024 08:09 20,9 °C 10,2 °C 55 % 81 % 1024,2 hPa 0,0 l/m² 9,6 km/h (2 Bft) N-NW 340 ° 0 min 51 W/m² 7,1 °C 8,0 °C 19,3 km/h (3 Bft)
14.09.2024 08:11 20,9 °C 10,2 °C 56 % 81 % 1024,2 hPa 0,0 l/m² 11,9 km/h (2 Bft) W-NW 284 ° 0 min 51 W/m² 7,1 °C 6,8 °C 27,4 km/h (5 Bft)
14.09.2024 08:13 20,9 °C 10,2 °C 56 % 81 % 1024,1 hPa 0,0 l/m² 11,5 km/h (2 Bft) W-NW 302 ° 2 min 53 W/m² 7,1 °C 7,0 °C 24,1 km/h (4 Bft)
14.09.2024 08:15 20,9 °C 10,2 °C 56 % 81 % 1024,1 hPa 0,0 l/m² 6,7 km/h (2 Bft) W-NW 292 ° 2 min 54 W/m² 7,1 °C 10,0 °C 19,3 km/h (3 Bft)
14.09.2024 08:17 20,9 °C 10,2 °C 56 % 81 % 1024,1 hPa 0,0 l/m² 10,7 km/h (2 Bft) NW 319 ° 2 min 56 W/m² 7,1 °C 7,4 °C 22,5 km/h (4 Bft)
14.09.2024 08:19 20,9 °C 10,2 °C 56 % 81 % 1024,0 hPa 0,0 l/m² 12,0 km/h (2 Bft) NW 310 ° 2 min 60 W/m² 7,1 °C 6,7 °C 27,4 km/h (5 Bft)
14.09.2024 08:21 21,0 °C 10,2 °C 56 % 81 % 1024,2 hPa 0,0 l/m² 12,4 km/h (2 Bft) NW 321 ° 2 min 62 W/m² 7,1 °C 6,5 °C 29,0 km/h (5 Bft)
14.09.2024 08:23 21,0 °C 10,2 °C 56 % 81 % 1024,1 hPa 0,0 l/m² 13,3 km/h (3 Bft) W 279 ° 2 min 65 W/m² 7,1 °C 6,1 °C 24,1 km/h (4 Bft)
14.09.2024 08:25 21,0 °C 10,2 °C 57 % 81 % 1024,2 hPa 0,0 l/m² 12,2 km/h (2 Bft) W-NW 294 ° 2 min 70 W/m² 7,1 °C 6,6 °C 25,7 km/h (4 Bft)
14.09.2024 08:27 21,0 °C 10,3 °C 57 % 81 % 1024,2 hPa 0,0 l/m² 12,6 km/h (3 Bft) W-NW 302 ° 2 min 74 W/m² 7,2 °C 6,6 °C 22,5 km/h (4 Bft)
14.09.2024 08:29 21,0 °C 10,3 °C 57 % 80 % 1024,2 hPa 0,0 l/m² 16,1 km/h (3 Bft) W-NW 298 ° 2 min 79 W/m² 7,0 °C 5,1 °C 32,2 km/h (5 Bft)
14.09.2024 08:31 21,1 °C 10,3 °C 57 % 81 % 1024,3 hPa 0,0 l/m² 8,9 km/h (2 Bft) N-NW 331 ° 2 min 84 W/m² 7,2 °C 8,6 °C 27,4 km/h (5 Bft)
14.09.2024 08:33 21,1 °C 10,4 °C 57 % 81 % 1024,2 hPa 0,0 l/m² 17,2 km/h (3 Bft) NW 306 ° 2 min 90 W/m² 7,3 °C 4,8 °C 30,6 km/h (5 Bft)
14.09.2024 08:35 21,1 °C 10,4 °C 57 % 80 % 1024,2 hPa 0,0 l/m² 8,9 km/h (2 Bft) W-NW 302 ° 2 min 93 W/m² 7,1 °C 8,7 °C 20,9 km/h (4 Bft)
14.09.2024 08:37 21,1 °C 10,4 °C 57 % 80 % 1024,3 hPa 0,0 l/m² 10,1 km/h (2 Bft) W-NW 285 ° 2 min 98 W/m² 7,1 °C 8,0 °C 20,9 km/h (4 Bft)
14.09.2024 08:39 21,1 °C 10,4 °C 57 % 80 % 1024,2 hPa 0,0 l/m² 14,3 km/h (3 Bft) W-NW 298 ° 2 min 105 W/m² 7,1 °C 5,9 °C 29,0 km/h (5 Bft)
14.09.2024 08:41 21,1 °C 10,6 °C 57 % 80 % 1024,3 hPa 0,0 l/m² 8,4 km/h (2 Bft) W-NW 303 ° 2 min 111 W/m² 7,3 °C 9,2 °C 19,3 km/h (3 Bft)
14.09.2024 08:43 21,1 °C 10,6 °C 57 % 80 % 1024,3 hPa 0,0 l/m² 8,4 km/h (2 Bft) N-NW 327 ° 2 min 121 W/m² 7,3 °C 9,2 °C 19,3 km/h (3 Bft)
14.09.2024 08:45 21,1 °C 10,7 °C 57 % 80 % 1024,4 hPa 0,0 l/m² 12,3 km/h (2 Bft) NW 311 ° 2 min 128 W/m² 7,4 °C 7,2 °C 20,9 km/h (4 Bft)
14.09.2024 08:47 21,1 °C 10,7 °C 57 % 80 % 1024,4 hPa 0,0 l/m² 15,0 km/h (3 Bft) N 355 ° 2 min 135 W/m² 7,4 °C 6,0 °C 27,4 km/h (5 Bft)
14.09.2024 08:49 21,1 °C 10,7 °C 57 % 79 % 1024,4 hPa 0,0 l/m² 11,0 km/h (2 Bft) N-NW 329 ° 2 min 146 W/m² 7,2 °C 7,8 °C 20,9 km/h (4 Bft)
14.09.2024 08:51 21,1 °C 10,8 °C 57 % 80 % 1024,3 hPa 0,0 l/m² 12,3 km/h (2 Bft) N-NW 330 ° 2 min 153 W/m² 7,5 °C 7,3 °C 25,7 km/h (4 Bft)
14.09.2024 08:53 21,1 °C 10,9 °C 57 % 79 % 1024,4 hPa 0,0 l/m² 10,2 km/h (2 Bft) W-NW 302 ° 2 min 160 W/m² 7,4 °C 8,5 °C 22,5 km/h (4 Bft)
14.09.2024 08:55 21,1 °C 10,9 °C 57 % 79 % 1024,4 hPa 0,0 l/m² 12,9 km/h (3 Bft) W-NW 288 ° 2 min 172 W/m² 7,4 °C 7,1 °C 33,8 km/h (5 Bft)
14.09.2024 08:57 21,1 °C 11,0 °C 57 % 79 % 1024,5 hPa 0,0 l/m² 7,1 km/h (2 Bft) NW 325 ° 2 min 185 W/m² 7,5 °C 10,5 °C 17,7 km/h (3 Bft)
14.09.2024 08:59 21,1 °C 11,1 °C 57 % 79 % 1024,6 hPa 0,0 l/m² 16,5 km/h (3 Bft) W-NW 291 ° 2 min 200 W/m² 7,6 °C 5,9 °C 27,4 km/h (5 Bft)
14.09.2024 09:01 21,1 °C 11,1 °C 57 % 79 % 1024,4 hPa 0,0 l/m² 15,7 km/h (3 Bft) W-NW 292 ° 2 min 225 W/m² 7,6 °C 6,2 °C 24,1 km/h (4 Bft)
14.09.2024 09:03 21,1 °C 11,2 °C 57 % 79 % 1024,6 hPa 0,0 l/m² 11,7 km/h (2 Bft) NW 323 ° 2 min 250 W/m² 7,7 °C 8,0 °C 22,5 km/h (4 Bft)
14.09.2024 09:05 21,1 °C 11,3 °C 57 % 78 % 1024,6 hPa 0,0 l/m² 19,5 km/h (3 Bft) W 265 ° 2 min 292 W/m² 7,6 °C 5,1 °C 33,8 km/h (5 Bft)
14.09.2024 09:07 21,1 °C 11,3 °C 57 % 78 % 1024,6 hPa 0,0 l/m² 14,1 km/h (3 Bft) W-NW 296 ° 2 min 285 W/m² 7,6 °C 7,1 °C 27,4 km/h (5 Bft)
14.09.2024 09:09 21,1 °C 11,4 °C 57 % 78 % 1024,5 hPa 0,0 l/m² 13,5 km/h (3 Bft) W-NW 300 ° 2 min 281 W/m² 7,7 °C 7,4 °C 27,4 km/h (5 Bft)
14.09.2024 09:11 21,2 °C 11,6 °C 57 % 77 % 1024,6 hPa 0,0 l/m² 16,9 km/h (3 Bft) NW 322 ° 2 min 367 W/m² 7,7 °C 6,4 °C 30,6 km/h (5 Bft)
14.09.2024 09:13 21,2 °C 11,7 °C 57 % 77 % 1024,7 hPa 0,0 l/m² 13,6 km/h (3 Bft) NW 311 ° 2 min 427 W/m² 7,8 °C 7,8 °C 24,1 km/h (4 Bft)
14.09.2024 09:15 21,2 °C 12,1 °C 57 % 78 % 1024,5 hPa 0,0 l/m² 9,4 km/h (2 Bft) N-NW 328 ° 2 min 475 W/m² 8,4 °C 10,2 °C 22,5 km/h (4 Bft)
14.09.2024 09:17 21,2 °C 12,4 °C 57 % 77 % 1024,5 hPa 0,0 l/m² 11,6 km/h (2 Bft) W-NW 302 ° 2 min 499 W/m² 8,5 °C 9,5 °C 24,1 km/h (4 Bft)
14.09.2024 09:19 21,2 °C 12,6 °C 57 % 76 % 1024,6 hPa 0,0 l/m² 15,3 km/h (3 Bft) NW 313 ° 2 min 531 W/m² 8,5 °C 8,2 °C 30,6 km/h (5 Bft)
14.09.2024 09:21 21,2 °C 12,7 °C 57 % 75 % 1024,5 hPa 0,0 l/m² 15,1 km/h (3 Bft) W-NW 289 ° 2 min 538 W/m² 8,4 °C 8,4 °C 24,1 km/h (4 Bft)
14.09.2024 09:23 21,2 °C 12,7 °C 57 % 75 % 1024,4 hPa 0,0 l/m² 19,8 km/h (3 Bft) NW 316 ° 2 min 394 W/m² 8,4 °C 6,8 °C 27,4 km/h (5 Bft)
14.09.2024 09:25 21,2 °C 12,7 °C 57 % 74 % 1024,5 hPa 0,0 l/m² 12,9 km/h (3 Bft) N-NW 333 ° 2 min 538 W/m² 8,2 °C 9,2 °C 24,1 km/h (4 Bft)
14.09.2024 09:27 21,2 °C 12,9 °C 57 % 76 % 1024,5 hPa 0,0 l/m² 10,3 km/h (2 Bft) N-NW 327 ° 2 min 550 W/m² 8,8 °C 10,6 °C 17,7 km/h (3 Bft)
14.09.2024 09:29 21,2 °C 13,1 °C 56 % 74 % 1024,5 hPa 0,0 l/m² 15,7 km/h (3 Bft) NW 304 ° 2 min 527 W/m² 8,6 °C 8,6 °C 30,6 km/h (5 Bft)
14.09.2024 09:31 21,2 °C 13,2 °C 56 % 74 % 1024,6 hPa 0,0 l/m² 9,1 km/h (2 Bft) W 270 ° 2 min 548 W/m² 8,7 °C 11,6 °C 24,1 km/h (4 Bft)
14.09.2024 09:33 21,2 °C 13,1 °C 56 % 73 % 1024,5 hPa 0,0 l/m² 16,8 km/h (3 Bft) SW 226 ° 2 min 471 W/m² 8,4 °C 8,3 °C 32,2 km/h (5 Bft)
14.09.2024 09:35 21,2 °C 12,9 °C 56 % 73 % 1024,6 hPa 0,0 l/m² 18,6 km/h (3 Bft) W-NW 294 ° 2 min 420 W/m² 8,2 °C 7,4 °C 30,6 km/h (5 Bft)
14.09.2024 09:37 21,2 °C 12,8 °C 56 % 73 % 1024,5 hPa 0,0 l/m² 22,3 km/h (4 Bft) NW 317 ° 2 min 425 W/m² 8,1 °C 6,3 °C 38,6 km/h (6 Bft)
14.09.2024 09:39 21,3 °C 12,8 °C 56 % 74 % 1024,6 hPa 0,0 l/m² 19,3 km/h (3 Bft) W-NW 288 ° 2 min 589 W/m² 8,3 °C 7,1 °C 38,6 km/h (6 Bft)
14.09.2024 09:41 21,3 °C 12,9 °C 56 % 74 % 1024,6 hPa 0,0 l/m² 17,9 km/h (3 Bft) W-NW 298 ° 2 min 601 W/m² 8,4 °C 7,7 °C 25,7 km/h (4 Bft)
14.09.2024 09:43 21,3 °C 13,1 °C 56 % 74 % 1024,6 hPa 0,0 l/m² 20,0 km/h (4 Bft) W-NW 298 ° 2 min 573 W/m² 8,6 °C 7,3 °C 30,6 km/h (5 Bft)
14.09.2024 09:44 21,3 °C 13,1 °C 55 % 74 % 1024,6 hPa 0,0 l/m² 19,3 km/h (3 Bft) NW 316 ° 1 min 596 W/m² 8,6 °C 7,5 °C 25,7 km/h (4 Bft)
14.09.2024 09:45 21,3 °C 13,1 °C 55 % 74 % 1024,7 hPa 0,0 l/m² 15,6 km/h (3 Bft) W-NW 302 ° 1 min 603 W/m² 8,6 °C 8,7 °C 25,7 km/h (4 Bft)
14.09.2024 09:46 21,3 °C 13,3 °C 55 % 75 % 1024,7 hPa 0,0 l/m² 9,8 km/h (2 Bft) N 355 ° 1 min 612 W/m² 9,0 °C 11,3 °C 17,7 km/h (3 Bft)
14.09.2024 09:48 21,3 °C 13,6 °C 55 % 73 % 1024,7 hPa 0,0 l/m² 13,8 km/h (3 Bft) N-NW 338 ° 2 min 568 W/m² 8,9 °C 9,9 °C 25,7 km/h (4 Bft)
14.09.2024 09:50 21,4 °C 13,6 °C 55 % 73 % 1024,7 hPa 0,0 l/m² 15,5 km/h (3 Bft) NW 306 ° 2 min 570 W/m² 8,9 °C 9,3 °C 29,0 km/h (5 Bft)
14.09.2024 09:51 21,4 °C 13,5 °C 55 % 72 % 1024,6 hPa 0,0 l/m² 19,6 km/h (3 Bft) N-NW 344 ° 1 min 577 W/m² 8,6 °C 7,9 °C 32,2 km/h (5 Bft)
14.09.2024 09:53 21,4 °C 13,4 °C 55 % 73 % 1024,7 hPa 0,0 l/m² 16,6 km/h (3 Bft) W-NW 288 ° 2 min 589 W/m² 8,7 °C 8,7 °C 27,4 km/h (5 Bft)
14.09.2024 09:55 21,4 °C 13,3 °C 55 % 72 % 1024,7 hPa 0,0 l/m² 18,6 km/h (3 Bft) NW 304 ° 2 min 566 W/m² 8,4 °C 8,0 °C 30,6 km/h (5 Bft)
14.09.2024 09:57 21,4 °C 13,4 °C 55 % 73 % 1024,7 hPa 0,0 l/m² 17,1 km/h (3 Bft) NW 307 ° 2 min 512 W/m² 8,7 °C 8,5 °C 33,8 km/h (5 Bft)
14.09.2024 09:59 21,5 °C 13,4 °C 55 % 73 % 1024,8 hPa 0,0 l/m² 18,4 km/h (3 Bft) W-NW 287 ° 2 min 587 W/m² 8,7 °C 8,1 °C 32,2 km/h (5 Bft)
14.09.2024 10:01 21,5 °C 13,6 °C 55 % 73 % 1024,7 hPa 0,0 l/m² 13,4 km/h (3 Bft) W-NW 291 ° 2 min 591 W/m² 8,9 °C 10,1 °C 24,1 km/h (4 Bft)
14.09.2024 10:03 21,6 °C 13,7 °C 55 % 72 % 1024,7 hPa 0,0 l/m² 17,9 km/h (3 Bft) N-NW 344 ° 2 min 589 W/m² 8,7 °C 8,7 °C 29,0 km/h (5 Bft)
14.09.2024 10:05 21,6 °C 13,6 °C 55 % 72 % 1024,5 hPa 0,0 l/m² 17,3 km/h (3 Bft) NW 304 ° 2 min 638 W/m² 8,6 °C 8,7 °C 30,6 km/h (5 Bft)
14.09.2024 10:07 21,6 °C 13,8 °C 55 % 73 % 1024,4 hPa 0,0 l/m² 14,7 km/h (3 Bft) NW 324 ° 2 min 640 W/m² 9,0 °C 9,8 °C 30,6 km/h (5 Bft)
14.09.2024 10:09 21,6 °C 13,9 °C 55 % 71 % 1024,4 hPa 0,0 l/m² 18,9 km/h (3 Bft) N-NW 343 ° 2 min 645 W/m² 8,7 °C 8,6 °C 29,0 km/h (5 Bft)
14.09.2024 10:11 21,7 °C 14,1 °C 55 % 71 % 1024,4 hPa 0,0 l/m² 18,7 km/h (3 Bft) NW 321 ° 2 min 494 W/m² 8,9 °C 8,9 °C 33,8 km/h (5 Bft)
14.09.2024 10:13 21,7 °C 14,2 °C 55 % 70 % 1024,3 hPa 0,0 l/m² 26,4 km/h (4 Bft) N 355 ° 2 min 498 W/m² 8,8 °C 7,2 °C 40,2 km/h (6 Bft)
14.09.2024 10:15 21,7 °C 14,2 °C 54 % 70 % 1024,3 hPa 0,0 l/m² 22,2 km/h (4 Bft) W-NW 298 ° 2 min 621 W/m² 8,8 °C 8,2 °C 33,8 km/h (5 Bft)
14.09.2024 10:17 21,7 °C 14,3 °C 54 % 71 % 1024,4 hPa 0,0 l/m² 16,4 km/h (3 Bft) W-NW 288 ° 2 min 506 W/m² 9,1 °C 9,9 °C 27,4 km/h (5 Bft)
14.09.2024 10:19 21,7 °C 14,3 °C 54 % 70 % 1024,3 hPa 0,0 l/m² 24,5 km/h (4 Bft) N-NW 329 ° 2 min 509 W/m² 8,9 °C 7,8 °C 37,0 km/h (5 Bft)
14.09.2024 10:21 21,8 °C 14,4 °C 54 % 70 % 1024,4 hPa 0,0 l/m² 19,0 km/h (3 Bft) N-NW 346 ° 2 min 513 W/m² 9,0 °C 9,2 °C 30,6 km/h (5 Bft)
14.09.2024 10:23 21,8 °C 14,5 °C 54 % 69 % 1024,3 hPa 0,0 l/m² 23,5 km/h (4 Bft) W-NW 286 ° 2 min 517 W/m² 8,9 °C 8,3 °C 41,8 km/h (6 Bft)
14.09.2024 10:25 21,8 °C 14,6 °C 54 % 70 % 1024,4 hPa 0,0 l/m² 18,7 km/h (3 Bft) W-NW 300 ° 2 min 520 W/m² 9,2 °C 9,6 °C 32,2 km/h (5 Bft)
14.09.2024 10:27 21,8 °C 14,8 °C 54 % 70 % 1024,4 hPa 0,0 l/m² 13,8 km/h (3 Bft) NW 319 ° 2 min 524 W/m² 9,4 °C 11,4 °C 20,9 km/h (4 Bft)
14.09.2024 10:29 21,9 °C 14,8 °C 54 % 70 % 1024,4 hPa 0,0 l/m² 17,2 km/h (3 Bft) W-NW 286 ° 2 min 527 W/m² 9,4 °C 10,3 °C 27,4 km/h (5 Bft)
14.09.2024 10:31 21,9 °C 14,7 °C 54 % 71 % 1024,4 hPa 0,0 l/m² 15,6 km/h (3 Bft) N 360 ° 2 min 531 W/m² 9,5 °C 10,6 °C 27,4 km/h (5 Bft)
14.09.2024 10:33 21,9 °C 14,9 °C 54 % 70 % 1024,4 hPa 0,0 l/m² 12,2 km/h (2 Bft) N-NW 333 ° 2 min 731 W/m² 9,5 °C 12,1 °C 20,9 km/h (4 Bft)
14.09.2024 10:35 21,9 °C 14,9 °C 54 % 70 % 1024,5 hPa 0,0 l/m² 16,4 km/h (3 Bft) NW 317 ° 2 min 708 W/m² 9,5 °C 10,6 °C 25,7 km/h (4 Bft)
14.09.2024 10:37 22,0 °C 14,7 °C 54 % 69 % 1024,5 hPa 0,0 l/m² 12,9 km/h (3 Bft) N-NW 333 ° 2 min 490 W/m² 9,1 °C 11,6 °C 22,5 km/h (4 Bft)
14.09.2024 10:39 22,0 °C 14,4 °C 54 % 69 % 1024,6 hPa 0,0 l/m² 18,2 km/h (3 Bft) NW 317 ° 2 min 631 W/m² 8,8 °C 9,5 °C 29,0 km/h (5 Bft)
14.09.2024 10:41 22,0 °C 14,4 °C 54 % 71 % 1024,6 hPa 0,0 l/m² 12,4 km/h (2 Bft) NW 304 ° 2 min 485 W/m² 9,2 °C 11,4 °C 30,6 km/h (5 Bft)
14.09.2024 10:43 22,1 °C 14,4 °C 54 % 70 % 1024,5 hPa 0,0 l/m² 13,1 km/h (3 Bft) NW 323 ° 2 min 564 W/m² 9,0 °C 11,1 °C 20,9 km/h (4 Bft)
14.09.2024 10:45 22,1 °C 14,4 °C 54 % 70 % 1024,6 hPa 0,0 l/m² 11,5 km/h (2 Bft) W 270 ° 2 min 659 W/m² 9,0 °C 11,8 °C 25,7 km/h (4 Bft)
14.09.2024 10:47 22,1 °C 14,5 °C 54 % 70 % 1024,6 hPa 0,0 l/m² 15,0 km/h (3 Bft) NW 316 ° 2 min 671 W/m² 9,1 °C 10,6 °C 29,0 km/h (5 Bft)
14.09.2024 10:49 22,1 °C 14,4 °C 54 % 70 % 1024,6 hPa 0,0 l/m² 17,3 km/h (3 Bft) NW 309 ° 2 min 679 W/m² 9,0 °C 9,7 °C 29,0 km/h (5 Bft)
14.09.2024 10:51 22,1 °C 14,5 °C 54 % 70 % 1024,6 hPa 0,0 l/m² 12,7 km/h (3 Bft) NW 313 ° 2 min 703 W/m² 9,1 °C 11,4 °C 29,0 km/h (5 Bft)
14.09.2024 10:53 22,1 °C 14,5 °C 54 % 69 % 1024,6 hPa 0,0 l/m² 11,0 km/h (2 Bft) W-NW 298 ° 2 min 703 W/m² 8,9 °C 12,1 °C 20,9 km/h (4 Bft)
14.09.2024 10:55 22,2 °C 14,6 °C 54 % 69 % 1024,6 hPa 0,0 l/m² 9,3 km/h (2 Bft) N-NW 329 ° 2 min 693 W/m² 9,0 °C 13,0 °C 20,9 km/h (4 Bft)
14.09.2024 10:57 22,2 °C 14,7 °C 54 % 70 % 1024,6 hPa 0,0 l/m² 16,6 km/h (3 Bft) N-NO 29 ° 2 min 693 W/m² 9,3 °C 10,3 °C 35,4 km/h (5 Bft)
14.09.2024 10:59 22,2 °C 14,8 °C 54 % 69 % 1024,5 hPa 0,0 l/m² 12,8 km/h (3 Bft) N-NW 339 ° 2 min 680 W/m² 9,2 °C 11,7 °C 25,7 km/h (4 Bft)
14.09.2024 11:01 22,2 °C 15,1 °C 54 % 70 % 1024,7 hPa 0,0 l/m² 12,1 km/h (2 Bft) N-NW 346 ° 2 min 668 W/m² 9,7 °C 12,3 °C 27,4 km/h (5 Bft)
14.09.2024 11:03 22,3 °C 15,1 °C 54 % 68 % 1024,6 hPa 0,0 l/m² 13,2 km/h (3 Bft) NW 304 ° 2 min 650 W/m² 9,2 °C 11,9 °C 22,5 km/h (4 Bft)
14.09.2024 11:05 22,3 °C 15,1 °C 53 % 69 % 1024,7 hPa 0,0 l/m² 13,4 km/h (3 Bft) W-NW 292 ° 2 min 645 W/m² 9,5 °C 11,9 °C 19,3 km/h (3 Bft)
14.09.2024 11:07 22,3 °C 15,1 °C 53 % 70 % 1024,7 hPa 0,0 l/m² 9,4 km/h (2 Bft) NW 323 ° 2 min 647 W/m² 9,7 °C 13,5 °C 20,9 km/h (4 Bft)
14.09.2024 11:09 22,3 °C 15,2 °C 53 % 69 % 1024,6 hPa 0,0 l/m² 7,8 km/h (2 Bft) W-NW 288 ° 2 min 643 W/m² 9,6 °C 14,4 °C 17,7 km/h (3 Bft)
14.09.2024 11:11 22,3 °C 15,6 °C 53 % 69 % 1024,6 hPa 0,0 l/m² 10,3 km/h (2 Bft) N-NW 337 ° 2 min 677 W/m² 9,9 °C 13,7 °C 24,1 km/h (4 Bft)
14.09.2024 11:13 22,3 °C 15,6 °C 53 % 67 % 1024,6 hPa 0,0 l/m² 17,2 km/h (3 Bft) NW 317 ° 2 min 687 W/m² 9,5 °C 11,3 °C 27,4 km/h (5 Bft)
14.09.2024 11:15 22,3 °C 15,4 °C 53 % 67 % 1024,6 hPa 0,0 l/m² 17,2 km/h (3 Bft) W 268 ° 2 min 717 W/m² 9,3 °C 11,0 °C 27,4 km/h (5 Bft)
14.09.2024 11:17 22,4 °C 15,1 °C 53 % 66 % 1024,6 hPa 0,0 l/m² 18,9 km/h (3 Bft) NW 321 ° 2 min 717 W/m² 8,8 °C 10,2 °C 33,8 km/h (5 Bft)
14.09.2024 11:19 22,3 °C 15,1 °C 53 % 67 % 1024,5 hPa 0,0 l/m² 19,4 km/h (3 Bft) W-NW 288 ° 2 min 754 W/m² 9,0 °C 10,0 °C 30,6 km/h (5 Bft)
14.09.2024 11:21 22,3 °C 15,2 °C 52 % 66 % 1024,6 hPa 0,0 l/m² 20,5 km/h (4 Bft) W-NW 296 ° 2 min 775 W/m² 8,9 °C 9,9 °C 33,8 km/h (5 Bft)
14.09.2024 11:23 22,3 °C 15,1 °C 52 % 67 % 1024,7 hPa 0,0 l/m² 16,9 km/h (3 Bft) NW 304 ° 2 min 775 W/m² 9,0 °C 10,7 °C 25,7 km/h (4 Bft)
14.09.2024 11:25 22,3 °C 15,1 °C 52 % 66 % 1024,6 hPa 0,0 l/m² 22,4 km/h (4 Bft) N-NW 348 ° 2 min 775 W/m² 8,8 °C 9,3 °C 38,6 km/h (6 Bft)
14.09.2024 11:27 22,3 °C 14,8 °C 52 % 66 % 1024,6 hPa 0,0 l/m² 20,3 km/h (4 Bft) NW 318 ° 2 min 318 W/m² 8,5 °C 9,4 °C 29,0 km/h (5 Bft)
14.09.2024 11:29 22,3 °C 14,6 °C 51 % 68 % 1024,6 hPa 0,0 l/m² 17,7 km/h (3 Bft) NW 310 ° 2 min 318 W/m² 8,8 °C 9,9 °C 30,6 km/h (5 Bft)
14.09.2024 11:31 22,2 °C 14,6 °C 51 % 68 % 1024,5 hPa 0,0 l/m² 20,5 km/h (4 Bft) N-NW 336 ° 2 min 318 W/m² 8,8 °C 9,1 °C 32,2 km/h (5 Bft)
14.09.2024 11:33 22,3 °C 14,8 °C 51 % 68 % 1024,5 hPa 0,0 l/m² 16,8 km/h (3 Bft) N-NW 336 ° 2 min 269 W/m² 9,0 °C 10,4 °C 29,0 km/h (5 Bft)
14.09.2024 11:35 22,2 °C 15,2 °C 51 % 68 % 1024,5 hPa 0,0 l/m² 18,2 km/h (3 Bft) W-NW 287 ° 2 min 847 W/m² 9,3 °C 10,5 °C 33,8 km/h (5 Bft)
14.09.2024 11:37 22,3 °C 15,3 °C 51 % 66 % 1024,4 hPa 0,0 l/m² 20,4 km/h (4 Bft) NW 312 ° 2 min 847 W/m² 9,0 °C 10,0 °C 32,2 km/h (5 Bft)
14.09.2024 11:39 22,2 °C 15,3 °C 51 % 67 % 1024,4 hPa 0,0 l/m² 17,8 km/h (3 Bft) N-NW 348 ° 2 min 751 W/m² 9,2 °C 10,7 °C 30,6 km/h (5 Bft)
14.09.2024 11:41 22,2 °C 15,5 °C 51 % 65 % 1024,4 hPa 0,0 l/m² 20,7 km/h (4 Bft) N 10 ° 2 min 687 W/m² 8,9 °C 10,2 °C 33,8 km/h (5 Bft)
14.09.2024 11:43 22,2 °C 15,5 °C 51 % 65 % 1024,4 hPa 0,0 l/m² 19,3 km/h (3 Bft) N-NW 347 ° 2 min 696 W/m² 8,9 °C 10,6 °C 29,0 km/h (5 Bft)
14.09.2024 11:45 22,3 °C 15,6 °C 51 % 65 % 1024,4 hPa 0,0 l/m² 21,4 km/h (4 Bft) NW 311 ° 2 min 728 W/m² 9,0 °C 10,2 °C 30,6 km/h (5 Bft)
14.09.2024 11:47 22,3 °C 15,5 °C 51 % 65 % 1024,5 hPa 0,0 l/m² 23,5 km/h (4 Bft) N 360 ° 2 min 793 W/m² 8,9 °C 9,6 °C 32,2 km/h (5 Bft)
14.09.2024 11:49 22,3 °C 15,5 °C 51 % 66 % 1024,4 hPa 0,0 l/m² 19,5 km/h (3 Bft) W 279 ° 2 min 814 W/m² 9,2 °C 10,5 °C 35,4 km/h (5 Bft)
14.09.2024 11:51 22,3 °C 15,8 °C 51 % 66 % 1024,4 hPa 0,0 l/m² 15,8 km/h (3 Bft) W-NW 294 ° 2 min 816 W/m² 9,5 °C 11,9 °C 29,0 km/h (5 Bft)
14.09.2024 11:53 22,3 °C 15,9 °C 51 % 64 % 1024,4 hPa 0,0 l/m² 15,5 km/h (3 Bft) W 275 ° 2 min 812 W/m² 9,1 °C 12,1 °C 27,4 km/h (5 Bft)
14.09.2024 11:55 22,3 °C 16,0 °C 51 % 64 % 1024,5 hPa 0,0 l/m² 12,6 km/h (3 Bft) W 278 ° 2 min 812 W/m² 9,2 °C 13,2 °C 19,3 km/h (3 Bft)
14.09.2024 11:57 22,3 °C 15,9 °C 51 % 63 % 1024,5 hPa 0,0 l/m² 23,0 km/h (4 Bft) N 360 ° 2 min 800 W/m² 8,9 °C 10,2 °C 37,0 km/h (5 Bft)
14.09.2024 11:59 22,3 °C 15,7 °C 51 % 64 % 1024,5 hPa 0,0 l/m² 20,2 km/h (4 Bft) N-NW 347 ° 2 min 800 W/m² 8,9 °C 10,6 °C 30,6 km/h (5 Bft)
14.09.2024 12:01 22,3 °C 15,6 °C 51 % 65 % 1024,4 hPa 0,0 l/m² 21,4 km/h (4 Bft) N-NW 330 ° 2 min 800 W/m² 9,0 °C 10,2 °C 37,0 km/h (5 Bft)
14.09.2024 12:03 22,3 °C 15,7 °C 51 % 64 % 1024,5 hPa 0,0 l/m² 18,3 km/h (3 Bft) N-NW 333 ° 2 min 867 W/m² 8,9 °C 11,1 °C 32,2 km/h (5 Bft)
14.09.2024 12:05 22,3 °C 15,8 °C 51 % 64 % 1024,4 hPa 0,0 l/m² 15,5 km/h (3 Bft) N-NW 335 ° 2 min 353 W/m² 9,0 °C 12,0 °C 22,5 km/h (4 Bft)
14.09.2024 12:07 22,3 °C 15,6 °C 51 % 63 % 1024,6 hPa 0,0 l/m² 20,2 km/h (4 Bft) N-NW 332 ° 2 min 272 W/m² 8,6 °C 10,5 °C 32,2 km/h (5 Bft)
14.09.2024 12:09 22,3 °C 15,3 °C 51 % 64 % 1024,4 hPa 0,0 l/m² 16,4 km/h (3 Bft) NW 306 ° 2 min 712 W/m² 8,5 °C 11,1 °C 25,7 km/h (4 Bft)
14.09.2024 12:11 22,3 °C 15,4 °C 51 % 65 % 1024,5 hPa 0,0 l/m² 17,0 km/h (3 Bft) N 355 ° 2 min 749 W/m² 8,9 °C 11,1 °C 30,6 km/h (5 Bft)
14.09.2024 12:13 22,3 °C 15,6 °C 51 % 66 % 1024,4 hPa 0,0 l/m² 15,1 km/h (3 Bft) N 350 ° 2 min 749 W/m² 9,3 °C 11,9 °C 25,7 km/h (4 Bft)
14.09.2024 12:15 22,3 °C 15,9 °C 51 % 65 % 1024,3 hPa 0,0 l/m² 15,9 km/h (3 Bft) W 262 ° 2 min 858 W/m² 9,3 °C 12,0 °C 29,0 km/h (5 Bft)
14.09.2024 12:17 22,3 °C 16,4 °C 51 % 63 % 1024,4 hPa 0,0 l/m² 14,0 km/h (3 Bft) W 265 ° 2 min 858 W/m² 9,3 °C 13,2 °C 33,8 km/h (5 Bft)
14.09.2024 12:19 22,3 °C 16,1 °C 51 % 62 % 1024,5 hPa 0,0 l/m² 15,5 km/h (3 Bft) NW 309 ° 2 min 336 W/m² 8,8 °C 12,4 °C 24,1 km/h (4 Bft)
14.09.2024 12:21 22,3 °C 16,1 °C 51 % 64 % 1024,6 hPa 0,0 l/m² 17,4 km/h (3 Bft) N-NW 340 ° 2 min 828 W/m² 9,3 °C 11,8 °C 35,4 km/h (5 Bft)
14.09.2024 12:23 22,3 °C 16,1 °C 51 % 63 % 1024,5 hPa 0,0 l/m² 18,8 km/h (3 Bft) NW 319 ° 2 min 573 W/m² 9,1 °C 11,5 °C 29,0 km/h (5 Bft)
14.09.2024 12:25 22,3 °C 16,1 °C 50 % 62 % 1024,4 hPa 0,0 l/m² 18,2 km/h (3 Bft) W-NW 299 ° 2 min 573 W/m² 8,8 °C 11,6 °C 33,8 km/h (5 Bft)
14.09.2024 12:27 22,3 °C 16,0 °C 50 % 61 % 1024,5 hPa 0,0 l/m² 19,4 km/h (3 Bft) W 279 ° 2 min 241 W/m² 8,5 °C 11,2 °C 35,4 km/h (5 Bft)
14.09.2024 12:29 22,3 °C 15,9 °C 50 % 63 % 1024,5 hPa 0,0 l/m² 18,6 km/h (3 Bft) N-NW 333 ° 2 min 777 W/m² 8,9 °C 11,3 °C 35,4 km/h (5 Bft)
14.09.2024 12:31 22,3 °C 16,1 °C 50 % 61 % 1024,5 hPa 0,0 l/m² 20,0 km/h (4 Bft) NW 317 ° 2 min 745 W/m² 8,6 °C 11,2 °C 35,4 km/h (5 Bft)
14.09.2024 12:33 22,3 °C 16,0 °C 50 % 61 % 1024,5 hPa 0,0 l/m² 20,7 km/h (4 Bft) N-NW 341 ° 2 min 745 W/m² 8,5 °C 10,9 °C 33,8 km/h (5 Bft)
14.09.2024 12:34 22,3 °C 16,1 °C 50 % 61 % 1024,6 hPa 0,0 l/m² 15,2 km/h (3 Bft) N 355 ° 1 min 745 W/m² 8,6 °C 12,5 °C 19,3 km/h (3 Bft)
14.09.2024 12:35 22,3 °C 16,1 °C 50 % 60 % 1024,6 hPa 0,0 l/m² 21,5 km/h (4 Bft) NW 309 ° 1 min 728 W/m² 8,3 °C 10,8 °C 33,8 km/h (5 Bft)
14.09.2024 12:37 22,3 °C 16,1 °C 50 % 60 % 1024,5 hPa 0,0 l/m² 21,8 km/h (4 Bft) N-NW 340 ° 2 min 809 W/m² 8,3 °C 10,8 °C 37,0 km/h (5 Bft)
14.09.2024 12:39 22,3 °C 16,1 °C 50 % 59 % 1024,5 hPa 0,0 l/m² 25,1 km/h (4 Bft) NW 325 ° 2 min 809 W/m² 8,1 °C 10,1 °C 38,6 km/h (6 Bft)
14.09.2024 12:41 22,3 °C 16,3 °C 50 % 60 % 1024,6 hPa 0,0 l/m² 18,9 km/h (3 Bft) N-NW 341 ° 2 min 777 W/m² 8,5 °C 11,7 °C 29,0 km/h (5 Bft)
14.09.2024 12:43 22,3 °C 16,4 °C 50 % 59 % 1024,5 hPa 0,0 l/m² 20,9 km/h (4 Bft) N-NW 327 ° 2 min 795 W/m² 8,4 °C 11,3 °C 32,2 km/h (5 Bft)
14.09.2024 12:45 22,3 °C 16,4 °C 50 % 59 % 1024,4 hPa 0,0 l/m² 20,2 km/h (4 Bft) N-NW 348 ° 2 min 243 W/m² 8,4 °C 11,5 °C 32,2 km/h (5 Bft)
14.09.2024 12:47 22,3 °C 16,2 °C 51 % 58 % 1024,6 hPa 0,0 l/m² 19,4 km/h (3 Bft) W 274 ° 2 min 192 W/m² 7,9 °C 11,4 °C 38,6 km/h (6 Bft)
14.09.2024 12:48 22,3 °C 16,1 °C 51 % 58 % 1024,6 hPa 0,0 l/m² 19,1 km/h (3 Bft) N-NW 329 ° 1 min 190 W/m² 7,8 °C 11,4 °C 27,4 km/h (5 Bft)
14.09.2024 12:50 22,3 °C 15,8 °C 51 % 58 % 1024,6 hPa 0,0 l/m² 16,9 km/h (3 Bft) NW 321 ° 2 min 192 W/m² 7,6 °C 11,6 °C 29,0 km/h (5 Bft)
14.09.2024 12:52 22,3 °C 15,9 °C 51 % 60 % 1024,5 hPa 0,0 l/m² 16,3 km/h (3 Bft) NW 322 ° 2 min 759 W/m² 8,1 °C 11,9 °C 25,7 km/h (4 Bft)
14.09.2024 12:54 22,2 °C 15,9 °C 51 % 59 % 1024,6 hPa 0,0 l/m² 22,8 km/h (4 Bft) N-NW 333 ° 2 min 272 W/m² 7,9 °C 10,3 °C 38,6 km/h (6 Bft)
14.09.2024 12:56 22,2 °C 15,8 °C 51 % 58 % 1024,5 hPa 0,0 l/m² 20,1 km/h (4 Bft) N-NW 333 ° 2 min 220 W/m² 7,6 °C 10,8 °C 32,2 km/h (5 Bft)
14.09.2024 12:58 22,2 °C 15,7 °C 51 % 58 % 1024,6 hPa 0,0 l/m² 20,2 km/h (4 Bft) NW 316 ° 2 min 250 W/m² 7,5 °C 10,6 °C 27,4 km/h (5 Bft)
14.09.2024 13:00 22,2 °C 15,7 °C 51 % 59 % 1024,6 hPa 0,0 l/m² 21,3 km/h (4 Bft) N-NW 334 ° 2 min 250 W/m² 7,7 °C 10,3 °C 37,0 km/h (5 Bft)
14.09.2024 13:01 22,2 °C 15,8 °C 51 % 60 % 1024,6 hPa 0,0 l/m² 21,6 km/h (4 Bft) NW 319 ° 1 min 237 W/m² 8,1 °C 10,4 °C 41,8 km/h (6 Bft)
14.09.2024 13:02 22,2 °C 15,8 °C 51 % 58 % 1024,6 hPa 0,0 l/m² 25,4 km/h (4 Bft) N-NW 339 ° 1 min 220 W/m² 7,6 °C 9,6 °C 35,4 km/h (5 Bft)
14.09.2024 13:03 22,1 °C 15,8 °C 51 % 58 % 1024,7 hPa 0,0 l/m² 26,4 km/h (4 Bft) N-NW 340 ° 1 min 221 W/m² 7,6 °C 9,4 °C 35,4 km/h (5 Bft)
14.09.2024 13:04 22,1 °C 15,7 °C 51 % 58 % 1024,7 hPa 0,0 l/m² 23,1 km/h (4 Bft) N-NW 332 ° 1 min 220 W/m² 7,5 °C 9,9 °C 35,4 km/h (5 Bft)
14.09.2024 13:05 22,1 °C 15,6 °C 51 % 58 % 1024,6 hPa 0,0 l/m² 24,5 km/h (4 Bft) NW 318 ° 1 min 267 W/m² 7,4 °C 9,5 °C 33,8 km/h (5 Bft)
14.09.2024 13:06 22,1 °C 15,4 °C 51 % 59 % 1024,6 hPa 0,0 l/m² 22,5 km/h (4 Bft) N-NW 329 ° 1 min 202 W/m² 7,4 °C 9,7 °C 32,2 km/h (5 Bft)
14.09.2024 13:07 22,1 °C 15,4 °C 51 % 59 % 1024,6 hPa 0,0 l/m² 24,3 km/h (4 Bft) W-NW 303 ° 1 min 202 W/m² 7,4 °C 9,3 °C 30,6 km/h (5 Bft)
14.09.2024 13:08 22,1 °C 15,5 °C 51 % 59 % 1024,6 hPa 0,0 l/m² 23,2 km/h (4 Bft) N-NW 346 ° 1 min 819 W/m² 7,5 °C 9,7 °C 29,0 km/h (5 Bft)
14.09.2024 13:09 22,1 °C 15,6 °C 51 % 60 % 1024,6 hPa 0,0 l/m² 21,3 km/h (4 Bft) NW 315 ° 1 min 819 W/m² 7,9 °C 10,2 °C 30,6 km/h (5 Bft)
14.09.2024 13:10 22,1 °C 15,7 °C 51 % 59 % 1024,6 hPa 0,0 l/m² 23,8 km/h (4 Bft) N-NW 332 ° 1 min 181 W/m² 7,7 °C 9,8 °C 32,2 km/h (5 Bft)
14.09.2024 13:11 22,1 °C 15,6 °C 51 % 59 % 1024,7 hPa 0,0 l/m² 20,9 km/h (4 Bft) NW 321 ° 1 min 160 W/m² 7,6 °C 10,3 °C 27,4 km/h (5 Bft)
14.09.2024 13:12 22,1 °C 15,6 °C 51 % 59 % 1024,7 hPa 0,0 l/m² 18,6 km/h (3 Bft) N-NW 337 ° 1 min 204 W/m² 7,6 °C 10,9 °C 27,4 km/h (5 Bft)
14.09.2024 13:13 22,1 °C 15,6 °C 51 % 59 % 1024,7 hPa 0,0 l/m² 18,6 km/h (3 Bft) NW 315 ° 1 min 204 W/m² 7,6 °C 10,9 °C 29,0 km/h (5 Bft)
14.09.2024 13:14 22,1 °C 15,5 °C 51 % 59 % 1024,7 hPa 0,0 l/m² 20,2 km/h (4 Bft) NW 321 ° 1 min 292 W/m² 7,5 °C 10,3 °C 29,0 km/h (5 Bft)
14.09.2024 13:15 22,1 °C 15,5 °C 51 % 59 % 1024,7 hPa 0,0 l/m² 13,9 km/h (3 Bft) N-NW 342 ° 1 min 292 W/m² 7,5 °C 12,2 °C 27,4 km/h (5 Bft)
14.09.2024 13:16 22,1 °C 15,6 °C 51 % 59 % 1024,6 hPa 0,0 l/m² 18,8 km/h (3 Bft) N 355 ° 1 min 292 W/m² 7,6 °C 10,8 °C 30,6 km/h (5 Bft)
14.09.2024 13:17 22,0 °C 15,6 °C 51 % 59 % 1024,7 hPa 0,0 l/m² 18,4 km/h (3 Bft) N 355 ° 1 min 292 W/m² 7,6 °C 10,9 °C 32,2 km/h (5 Bft)
14.09.2024 13:18 22,0 °C 15,6 °C 51 % 59 % 1024,7 hPa 0,0 l/m² 26,0 km/h (4 Bft) N-NW 330 ° 1 min 190 W/m² 7,6 °C 9,2 °C 37,0 km/h (5 Bft)
14.09.2024 13:19 22,0 °C 15,5 °C 51 % 59 % 1024,7 hPa 0,0 l/m² 23,7 km/h (4 Bft) N-NW 337 ° 1 min 190 W/m² 7,5 °C 9,6 °C 30,6 km/h (5 Bft)
14.09.2024 13:20 22,0 °C 15,5 °C 51 % 59 % 1024,8 hPa 0,0 l/m² 23,1 km/h (4 Bft) N-NW 347 ° 1 min 190 W/m² 7,5 °C 9,7 °C 32,2 km/h (5 Bft)
14.09.2024 13:21 22,0 °C 15,6 °C 51 % 59 % 1024,7 hPa 0,0 l/m² 24,1 km/h (4 Bft) N 360 ° 1 min 190 W/m² 7,6 °C 9,6 °C 32,2 km/h (5 Bft)
14.09.2024 13:22 22,0 °C 15,7 °C 51 % 59 % 1024,5 hPa 0,0 l/m² 23,3 km/h (4 Bft) NW 322 ° 1 min 809 W/m² 7,7 °C 9,9 °C 37,0 km/h (5 Bft)
14.09.2024 13:23 21,9 °C 15,8 °C 51 % 58 % 1024,6 hPa 0,0 l/m² 20,5 km/h (4 Bft) N 355 ° 1 min 809 W/m² 7,6 °C 10,7 °C 30,6 km/h (5 Bft)
14.09.2024 13:24 21,9 °C 15,9 °C 51 % 58 % 1024,6 hPa 0,0 l/m² 19,4 km/h (3 Bft) N-NW 344 ° 1 min 868 W/m² 7,6 °C 11,1 °C 27,4 km/h (5 Bft)
14.09.2024 13:25 21,9 °C 16,1 °C 51 % 59 % 1024,6 hPa 0,0 l/m² 20,5 km/h (4 Bft) N-NW 330 ° 1 min 868 W/m² 8,1 °C 11,0 °C 25,7 km/h (4 Bft)
14.09.2024 13:26 21,9 °C 16,2 °C 51 % 59 % 1024,7 hPa 0,0 l/m² 18,7 km/h (3 Bft) N 355 ° 1 min 260 W/m² 8,2 °C 11,6 °C 27,4 km/h (5 Bft)
14.09.2024 13:27 21,9 °C 16,2 °C 51 % 58 % 1024,7 hPa 0,0 l/m² 19,9 km/h (4 Bft) NW 315 ° 1 min 316 W/m² 7,9 °C 11,3 °C 30,6 km/h (5 Bft)
14.09.2024 13:28 21,9 °C 16,2 °C 51 % 58 % 1024,7 hPa 0,0 l/m² 14,6 km/h (3 Bft) NW 325 ° 1 min 315 W/m² 7,9 °C 12,8 °C 20,9 km/h (4 Bft)
14.09.2024 13:29 21,9 °C 16,2 °C 51 % 59 % 1024,7 hPa 0,0 l/m² 13,6 km/h (3 Bft) NW 326 ° 1 min 287 W/m² 8,2 °C 13,1 °C 20,9 km/h (4 Bft)
14.09.2024 13:30 21,9 °C 16,2 °C 51 % 60 % 1024,8 hPa 0,0 l/m² 14,9 km/h (3 Bft) NW 317 ° 1 min 287 W/m² 8,4 °C 12,7 °C 24,1 km/h (4 Bft)
14.09.2024 13:31 21,9 °C 16,3 °C 51 % 59 % 1024,7 hPa 0,0 l/m² 16,2 km/h (3 Bft) W-NW 302 ° 1 min 239 W/m² 8,3 °C 12,4 °C 29,0 km/h (5 Bft)
14.09.2024 13:32 21,9 °C 16,3 °C 51 % 59 % 1024,7 hPa 0,0 l/m² 22,9 km/h (4 Bft) W-NW 289 ° 1 min 223 W/m² 8,3 °C 10,8 °C 32,2 km/h (5 Bft)
14.09.2024 13:33 21,9 °C 16,1 °C 51 % 58 % 1024,7 hPa 0,0 l/m² 22,9 km/h (4 Bft) NW 317 ° 1 min 223 W/m² 7,8 °C 10,5 °C 33,8 km/h (5 Bft)
14.09.2024 13:34 21,9 °C 16,0 °C 51 % 57 % 1024,7 hPa 0,0 l/m² 23,5 km/h (4 Bft) N-NW 344 ° 1 min 241 W/m² 7,5 °C 10,3 °C 35,4 km/h (5 Bft)
14.09.2024 13:35 21,9 °C 15,9 °C 51 % 58 % 1024,8 hPa 0,0 l/m² 18,2 km/h (3 Bft) W-NW 302 ° 1 min 265 W/m² 7,6 °C 11,4 °C 33,8 km/h (5 Bft)
14.09.2024 13:36 21,9 °C 15,8 °C 51 % 58 % 1024,7 hPa 0,0 l/m² 17,1 km/h (3 Bft) NW 306 ° 1 min 260 W/m² 7,6 °C 11,5 °C 25,7 km/h (4 Bft)
14.09.2024 13:37 21,9 °C 15,8 °C 51 % 59 % 1024,7 hPa 0,0 l/m² 20,7 km/h (4 Bft) NW 320 ° 1 min 255 W/m² 7,8 °C 10,6 °C 32,2 km/h (5 Bft)
14.09.2024 13:38 21,9 °C 15,8 °C 51 % 60 % 1024,7 hPa 0,0 l/m² 21,1 km/h (4 Bft) NW 319 ° 1 min 220 W/m² 8,1 °C 10,5 °C 32,2 km/h (5 Bft)
14.09.2024 13:39 21,9 °C 15,8 °C 51 % 60 % 1024,7 hPa 0,0 l/m² 16,2 km/h (3 Bft) N-NO 16 ° 1 min 204 W/m² 8,1 °C 11,8 °C 27,4 km/h (5 Bft)
14.09.2024 13:40 21,8 °C 15,8 °C 51 % 60 % 1024,8 hPa 0,0 l/m² 18,3 km/h (3 Bft) N 355 ° 1 min 207 W/m² 8,1 °C 11,2 °C 30,6 km/h (5 Bft)
14.09.2024 13:41 21,9 °C 15,8 °C 51 % 59 % 1024,7 hPa 0,0 l/m² 17,2 km/h (3 Bft) N-NW 337 ° 1 min 279 W/m² 7,8 °C 11,5 °C 24,1 km/h (4 Bft)
14.09.2024 13:42 21,9 °C 15,8 °C 51 % 59 % 1024,7 hPa 0,0 l/m² 15,8 km/h (3 Bft) N-NW 337 ° 1 min 279 W/m² 7,8 °C 11,9 °C 24,1 km/h (4 Bft)
14.09.2024 13:43 21,9 °C 15,9 °C 51 % 60 % 1024,8 hPa 0,0 l/m² 17,2 km/h (3 Bft) N 355 ° 1 min 279 W/m² 8,1 °C 11,6 °C 27,4 km/h (5 Bft)
14.09.2024 13:44 21,8 °C 16,1 °C 51 % 59 % 1024,7 hPa 0,0 l/m² 16,9 km/h (3 Bft) W-NW 300 ° 1 min 279 W/m² 8,1 °C 12,0 °C 29,0 km/h (5 Bft)
14.09.2024 13:45 21,8 °C 16,1 °C 51 % 59 % 1024,7 hPa 0,0 l/m² 18,1 km/h (3 Bft) W-NW 282 ° 1 min 186 W/m² 8,1 °C 11,6 °C 27,4 km/h (5 Bft)
14.09.2024 13:46 21,8 °C 16,1 °C 51 % 58 % 1024,7 hPa 0,0 l/m² 20,0 km/h (4 Bft) N-NW 340 ° 1 min 200 W/m² 7,8 °C 11,2 °C 27,4 km/h (5 Bft)
14.09.2024 13:47 21,8 °C 16,0 °C 51 % 58 % 1024,7 hPa 0,0 l/m² 15,0 km/h (3 Bft) N 355 ° 1 min 192 W/m² 7,7 °C 12,4 °C 24,1 km/h (4 Bft)
14.09.2024 13:48 21,8 °C 16,0 °C 51 % 58 % 1024,7 hPa 0,0 l/m² 20,6 km/h (4 Bft) N-NW 338 ° 1 min 566 W/m² 7,7 °C 10,9 °C 27,4 km/h (5 Bft)
14.09.2024 13:49 21,8 °C 16,0 °C 51 % 58 % 1024,7 hPa 0,0 l/m² 19,3 km/h (3 Bft) N 11 ° 1 min 566 W/m² 7,7 °C 11,2 °C 27,4 km/h (5 Bft)
14.09.2024 13:50 21,8 °C 16,1 °C 51 % 58 % 1024,7 hPa 0,0 l/m² 18,0 km/h (3 Bft) W 273 ° 1 min 566 W/m² 7,8 °C 11,7 °C 25,7 km/h (4 Bft)
14.09.2024 13:51 21,8 °C 16,1 °C 51 % 58 % 1024,6 hPa 0,0 l/m² 18,2 km/h (3 Bft) N-NW 330 ° 1 min 229 W/m² 7,8 °C 11,6 °C 35,4 km/h (5 Bft)
14.09.2024 13:52 21,8 °C 16,1 °C 51 % 58 % 1024,7 hPa 0,0 l/m² 20,5 km/h (4 Bft) N-NW 346 ° 1 min 250 W/m² 7,8 °C 11,0 °C 25,7 km/h (4 Bft)
14.09.2024 13:53 21,8 °C 16,1 °C 51 % 58 % 1024,8 hPa 0,0 l/m² 14,5 km/h (3 Bft) N 360 ° 1 min 371 W/m² 7,8 °C 12,7 °C 22,5 km/h (4 Bft)
14.09.2024 13:54 21,8 °C 16,2 °C 52 % 58 % 1024,7 hPa 0,0 l/m² 19,4 km/h (3 Bft) N-NW 333 ° 1 min 287 W/m² 7,9 °C 11,4 °C 25,7 km/h (4 Bft)
14.09.2024 13:55 21,8 °C 16,2 °C 51 % 58 % 1024,6 hPa 0,0 l/m² 16,8 km/h (3 Bft) N-NW 346 ° 1 min 246 W/m² 7,9 °C 12,1 °C 24,1 km/h (4 Bft)
14.09.2024 13:56 21,8 °C 16,2 °C 52 % 58 % 1024,6 hPa 0,0 l/m² 14,8 km/h (3 Bft) W-NW 294 ° 1 min 223 W/m² 7,9 °C 12,7 °C 25,7 km/h (4 Bft)
14.09.2024 13:57 21,8 °C 16,2 °C 52 % 58 % 1024,7 hPa 0,0 l/m² 25,6 km/h (4 Bft) N-NW 337 ° 1 min 202 W/m² 7,9 °C 10,1 °C 32,2 km/h (5 Bft)
14.09.2024 13:58 21,8 °C 16,1 °C 52 % 57 % 1024,6 hPa 0,0 l/m² 24,8 km/h (4 Bft) N-NW 335 ° 1 min 299 W/m² 7,6 °C 10,1 °C 30,6 km/h (5 Bft)
14.09.2024 13:59 21,8 °C 16,0 °C 52 % 57 % 1024,5 hPa 0,0 l/m² 22,4 km/h (4 Bft) NW 323 ° 1 min 596 W/m² 7,5 °C 10,5 °C 30,6 km/h (5 Bft)
14.09.2024 14:00 21,8 °C 16,0 °C 52 % 58 % 1024,6 hPa 0,0 l/m² 18,8 km/h (3 Bft) N 349 ° 1 min 603 W/m² 7,7 °C 11,3 °C 29,0 km/h (5 Bft)
14.09.2024 14:01 21,8 °C 16,1 °C 52 % 58 % 1024,5 hPa 0,0 l/m² 19,3 km/h (3 Bft) N-NW 331 ° 1 min 671 W/m² 7,8 °C 11,3 °C 29,0 km/h (5 Bft)
14.09.2024 14:02 21,8 °C 16,2 °C 52 % 57 % 1024,5 hPa 0,0 l/m² 19,0 km/h (3 Bft) N-NO 31 ° 1 min 761 W/m² 7,7 °C 11,5 °C 25,7 km/h (4 Bft)
14.09.2024 14:03 21,8 °C 16,4 °C 52 % 58 % 1024,4 hPa 0,0 l/m² 18,3 km/h (3 Bft) N-NO 17 ° 1 min 735 W/m² 8,1 °C 12,0 °C 27,4 km/h (5 Bft)
14.09.2024 14:04 21,7 °C 16,5 °C 52 % 57 % 1024,4 hPa 0,0 l/m² 17,6 km/h (3 Bft) NW 315 ° 1 min 735 W/m² 8,0 °C 12,3 °C 29,0 km/h (5 Bft)
14.09.2024 14:05 21,7 °C 16,6 °C 52 % 57 % 1024,5 hPa 0,0 l/m² 19,8 km/h (3 Bft) N-NW 331 ° 1 min 255 W/m² 8,0 °C 11,9 °C 29,0 km/h (5 Bft)
14.09.2024 14:06 21,8 °C 16,6 °C 52 % 57 % 1024,4 hPa 0,0 l/m² 18,1 km/h (3 Bft) NW 309 ° 1 min 250 W/m² 8,0 °C 12,3 °C 29,0 km/h (5 Bft)
14.09.2024 14:07 21,7 °C 16,5 °C 52 % 57 % 1024,5 hPa 0,0 l/m² 16,4 km/h (3 Bft) W-NW 297 ° 1 min 243 W/m² 8,0 °C 12,6 °C 22,5 km/h (4 Bft)
14.09.2024 14:08 21,7 °C 16,4 °C 52 % 57 % 1024,5 hPa 0,0 l/m² 15,9 km/h (3 Bft) NW 319 ° 1 min 236 W/m² 7,9 °C 12,6 °C 25,7 km/h (4 Bft)
14.09.2024 14:09 21,8 °C 16,3 °C 52 % 57 % 1024,5 hPa 0,0 l/m² 14,8 km/h (3 Bft) NW 325 ° 1 min 229 W/m² 7,8 °C 12,8 °C 25,7 km/h (4 Bft)
14.09.2024 14:10 21,7 °C 16,2 °C 52 % 57 % 1024,5 hPa 0,0 l/m² 20,0 km/h (4 Bft) NW 325 ° 1 min 285 W/m² 7,7 °C 11,3 °C 25,7 km/h (4 Bft)
14.09.2024 14:11 21,7 °C 16,1 °C 52 % 58 % 1024,5 hPa 0,0 l/m² 23,8 km/h (4 Bft) NW 306 ° 1 min 285 W/m² 7,8 °C 10,3 °C 35,4 km/h (5 Bft)
14.09.2024 14:12 21,7 °C 16,1 °C 52 % 57 % 1024,3 hPa 0,0 l/m² 20,5 km/h (4 Bft) N 5 ° 1 min 666 W/m² 7,6 °C 11,0 °C 30,6 km/h (5 Bft)
14.09.2024 14:13 21,7 °C 16,2 °C 52 % 58 % 1024,5 hPa 0,0 l/m² 14,9 km/h (3 Bft) N-NW 330 ° 1 min 654 W/m² 7,9 °C 12,7 °C 20,9 km/h (4 Bft)
14.09.2024 14:14 21,7 °C 16,4 °C 52 % 58 % 1024,3 hPa 0,0 l/m² 17,3 km/h (3 Bft) N 360 ° 1 min 654 W/m² 8,1 °C 12,2 °C 19,3 km/h (3 Bft)
14.09.2024 14:15 21,7 °C 16,6 °C 52 % 58 % 1024,4 hPa 0,0 l/m² 22,3 km/h (4 Bft) NW 308 ° 1 min 617 W/m² 8,3 °C 11,3 °C 33,8 km/h (5 Bft)
14.09.2024 14:16 21,7 °C 16,7 °C 52 % 57 % 1024,4 hPa 0,0 l/m² 22,6 km/h (4 Bft) N-NW 337 ° 1 min 638 W/m² 8,1 °C 11,4 °C 35,4 km/h (5 Bft)
14.09.2024 14:17 21,7 °C 16,7 °C 52 % 57 % 1024,4 hPa 0,0 l/m² 22,4 km/h (4 Bft) N-NW 346 ° 1 min 638 W/m² 8,1 °C 11,4 °C 29,0 km/h (5 Bft)
14.09.2024 14:18 21,7 °C 16,7 °C 52 % 57 % 1024,4 hPa 0,0 l/m² 20,3 km/h (4 Bft) NW 315 ° 1 min 186 W/m² 8,1 °C 11,9 °C 32,2 km/h (5 Bft)
14.09.2024 14:19 21,7 °C 16,6 °C 52 % 57 % 1024,5 hPa 0,0 l/m² 19,3 km/h (3 Bft) N-NW 347 ° 1 min 169 W/m² 8,0 °C 12,0 °C 33,8 km/h (5 Bft)
14.09.2024 14:20 21,7 °C 16,4 °C 52 % 56 % 1024,6 hPa 0,0 l/m² 25,8 km/h (4 Bft) N-NW 329 ° 1 min 156 W/m² 7,6 °C 10,4 °C 40,2 km/h (6 Bft)
14.09.2024 14:21 21,7 °C 16,3 °C 52 % 56 % 1024,6 hPa 0,0 l/m² 27,9 km/h (5 Bft) NW 317 ° 1 min 155 W/m² 7,5 °C 9,9 °C 38,6 km/h (6 Bft)
14.09.2024 14:22 21,7 °C 16,1 °C 52 % 56 % 1024,6 hPa 0,0 l/m² 25,5 km/h (4 Bft) NW 325 ° 1 min 434 W/m² 7,3 °C 10,0 °C 32,2 km/h (5 Bft)
14.09.2024 14:23 21,7 °C 16,0 °C 52 % 57 % 1024,6 hPa 0,0 l/m² 21,9 km/h (4 Bft) NW 313 ° 1 min 490 W/m² 7,5 °C 10,6 °C 29,0 km/h (5 Bft)
14.09.2024 14:24 21,7 °C 16,0 °C 52 % 58 % 1024,6 hPa 0,0 l/m² 22,9 km/h (4 Bft) NW 325 ° 1 min 545 W/m² 7,7 °C 10,4 °C 29,0 km/h (5 Bft)
14.09.2024 14:25 21,7 °C 16,1 °C 52 % 58 % 1024,4 hPa 0,0 l/m² 20,3 km/h (4 Bft) W 272 ° 1 min 545 W/m² 7,8 °C 11,1 °C 30,6 km/h (5 Bft)
14.09.2024 14:26 21,7 °C 16,1 °C 52 % 58 % 1024,5 hPa 0,0 l/m² 18,6 km/h (3 Bft) NW 313 ° 1 min 195 W/m² 7,8 °C 11,5 °C 30,6 km/h (5 Bft)
14.09.2024 14:27 21,7 °C 16,1 °C 52 % 58 % 1024,4 hPa 0,0 l/m² 22,0 km/h (4 Bft) N-NW 331 ° 1 min 193 W/m² 7,8 °C 10,7 °C 30,6 km/h (5 Bft)
14.09.2024 14:28 21,7 °C 16,1 °C 52 % 58 % 1024,4 hPa 0,0 l/m² 19,4 km/h (3 Bft) NW 325 ° 1 min 186 W/m² 7,8 °C 11,3 °C 24,1 km/h (4 Bft)
14.09.2024 14:29 21,7 °C 16,1 °C 52 % 58 % 1024,6 hPa 0,0 l/m² 12,7 km/h (3 Bft) NW 306 ° 1 min 183 W/m² 7,8 °C 13,3 °C 19,3 km/h (3 Bft)
14.09.2024 14:30 21,7 °C 16,0 °C 52 % 59 % 1024,5 hPa 0,0 l/m² 16,8 km/h (3 Bft) N-NW 337 ° 1 min 272 W/m² 8,0 °C 11,9 °C 27,4 km/h (5 Bft)
14.09.2024 14:31 21,7 °C 16,0 °C 52 % 58 % 1024,6 hPa 0,0 l/m² 17,2 km/h (3 Bft) N-NW 336 ° 1 min 272 W/m² 7,7 °C 11,8 °C 24,1 km/h (4 Bft)
14.09.2024 14:32 21,7 °C 16,1 °C 52 % 59 % 1024,4 hPa 0,0 l/m² 17,5 km/h (3 Bft) W-NW 296 ° 1 min 696 W/m² 8,1 °C 11,8 °C 25,7 km/h (4 Bft)
14.09.2024 14:33 21,7 °C 16,3 °C 52 % 59 % 1024,5 hPa 0,0 l/m² 16,4 km/h (3 Bft) NW 320 ° 1 min 673 W/m² 8,3 °C 12,4 °C 24,1 km/h (4 Bft)
14.09.2024 14:34 21,7 °C 16,6 °C 52 % 59 % 1024,5 hPa 0,0 l/m² 18,9 km/h (3 Bft) N-NW 328 ° 1 min 677 W/m² 8,6 °C 12,1 °C 32,2 km/h (5 Bft)
14.09.2024 14:35 21,7 °C 16,8 °C 52 % 58 % 1024,5 hPa 0,0 l/m² 14,3 km/h (3 Bft) N-NW 332 ° 1 min 715 W/m² 8,5 °C 13,6 °C 29,0 km/h (5 Bft)
14.09.2024 14:36 21,7 °C 16,9 °C 52 % 56 % 1024,5 hPa 0,0 l/m² 18,5 km/h (3 Bft) W-NW 298 ° 1 min 749 W/m² 8,1 °C 12,6 °C 24,1 km/h (4 Bft)
14.09.2024 14:37 21,7 °C 17,0 °C 52 % 56 % 1024,6 hPa 0,0 l/m² 19,7 km/h (3 Bft) NW 318 ° 1 min 708 W/m² 8,2 °C 12,4 °C 27,4 km/h (5 Bft)
14.09.2024 14:38 21,7 °C 17,2 °C 52 % 56 % 1024,5 hPa 0,0 l/m² 17,6 km/h (3 Bft) N-NW 341 ° 1 min 703 W/m² 8,3 °C 13,2 °C 25,7 km/h (4 Bft)
14.09.2024 14:39 21,7 °C 17,2 °C 52 % 55 % 1024,4 hPa 0,0 l/m² 25,5 km/h (4 Bft) NW 316 ° 1 min 703 W/m² 8,1 °C 11,5 °C 37,0 km/h (5 Bft)
14.09.2024 14:40 21,7 °C 17,1 °C 52 % 54 % 1024,5 hPa 0,0 l/m² 29,3 km/h (5 Bft) N-NW 328 ° 1 min 176 W/m² 7,7 °C 10,7 °C 38,6 km/h (6 Bft)
14.09.2024 14:41 21,7 °C 16,8 °C 52 % 55 % 1024,5 hPa 0,0 l/m² 22,8 km/h (4 Bft) N-NW 333 ° 1 min 174 W/m² 7,7 °C 11,5 °C 37,0 km/h (5 Bft)
14.09.2024 14:42 21,7 °C 16,7 °C 52 % 55 % 1024,5 hPa 0,0 l/m² 23,6 km/h (4 Bft) N-NW 337 ° 1 min 179 W/m² 7,6 °C 11,2 °C 32,2 km/h (5 Bft)
14.09.2024 14:43 21,7 °C 16,4 °C 52 % 56 % 1024,6 hPa 0,0 l/m² 25,2 km/h (4 Bft) N 5 ° 1 min 183 W/m² 7,6 °C 10,5 °C 37,0 km/h (5 Bft)
14.09.2024 14:44 21,7 °C 16,3 °C 52 % 57 % 1024,4 hPa 0,0 l/m² 22,8 km/h (4 Bft) N-NW 337 ° 1 min 197 W/m² 7,8 °C 10,8 °C 29,0 km/h (5 Bft)
14.09.2024 14:45 21,7 °C 16,1 °C 52 % 57 % 1024,6 hPa 0,0 l/m² 17,1 km/h (3 Bft) N-NW 328 ° 1 min 186 W/m² 7,6 °C 11,9 °C 20,9 km/h (4 Bft)
14.09.2024 14:46 21,7 °C 16,1 °C 52 % 58 % 1024,5 hPa 0,0 l/m² 19,6 km/h (3 Bft) W 261 ° 1 min 186 W/m² 7,8 °C 11,3 °C 25,7 km/h (4 Bft)
14.09.2024 14:47 21,7 °C 16,2 °C 52 % 58 % 1024,5 hPa 0,0 l/m² 14,5 km/h (3 Bft) W-NW 291 ° 1 min 763 W/m² 7,9 °C 12,8 °C 20,9 km/h (4 Bft)
14.09.2024 14:48 21,7 °C 16,4 °C 52 % 59 % 1024,6 hPa 0,0 l/m² 13,9 km/h (3 Bft) W-NW 302 ° 1 min 763 W/m² 8,4 °C 13,2 °C 22,5 km/h (4 Bft)
14.09.2024 14:49 21,6 °C 16,6 °C 52 % 58 % 1024,5 hPa 0,0 l/m² 12,5 km/h (2 Bft) NW 315 ° 1 min 763 W/m² 8,3 °C 13,9 °C 16,1 km/h (3 Bft)
14.09.2024 14:50 21,7 °C 16,7 °C 52 % 56 % 1024,5 hPa 0,0 l/m² 25,5 km/h (4 Bft) N 355 ° 1 min 763 W/m² 7,9 °C 10,8 °C 35,4 km/h (5 Bft)
14.09.2024 14:51 21,7 °C 16,7 °C 52 % 56 % 1024,5 hPa 0,0 l/m² 23,9 km/h (4 Bft) N-NW 333 ° 1 min 763 W/m² 7,9 °C 11,1 °C 32,2 km/h (5 Bft)
14.09.2024 14:52 21,6 °C 16,8 °C 52 % 56 % 1024,4 hPa 0,0 l/m² 17,6 km/h (3 Bft) NW 317 ° 1 min 666 W/m² 8,0 °C 12,7 °C 25,7 km/h (4 Bft)
14.09.2024 14:53 21,7 °C 16,9 °C 52 % 56 % 1024,4 hPa 0,0 l/m² 19,0 km/h (3 Bft) W-NW 289 ° 1 min 708 W/m² 8,1 °C 12,4 °C 25,7 km/h (4 Bft)
14.09.2024 14:54 21,7 °C 17,1 °C 52 % 56 % 1024,2 hPa 0,0 l/m² 19,5 km/h (3 Bft) NW 305 ° 1 min 710 W/m² 8,3 °C 12,6 °C 29,0 km/h (5 Bft)
14.09.2024 14:55 21,7 °C 17,2 °C 52 % 55 % 1024,3 hPa 0,0 l/m² 19,0 km/h (3 Bft) N-NW 345 ° 1 min 708 W/m² 8,1 °C 12,8 °C 24,1 km/h (4 Bft)
14.09.2024 14:56 21,6 °C 17,3 °C 52 % 55 % 1024,3 hPa 0,0 l/m² 17,3 km/h (3 Bft) NW 315 ° 1 min 703 W/m² 8,2 °C 13,4 °C 27,4 km/h (5 Bft)
14.09.2024 14:57 21,7 °C 17,3 °C 52 % 54 % 1024,3 hPa 0,0 l/m² 16,2 km/h (3 Bft) W-NW 288 ° 1 min 163 W/m² 7,9 °C 13,6 °C 25,7 km/h (4 Bft)
14.09.2024 14:58 21,7 °C 17,3 °C 52 % 54 % 1024,3 hPa 0,0 l/m² 17,2 km/h (3 Bft) NW 313 ° 1 min 163 W/m² 7,9 °C 13,4 °C 25,7 km/h (4 Bft)
14.09.2024 14:59 21,7 °C 17,2 °C 52 % 54 % 1024,4 hPa 0,0 l/m² 24,4 km/h (4 Bft) W-NW 298 ° 1 min 163 W/m² 7,8 °C 11,7 °C 30,6 km/h (5 Bft)
14.09.2024 15:00 21,6 °C 17,1 °C 52 % 54 % 1024,4 hPa 0,0 l/m² 24,6 km/h (4 Bft) NW 315 ° 1 min 163 W/m² 7,7 °C 11,5 °C 33,8 km/h (5 Bft)
14.09.2024 15:01 21,7 °C 17,1 °C 52 % 55 % 1024,4 hPa 0,0 l/m² 21,1 km/h (4 Bft) N-NW 337 ° 1 min 689 W/m² 8,0 °C 12,2 °C 32,2 km/h (5 Bft)
14.09.2024 15:02 21,6 °C 17,1 °C 52 % 56 % 1024,3 hPa 0,0 l/m² 19,5 km/h (3 Bft) N 9 ° 1 min 698 W/m² 8,3 °C 12,6 °C 27,4 km/h (5 Bft)
14.09.2024 15:03 21,7 °C 17,2 °C 52 % 55 % 1024,4 hPa 0,0 l/m² 21,6 km/h (4 Bft) NW 306 ° 1 min 705 W/m² 8,1 °C 12,2 °C 32,2 km/h (5 Bft)
14.09.2024 15:04 21,7 °C 17,3 °C 52 % 54 % 1024,4 hPa 0,0 l/m² 23,6 km/h (4 Bft) N-NW 348 ° 1 min 202 W/m² 7,9 °C 12,0 °C 35,4 km/h (5 Bft)
14.09.2024 15:05 21,7 °C 17,2 °C 52 % 54 % 1024,3 hPa 0,0 l/m² 25,5 km/h (4 Bft) N 355 ° 1 min 178 W/m² 7,8 °C 11,5 °C 37,0 km/h (5 Bft)
14.09.2024 15:06 21,7 °C 17,1 °C 52 % 54 % 1024,3 hPa 0,0 l/m² 17,4 km/h (3 Bft) NW 317 ° 1 min 204 W/m² 7,7 °C 13,1 °C 30,6 km/h (5 Bft)
14.09.2024 15:07 21,7 °C 16,9 °C 52 % 55 % 1024,4 hPa 0,0 l/m² 20,8 km/h (4 Bft) N-NW 333 ° 1 min 193 W/m² 7,8 °C 12,0 °C 32,2 km/h (5 Bft)
14.09.2024 15:08 21,7 °C 16,7 °C 52 % 55 % 1024,3 hPa 0,0 l/m² 23,5 km/h (4 Bft) NW 311 ° 1 min 174 W/m² 7,6 °C 11,2 °C 33,8 km/h (5 Bft)
14.09.2024 15:09 21,7 °C 16,6 °C 52 % 55 % 1024,5 hPa 0,0 l/m² 22,7 km/h (4 Bft) NW 306 ° 1 min 171 W/m² 7,5 °C 11,2 °C 30,6 km/h (5 Bft)
14.09.2024 15:10 21,7 °C 16,4 °C 52 % 56 % 1024,4 hPa 0,0 l/m² 22,9 km/h (4 Bft) NW 315 ° 1 min 162 W/m² 7,6 °C 10,9 °C 37,0 km/h (5 Bft)
14.09.2024 15:11 21,7 °C 16,3 °C 52 % 56 % 1024,5 hPa 0,0 l/m² 24,9 km/h (4 Bft) N-NW 338 ° 1 min 146 W/m² 7,5 °C 10,4 °C 33,8 km/h (5 Bft)
14.09.2024 15:12 21,6 °C 16,2 °C 52 % 56 % 1024,4 hPa 0,0 l/m² 18,8 km/h (3 Bft) N-NW 348 ° 1 min 146 W/m² 7,4 °C 11,6 °C 25,7 km/h (4 Bft)
14.09.2024 15:13 21,6 °C 16,2 °C 52 % 57 % 1024,5 hPa 0,0 l/m² 18,8 km/h (3 Bft) NW 320 ° 1 min 146 W/m² 7,7 °C 11,6 °C 29,0 km/h (5 Bft)
14.09.2024 15:14 21,6 °C 16,2 °C 52 % 56 % 1024,4 hPa 0,0 l/m² 22,1 km/h (4 Bft) N-NW 328 ° 1 min 146 W/m² 7,4 °C 10,8 °C 33,8 km/h (5 Bft)
14.09.2024 15:15 21,7 °C 16,4 °C 52 % 56 % 1024,3 hPa 0,0 l/m² 21,5 km/h (4 Bft) W-NW 300 ° 1 min 654 W/m² 7,6 °C 11,2 °C 35,4 km/h (5 Bft)
14.09.2024 15:16 21,7 °C 16,6 °C 52 % 56 % 1024,4 hPa 0,0 l/m² 16,4 km/h (3 Bft) W-NW 289 ° 1 min 647 W/m² 7,8 °C 12,7 °C 24,1 km/h (4 Bft)
14.09.2024 15:17 21,7 °C 16,8 °C 52 % 56 % 1024,3 hPa 0,0 l/m² 19,0 km/h (3 Bft) N-NW 347 ° 1 min 640 W/m² 8,0 °C 12,3 °C 25,7 km/h (4 Bft)
14.09.2024 15:18 21,7 °C 16,9 °C 52 % 56 % 1024,3 hPa 0,0 l/m² 19,5 km/h (3 Bft) N 350 ° 1 min 640 W/m² 8,1 °C 12,3 °C 32,2 km/h (5 Bft)
14.09.2024 15:19 21,7 °C 17,2 °C 52 % 54 % 1024,4 hPa 0,0 l/m² 23,8 km/h (4 Bft) W-NW 302 ° 1 min 635 W/m² 7,8 °C 11,8 °C 30,6 km/h (5 Bft)
14.09.2024 15:20 21,7 °C 17,2 °C 52 % 54 % 1024,4 hPa 0,0 l/m² 19,8 km/h (3 Bft) N-NW 332 ° 1 min 656 W/m² 7,8 °C 12,6 °C 24,1 km/h (4 Bft)
14.09.2024 15:21 21,6 °C 17,3 °C 52 % 54 % 1024,3 hPa 0,0 l/m² 13,0 km/h (3 Bft) N 355 ° 1 min 598 W/m² 7,9 °C 14,6 °C 17,7 km/h (3 Bft)
14.09.2024 15:22 21,6 °C 17,4 °C 52 % 54 % 1024,3 hPa 0,0 l/m² 20,8 km/h (4 Bft) N 355 ° 1 min 598 W/m² 8,0 °C 12,7 °C 27,4 km/h (5 Bft)
14.09.2024 15:23 21,6 °C 17,3 °C 52 % 54 % 1024,3 hPa 0,0 l/m² 25,6 km/h (4 Bft) N 355 ° 1 min 171 W/m² 7,9 °C 11,6 °C 35,4 km/h (5 Bft)
14.09.2024 15:24 21,6 °C 17,3 °C 52 % 54 % 1024,2 hPa 0,0 l/m² 13,4 km/h (3 Bft) NW 316 ° 1 min 206 W/m² 7,9 °C 14,5 °C 27,4 km/h (5 Bft)
14.09.2024 15:25 21,7 °C 17,3 °C 52 % 54 % 1024,4 hPa 0,0 l/m² 25,5 km/h (4 Bft) W-NW 302 ° 1 min 206 W/m² 7,9 °C 11,6 °C 40,2 km/h (6 Bft)
14.09.2024 15:26 21,7 °C 17,3 °C 52 % 54 % 1024,3 hPa 0,0 l/m² 13,1 km/h (3 Bft) NW 310 ° 1 min 663 W/m² 7,9 °C 14,6 °C 22,5 km/h (4 Bft)
14.09.2024 15:27 21,7 °C 17,4 °C 52 % 56 % 1024,3 hPa 0,0 l/m² 6,1 km/h (2 Bft) W-NW 298 ° 1 min 663 W/m² 8,5 °C 17,4 °C 14,5 km/h (3 Bft)
14.09.2024 15:28 21,7 °C 17,5 °C 52 % 55 % 1024,3 hPa 0,0 l/m² 12,5 km/h (2 Bft) NW 307 ° 1 min 636 W/m² 8,4 °C 15,0 °C 24,1 km/h (4 Bft)
14.09.2024 15:29 21,6 °C 17,6 °C 52 % 56 % 1024,3 hPa 0,0 l/m² 23,3 km/h (4 Bft) N-NW 331 ° 1 min 664 W/m² 8,7 °C 12,4 °C 37,0 km/h (5 Bft)
14.09.2024 15:30 21,6 °C 17,7 °C 52 % 55 % 1024,2 hPa 0,0 l/m² 17,6 km/h (3 Bft) NW 306 ° 1 min 677 W/m² 8,5 °C 13,8 °C 29,0 km/h (5 Bft)
14.09.2024 15:31 21,7 °C 17,8 °C 52 % 54 % 1024,3 hPa 0,0 l/m² 8,6 km/h (2 Bft) N-NW 338 ° 1 min 677 W/m² 8,4 °C 16,8 °C 14,5 km/h (3 Bft)
14.09.2024 15:32 21,7 °C 17,8 °C 52 % 54 % 1024,3 hPa 0,0 l/m² 17,8 km/h (3 Bft) NW 326 ° 1 min 243 W/m² 8,4 °C 13,9 °C 35,4 km/h (5 Bft)
14.09.2024 15:33 21,7 °C 17,8 °C 52 % 53 % 1024,2 hPa 0,0 l/m² 19,7 km/h (3 Bft) N-NW 333 ° 1 min 650 W/m² 8,1 °C 13,4 °C 25,7 km/h (4 Bft)
14.09.2024 15:34 21,6 °C 17,7 °C 52 % 53 % 1024,2 hPa 0,0 l/m² 25,6 km/h (4 Bft) NW 315 ° 1 min 610 W/m² 8,0 °C 12,2 °C 37,0 km/h (5 Bft)
14.09.2024 15:35 21,7 °C 17,6 °C 53 % 52 % 1024,3 hPa 0,0 l/m² 22,1 km/h (4 Bft) W 261 ° 1 min 610 W/m² 7,6 °C 12,7 °C 33,8 km/h (5 Bft)
14.09.2024 15:36 21,7 °C 17,5 °C 53 % 53 % 1024,3 hPa 0,0 l/m² 13,7 km/h (3 Bft) NW 314 ° 1 min 610 W/m² 7,8 °C 14,6 °C 24,1 km/h (4 Bft)
14.09.2024 15:37 21,7 °C 17,6 °C 53 % 54 % 1024,3 hPa 0,0 l/m² 13,0 km/h (3 Bft) W-NW 297 ° 1 min 610 W/m² 8,2 °C 14,9 °C 20,9 km/h (4 Bft)
14.09.2024 15:38 21,7 °C 17,7 °C 53 % 54 % 1024,3 hPa 0,0 l/m² 18,6 km/h (3 Bft) NW 320 ° 1 min 610 W/m² 8,3 °C 13,5 °C 27,4 km/h (5 Bft)
14.09.2024 15:39 21,7 °C 17,8 °C 53 % 53 % 1024,3 hPa 0,0 l/m² 19,7 km/h (3 Bft) NW 311 ° 1 min 230 W/m² 8,1 °C 13,4 °C 29,0 km/h (5 Bft)
14.09.2024 15:40 21,7 °C 17,7 °C 53 % 53 % 1024,3 hPa 0,0 l/m² 23,2 km/h (4 Bft) N-NW 343 ° 1 min 230 W/m² 8,0 °C 12,6 °C 33,8 km/h (5 Bft)
14.09.2024 15:41 21,7 °C 17,6 °C 53 % 52 % 1024,2 hPa 0,0 l/m² 18,8 km/h (3 Bft) N-NW 343 ° 1 min 230 W/m² 7,6 °C 13,4 °C 29,0 km/h (5 Bft)
14.09.2024 15:42 21,7 °C 17,6 °C 53 % 54 % 1024,3 hPa 0,0 l/m² 21,3 km/h (4 Bft) NW 310 ° 1 min 230 W/m² 8,2 °C 12,8 °C 35,4 km/h (5 Bft)
14.09.2024 15:43 21,7 °C 17,7 °C 53 % 53 % 1024,2 hPa 0,0 l/m² 27,7 km/h (5 Bft) W-NW 292 ° 1 min 664 W/m² 8,0 °C 11,8 °C 35,4 km/h (5 Bft)
14.09.2024 15:45 21,7 °C 17,7 °C 53 % 55 % 1024,3 hPa 0,0 l/m² 20,2 km/h (4 Bft) NW 304 ° 2 min 657 W/m² 8,5 °C 13,2 °C 38,6 km/h (6 Bft)
14.09.2024 15:46 21,8 °C 17,8 °C 53 % 53 % 1024,3 hPa 0,0 l/m² 17,8 km/h (3 Bft) N 360 ° 1 min 615 W/m² 8,1 °C 13,9 °C 29,0 km/h (5 Bft)
14.09.2024 15:47 21,8 °C 17,8 °C 53 % 53 % 1024,3 hPa 0,0 l/m² 26,9 km/h (4 Bft) N-NW 337 ° 1 min 596 W/m² 8,1 °C 12,1 °C 40,2 km/h (6 Bft)
14.09.2024 15:48 21,8 °C 17,8 °C 53 % 52 % 1024,3 hPa 0,0 l/m² 24,1 km/h (4 Bft) N-NW 329 ° 1 min 582 W/m² 7,8 °C 12,6 °C 32,2 km/h (5 Bft)
14.09.2024 15:49 21,8 °C 17,7 °C 53 % 52 % 1024,3 hPa 0,0 l/m² 22,1 km/h (4 Bft) N-NW 333 ° 1 min 582 W/m² 7,7 °C 12,8 °C 29,0 km/h (5 Bft)
14.09.2024 15:50 21,8 °C 17,7 °C 53 % 52 % 1024,3 hPa 0,0 l/m² 20,7 km/h (4 Bft) NW 306 ° 1 min 598 W/m² 7,7 °C 13,1 °C 29,0 km/h (5 Bft)
14.09.2024 15:51 21,8 °C 17,7 °C 53 % 53 % 1024,3 hPa 0,0 l/m² 15,1 km/h (3 Bft) N-NW 344 ° 1 min 598 W/m² 8,0 °C 14,4 °C 24,1 km/h (4 Bft)
14.09.2024 15:52 21,8 °C 17,7 °C 53 % 53 % 1024,3 hPa 0,0 l/m² 19,5 km/h (3 Bft) NW 324 ° 1 min 598 W/m² 8,0 °C 13,3 °C 25,7 km/h (4 Bft)
14.09.2024 15:53 21,8 °C 17,7 °C 53 % 52 % 1024,2 hPa 0,0 l/m² 24,8 km/h (4 Bft) NW 321 ° 1 min 598 W/m² 7,7 °C 12,3 °C 33,8 km/h (5 Bft)
14.09.2024 15:54 21,8 °C 17,6 °C 53 % 53 % 1024,2 hPa 0,0 l/m² 20,2 km/h (4 Bft) W-NW 299 ° 1 min 598 W/m² 7,9 °C 13,1 °C 27,4 km/h (5 Bft)
14.09.2024 15:55 21,8 °C 17,6 °C 53 % 53 % 1024,3 hPa 0,0 l/m² 24,7 km/h (4 Bft) W-NW 282 ° 1 min 596 W/m² 7,9 °C 12,2 °C 37,0 km/h (5 Bft)
14.09.2024 15:56 21,8 °C 17,6 °C 53 % 52 % 1024,3 hPa 0,0 l/m² 29,5 km/h (5 Bft) NW 306 ° 1 min 564 W/m² 7,6 °C 11,4 °C 38,6 km/h (6 Bft)
14.09.2024 15:57 21,8 °C 17,5 °C 53 % 52 % 1024,3 hPa 0,0 l/m² 26,6 km/h (4 Bft) N-NW 338 ° 1 min 555 W/m² 7,5 °C 11,7 °C 41,8 km/h (6 Bft)
14.09.2024 15:58 21,8 °C 17,5 °C 53 % 53 % 1024,2 hPa 0,0 l/m² 22,9 km/h (4 Bft) W-NW 298 ° 1 min 555 W/m² 7,8 °C 12,4 °C 37,0 km/h (5 Bft)
14.09.2024 15:59 21,8 °C 17,5 °C 53 % 53 % 1024,3 hPa 0,0 l/m² 24,1 km/h (4 Bft) N-NW 339 ° 1 min 555 W/m² 7,8 °C 12,2 °C 32,2 km/h (5 Bft)
14.09.2024 16:00 21,8 °C 17,5 °C 53 % 52 % 1024,3 hPa 0,0 l/m² 23,3 km/h (4 Bft) N 360 ° 1 min 534 W/m² 7,5 °C 12,3 °C 35,4 km/h (5 Bft)
14.09.2024 16:01 21,9 °C 17,4 °C 53 % 53 % 1024,3 hPa 0,0 l/m² 21,1 km/h (4 Bft) N-NW 342 ° 1 min 534 W/m² 7,7 °C 12,6 °C 32,2 km/h (5 Bft)
14.09.2024 16:02 21,8 °C 17,3 °C 53 % 53 % 1024,4 hPa 0,0 l/m² 15,1 km/h (3 Bft) NW 321 ° 1 min 116 W/m² 7,6 °C 13,9 °C 22,5 km/h (4 Bft)
14.09.2024 16:03 21,9 °C 17,3 °C 53 % 54 % 1024,4 hPa 0,0 l/m² 21,3 km/h (4 Bft) W-NW 298 ° 1 min 142 W/m² 7,9 °C 12,4 °C 32,2 km/h (5 Bft)
14.09.2024 16:04 21,8 °C 17,2 °C 53 % 53 % 1024,3 hPa 0,0 l/m² 15,0 km/h (3 Bft) N 355 ° 1 min 114 W/m² 7,5 °C 13,9 °C 19,3 km/h (3 Bft)
14.09.2024 16:05 21,8 °C 17,1 °C 53 % 54 % 1024,3 hPa 0,0 l/m² 17,0 km/h (3 Bft) N-NW 332 ° 1 min 121 W/m² 7,7 °C 13,2 °C 25,7 km/h (4 Bft)
14.09.2024 16:07 21,8 °C 16,9 °C 53 % 54 % 1024,3 hPa 0,0 l/m² 17,5 km/h (3 Bft) W 279 ° 2 min 121 W/m² 7,5 °C 12,8 °C 32,2 km/h (5 Bft)
14.09.2024 16:08 21,8 °C 16,9 °C 53 % 54 % 1024,3 hPa 0,0 l/m² 13,5 km/h (3 Bft) NW 311 ° 1 min 118 W/m² 7,5 °C 14,0 °C 22,5 km/h (4 Bft)
14.09.2024 16:09 21,8 °C 16,9 °C 53 % 55 % 1024,3 hPa 0,0 l/m² 15,1 km/h (3 Bft) NW 313 ° 1 min 114 W/m² 7,8 °C 13,5 °C 24,1 km/h (4 Bft)
14.09.2024 16:10 21,8 °C 16,9 °C 53 % 54 % 1024,3 hPa 0,0 l/m² 21,2 km/h (4 Bft) W-NW 283 ° 1 min 114 W/m² 7,5 °C 11,9 °C 30,6 km/h (5 Bft)
14.09.2024 16:11 21,9 °C 16,9 °C 53 % 54 % 1024,3 hPa 0,0 l/m² 19,4 km/h (3 Bft) NW 320 ° 1 min 448 W/m² 7,5 °C 12,3 °C 30,6 km/h (5 Bft)
14.09.2024 16:12 21,8 °C 17,0 °C 53 % 53 % 1024,4 hPa 0,0 l/m² 19,2 km/h (3 Bft) N-NW 344 ° 1 min 475 W/m² 7,4 °C 12,5 °C 40,2 km/h (6 Bft)
14.09.2024 16:13 21,8 °C 17,1 °C 53 % 53 % 1024,3 hPa 0,0 l/m² 19,0 km/h (3 Bft) W-SW 246 ° 1 min 480 W/m² 7,4 °C 12,7 °C 29,0 km/h (5 Bft)
14.09.2024 16:14 21,8 °C 17,1 °C 53 % 53 % 1024,3 hPa 0,0 l/m² 24,8 km/h (4 Bft) NW 317 ° 1 min 473 W/m² 7,4 °C 11,5 °C 37,0 km/h (5 Bft)
14.09.2024 16:15 21,9 °C 17,2 °C 53 % 52 % 1024,3 hPa 0,0 l/m² 24,5 km/h (4 Bft) N-NW 342 ° 1 min 485 W/m² 7,3 °C 11,7 °C 33,8 km/h (5 Bft)
14.09.2024 16:16 21,8 °C 17,3 °C 53 % 52 % 1024,2 hPa 0,0 l/m² 13,3 km/h (3 Bft) W-NW 300 ° 1 min 492 W/m² 7,3 °C 14,5 °C 30,6 km/h (5 Bft)
14.09.2024 16:17 21,8 °C 17,4 °C 53 % 52 % 1024,2 hPa 0,0 l/m² 22,5 km/h (4 Bft) W 259 ° 1 min 489 W/m² 7,4 °C 12,3 °C 43,5 km/h (6 Bft)
14.09.2024 16:18 21,8 °C 17,4 °C 53 % 52 % 1024,2 hPa 0,0 l/m² 16,0 km/h (3 Bft) N-NW 331 ° 1 min 490 W/m² 7,4 °C 13,8 °C 33,8 km/h (5 Bft)
14.09.2024 16:19 21,8 °C 17,4 °C 53 % 52 % 1024,2 hPa 0,0 l/m² 19,2 km/h (3 Bft) W 264 ° 1 min 483 W/m² 7,4 °C 13,0 °C 35,4 km/h (5 Bft)
14.09.2024 16:20 21,8 °C 17,5 °C 53 % 53 % 1024,2 hPa 0,0 l/m² 11,7 km/h (2 Bft) W-NW 286 ° 1 min 483 W/m² 7,8 °C 15,3 °C 20,9 km/h (4 Bft)
14.09.2024 16:22 21,8 °C 17,4 °C 53 % 53 % 1024,3 hPa 0,0 l/m² 19,3 km/h (3 Bft) N 5 ° 2 min 227 W/m² 7,7 °C 13,0 °C 38,6 km/h (6 Bft)
14.09.2024 16:23 21,8 °C 17,2 °C 53 % 53 % 1024,3 hPa 0,0 l/m² 20,2 km/h (4 Bft) W-NW 297 ° 1 min 227 W/m² 7,5 °C 12,5 °C 29,0 km/h (5 Bft)
14.09.2024 16:24 21,8 °C 17,2 °C 53 % 54 % 1024,3 hPa 0,0 l/m² 20,6 km/h (4 Bft) W-NW 302 ° 1 min 258 W/m² 7,8 °C 12,5 °C 32,2 km/h (5 Bft)
14.09.2024 16:25 21,9 °C 17,1 °C 53 % 54 % 1024,3 hPa 0,0 l/m² 17,6 km/h (3 Bft) W-NW 296 ° 1 min 287 W/m² 7,7 °C 13,0 °C 38,6 km/h (6 Bft)
14.09.2024 16:26 21,9 °C 16,9 °C 53 % 55 % 1024,2 hPa 0,0 l/m² 19,2 km/h (3 Bft) NW 321 ° 1 min 297 W/m² 7,8 °C 12,4 °C 30,6 km/h (5 Bft)
14.09.2024 16:27 22,0 °C 16,9 °C 53 % 55 % 1024,3 hPa 0,0 l/m² 19,5 km/h (3 Bft) W-NW 298 ° 1 min 290 W/m² 7,8 °C 12,3 °C 29,0 km/h (5 Bft)
14.09.2024 16:28 22,1 °C 16,9 °C 53 % 56 % 1024,2 hPa 0,0 l/m² 13,2 km/h (3 Bft) NW 312 ° 1 min 279 W/m² 8,1 °C 14,1 °C 22,5 km/h (4 Bft)
14.09.2024 16:29 22,1 °C 16,9 °C 52 % 57 % 1024,3 hPa 0,0 l/m² 11,8 km/h (2 Bft) NW 315 ° 1 min 279 W/m² 8,3 °C 14,5 °C 27,4 km/h (5 Bft)
14.09.2024 16:30 22,2 °C 16,9 °C 52 % 56 % 1024,2 hPa 0,0 l/m² 16,4 km/h (3 Bft) W-NW 297 ° 1 min 279 W/m² 8,1 °C 13,1 °C 32,2 km/h (5 Bft)
14.09.2024 16:31 22,3 °C 16,9 °C 52 % 56 % 1024,4 hPa 0,0 l/m² 12,9 km/h (3 Bft) W 265 ° 1 min 380 W/m² 8,1 °C 14,2 °C 20,9 km/h (4 Bft)
14.09.2024 16:32 22,4 °C 16,9 °C 52 % 56 % 1024,3 hPa 0,0 l/m² 19,8 km/h (3 Bft) NW 325 ° 1 min 369 W/m² 8,1 °C 12,2 °C 32,2 km/h (5 Bft)
14.09.2024 16:33 22,6 °C 16,9 °C 52 % 55 % 1024,3 hPa 0,0 l/m² 22,0 km/h (4 Bft) W-NW 288 ° 1 min 366 W/m² 7,8 °C 11,8 °C 38,6 km/h (6 Bft)
14.09.2024 16:34 22,7 °C 16,9 °C 52 % 55 % 1024,3 hPa 0,0 l/m² 21,3 km/h (4 Bft) N-NW 347 ° 1 min 366 W/m² 7,8 °C 11,9 °C 30,6 km/h (5 Bft)
14.09.2024 16:35 22,8 °C 17,0 °C 52 % 55 % 1024,4 hPa 0,0 l/m² 20,9 km/h (4 Bft) W-NW 296 ° 1 min 374 W/m² 7,9 °C 12,1 °C 24,1 km/h (4 Bft)
14.09.2024 16:36 23,0 °C 16,9 °C 51 % 54 % 1024,3 hPa 0,0 l/m² 22,3 km/h (4 Bft) N-NW 331 ° 1 min 374 W/m² 7,5 °C 11,7 °C 29,0 km/h (5 Bft)
14.09.2024 16:37 23,2 °C 16,9 °C 51 % 54 % 1024,3 hPa 0,0 l/m² 17,0 km/h (3 Bft) NW 319 ° 1 min 113 W/m² 7,5 °C 12,9 °C 22,5 km/h (4 Bft)
14.09.2024 16:38 23,3 °C 16,8 °C 51 % 55 % 1024,3 hPa 0,0 l/m² 17,0 km/h (3 Bft) NW 325 ° 1 min 105 W/m² 7,7 °C 12,8 °C 30,6 km/h (5 Bft)
14.09.2024 16:39 23,6 °C 16,8 °C 51 % 55 % 1024,4 hPa 0,0 l/m² 27,0 km/h (5 Bft) NW 315 ° 1 min 105 W/m² 7,7 °C 10,7 °C 35,4 km/h (5 Bft)
14.09.2024 16:40 23,7 °C 16,8 °C 50 % 55 % 1024,4 hPa 0,0 l/m² 20,0 km/h (4 Bft) NW 304 ° 1 min 415 W/m² 7,7 °C 12,1 °C 33,8 km/h (5 Bft)
14.09.2024 16:41 23,9 °C 16,8 °C 50 % 56 % 1024,4 hPa 0,0 l/m² 16,6 km/h (3 Bft) N-NW 342 ° 1 min 422 W/m² 8,0 °C 12,9 °C 29,0 km/h (5 Bft)
14.09.2024 16:42 24,1 °C 16,9 °C 49 % 56 % 1024,5 hPa 0,0 l/m² 22,8 km/h (4 Bft) N-NW 329 ° 1 min 406 W/m² 8,1 °C 11,6 °C 29,0 km/h (5 Bft)
14.09.2024 16:43 24,3 °C 17,0 °C 49 % 56 % 1024,4 hPa 0,0 l/m² 19,7 km/h (3 Bft) N 355 ° 1 min 397 W/m² 8,2 °C 12,4 °C 30,6 km/h (5 Bft)
14.09.2024 16:44 24,6 °C 17,1 °C 49 % 55 % 1024,4 hPa 0,0 l/m² 19,2 km/h (3 Bft) W-NW 303 ° 1 min 388 W/m² 8,0 °C 12,6 °C 33,8 km/h (5 Bft)
14.09.2024 16:45 24,7 °C 17,1 °C 48 % 55 % 1024,3 hPa 0,0 l/m² 15,5 km/h (3 Bft) NW 306 ° 1 min 387 W/m² 8,0 °C 13,6 °C 24,1 km/h (4 Bft)
14.09.2024 16:46 24,9 °C 17,1 °C 48 % 55 % 1024,2 hPa 0,0 l/m² 14,9 km/h (3 Bft) N 355 ° 1 min 383 W/m² 8,0 °C 13,8 °C 22,5 km/h (4 Bft)
14.09.2024 16:47 25,1 °C 17,1 °C 48 % 55 % 1024,2 hPa 0,0 l/m² 19,0 km/h (3 Bft) W-NW 296 ° 1 min 385 W/m² 8,0 °C 12,7 °C 32,2 km/h (5 Bft)
14.09.2024 16:48 25,3 °C 17,2 °C 47 % 54 % 1024,2 hPa 0,0 l/m² 21,1 km/h (4 Bft) N-NW 327 ° 1 min 385 W/m² 7,8 °C 12,3 °C 33,8 km/h (5 Bft)
14.09.2024 16:49 25,4 °C 17,1 °C 47 % 54 % 1024,4 hPa 0,0 l/m² 22,2 km/h (4 Bft) N-NW 339 ° 1 min 392 W/m² 7,7 °C 12,0 °C 32,2 km/h (5 Bft)
14.09.2024 16:50 25,6 °C 17,1 °C 47 % 55 % 1024,3 hPa 0,0 l/m² 15,4 km/h (3 Bft) N-NW 341 ° 1 min 392 W/m² 8,0 °C 13,6 °C 24,1 km/h (4 Bft)
14.09.2024 16:51 25,7 °C 17,2 °C 47 % 54 % 1024,4 hPa 0,0 l/m² 20,0 km/h (4 Bft) W-NW 290 ° 1 min 397 W/m² 7,8 °C 12,6 °C 32,2 km/h (5 Bft)
14.09.2024 16:52 25,9 °C 17,3 °C 46 % 54 % 1024,4 hPa 0,0 l/m² 13,1 km/h (3 Bft) N-NW 334 ° 1 min 408 W/m² 7,9 °C 14,6 °C 20,9 km/h (4 Bft)
14.09.2024 16:53 26,1 °C 17,3 °C 46 % 54 % 1024,4 hPa 0,0 l/m² 19,0 km/h (3 Bft) W-NW 290 ° 1 min 417 W/m² 7,9 °C 12,9 °C 40,2 km/h (6 Bft)
14.09.2024 16:54 26,2 °C 17,4 °C 46 % 53 % 1024,4 hPa 0,0 l/m² 16,0 km/h (3 Bft) NW 315 ° 1 min 146 W/m² 7,7 °C 13,8 °C 27,4 km/h (5 Bft)
14.09.2024 16:55 26,3 °C 17,4 °C 46 % 53 % 1024,4 hPa 0,0 l/m² 14,3 km/h (3 Bft) W-NW 300 ° 1 min 146 W/m² 7,7 °C 14,3 °C 25,7 km/h (4 Bft)
14.09.2024 16:56 26,5 °C 17,4 °C 45 % 53 % 1024,4 hPa 0,0 l/m² 17,0 km/h (3 Bft) W-NW 289 ° 1 min 388 W/m² 7,7 °C 13,6 °C 25,7 km/h (4 Bft)
14.09.2024 16:57 26,7 °C 17,3 °C 45 % 54 % 1024,4 hPa 0,0 l/m² 23,5 km/h (4 Bft) W 261 ° 1 min 318 W/m² 7,9 °C 12,0 °C 40,2 km/h (6 Bft)
14.09.2024 16:58 26,8 °C 17,3 °C 45 % 54 % 1024,3 hPa 0,0 l/m² 15,8 km/h (3 Bft) W-NW 292 ° 1 min 376 W/m² 7,9 °C 13,8 °C 25,7 km/h (4 Bft)
14.09.2024 16:59 27,0 °C 17,3 °C 45 % 54 % 1024,4 hPa 0,0 l/m² 14,6 km/h (3 Bft) NW 311 ° 1 min 294 W/m² 7,9 °C 14,1 °C 35,4 km/h (5 Bft)
14.09.2024 17:00 27,2 °C 17,3 °C 44 % 54 % 1024,4 hPa 0,0 l/m² 23,7 km/h (4 Bft) NW 304 ° 1 min 383 W/m² 7,9 °C 12,0 °C 37,0 km/h (5 Bft)
14.09.2024 17:01 27,4 °C 17,3 °C 44 % 54 % 1024,5 hPa 0,0 l/m² 22,3 km/h (4 Bft) NW 326 ° 1 min 378 W/m² 7,9 °C 12,2 °C 35,4 km/h (5 Bft)
14.09.2024 17:02 27,6 °C 17,2 °C 44 % 54 % 1024,6 hPa 0,0 l/m² 20,5 km/h (4 Bft) W-NW 290 ° 1 min 369 W/m² 7,8 °C 12,5 °C 33,8 km/h (5 Bft)
14.09.2024 17:03 27,8 °C 17,2 °C 44 % 54 % 1024,6 hPa 0,0 l/m² 16,7 km/h (3 Bft) N-NW 329 ° 1 min 366 W/m² 7,8 °C 13,4 °C 30,6 km/h (5 Bft)
14.09.2024 17:04 28,0 °C 17,2 °C 43 % 54 % 1024,5 hPa 0,0 l/m² 21,9 km/h (4 Bft) N 360 ° 1 min 364 W/m² 7,8 °C 12,2 °C 32,2 km/h (5 Bft)
14.09.2024 17:05 28,2 °C 17,2 °C 43 % 54 % 1024,6 hPa 0,0 l/m² 20,9 km/h (4 Bft) NW 313 ° 1 min 359 W/m² 7,8 °C 12,4 °C 33,8 km/h (5 Bft)
14.09.2024 17:06 28,4 °C 17,2 °C 43 % 54 % 1024,6 hPa 0,0 l/m² 20,9 km/h (4 Bft) W-NW 303 ° 1 min 366 W/m² 7,8 °C 12,4 °C 29,0 km/h (5 Bft)
14.09.2024 17:07 28,6 °C 17,2 °C 43 % 54 % 1024,6 hPa 0,0 l/m² 20,3 km/h (4 Bft) N-NW 331 ° 1 min 371 W/m² 7,8 °C 12,5 °C 25,7 km/h (4 Bft)
14.09.2024 17:08 28,7 °C 17,2 °C 42 % 55 % 1024,7 hPa 0,0 l/m² 23,5 km/h (4 Bft) W-NW 290 ° 1 min 373 W/m² 8,1 °C 11,9 °C 33,8 km/h (5 Bft)
14.09.2024 17:09 28,9 °C 17,2 °C 42 % 55 % 1024,6 hPa 0,0 l/m² 15,5 km/h (3 Bft) N-NW 340 ° 1 min 374 W/m² 8,1 °C 13,7 °C 33,8 km/h (5 Bft)
14.09.2024 17:10 29,1 °C 17,2 °C 42 % 55 % 1024,6 hPa 0,0 l/m² 20,1 km/h (4 Bft) W 267 ° 1 min 366 W/m² 8,1 °C 12,6 °C 30,6 km/h (5 Bft)
14.09.2024 17:11 29,3 °C 17,2 °C 42 % 55 % 1024,7 hPa 0,0 l/m² 24,1 km/h (4 Bft) N 355 ° 1 min 357 W/m² 8,1 °C 11,8 °C 33,8 km/h (5 Bft)
14.09.2024 17:12 29,4 °C 17,2 °C 41 % 54 % 1024,6 hPa 0,0 l/m² 19,0 km/h (3 Bft) W-NW 300 ° 1 min 332 W/m² 7,8 °C 12,8 °C 27,4 km/h (5 Bft)
14.09.2024 17:13 29,6 °C 17,2 °C 41 % 54 % 1024,6 hPa 0,0 l/m² 17,7 km/h (3 Bft) N-NW 327 ° 1 min 325 W/m² 7,8 °C 13,1 °C 25,7 km/h (4 Bft)
14.09.2024 17:14 29,7 °C 17,2 °C 41 % 54 % 1024,6 hPa 0,0 l/m² 20,3 km/h (4 Bft) NW 318 ° 1 min 322 W/m² 7,8 °C 12,5 °C 32,2 km/h (5 Bft)
14.09.2024 17:15 29,8 °C 17,1 °C 41 % 54 % 1024,5 hPa 0,0 l/m² 19,5 km/h (3 Bft) W-NW 292 ° 1 min 318 W/m² 7,7 °C 12,6 °C 29,0 km/h (5 Bft)
14.09.2024 17:16 29,9 °C 17,1 °C 41 % 54 % 1024,6 hPa 0,0 l/m² 20,8 km/h (4 Bft) N-NW 331 ° 1 min 315 W/m² 7,7 °C 12,3 °C 32,2 km/h (5 Bft)
14.09.2024 17:17 30,1 °C 17,2 °C 40 % 54 % 1024,6 hPa 0,0 l/m² 19,0 km/h (3 Bft) NW 322 ° 1 min 313 W/m² 7,8 °C 12,8 °C 30,6 km/h (5 Bft)
14.09.2024 17:18 30,2 °C 17,2 °C 40 % 54 % 1024,6 hPa 0,0 l/m² 18,1 km/h (3 Bft) N-NW 340 ° 1 min 315 W/m² 7,8 °C 13,0 °C 29,0 km/h (5 Bft)
14.09.2024 17:19 30,3 °C 17,2 °C 40 % 55 % 1024,7 hPa 0,0 l/m² 15,6 km/h (3 Bft) NW 315 ° 1 min 315 W/m² 8,1 °C 13,7 °C 29,0 km/h (5 Bft)
14.09.2024 17:20 30,4 °C 17,2 °C 40 % 54 % 1024,7 hPa 0,0 l/m² 20,5 km/h (4 Bft) N-NO 24 ° 1 min 315 W/m² 7,8 °C 12,5 °C 29,0 km/h (5 Bft)
14.09.2024 17:21 30,6 °C 17,2 °C 40 % 54 % 1024,8 hPa 0,0 l/m² 16,4 km/h (3 Bft) W 279 ° 1 min 322 W/m² 7,8 °C 13,5 °C 30,6 km/h (5 Bft)
14.09.2024 17:22 30,7 °C 17,2 °C 39 % 54 % 1024,7 hPa 0,0 l/m² 15,3 km/h (3 Bft) NW 317 ° 1 min 329 W/m² 7,8 °C 13,8 °C 24,1 km/h (4 Bft)
14.09.2024 17:23 30,8 °C 17,2 °C 39 % 54 % 1024,7 hPa 0,0 l/m² 13,4 km/h (3 Bft) NW 305 ° 1 min 334 W/m² 7,8 °C 14,3 °C 24,1 km/h (4 Bft)
14.09.2024 17:24 30,8 °C 17,2 °C 39 % 54 % 1024,6 hPa 0,0 l/m² 19,4 km/h (3 Bft) W 281 ° 1 min 334 W/m² 7,8 °C 12,7 °C 33,8 km/h (5 Bft)
14.09.2024 17:25 30,9 °C 17,1 °C 39 % 54 % 1024,7 hPa 0,0 l/m² 18,8 km/h (3 Bft) NW 323 ° 1 min 311 W/m² 7,7 °C 12,7 °C 30,6 km/h (5 Bft)
14.09.2024 17:26 31,0 °C 17,1 °C 39 % 53 % 1024,7 hPa 0,0 l/m² 24,0 km/h (4 Bft) N-NW 338 ° 1 min 301 W/m² 7,4 °C 11,6 °C 33,8 km/h (5 Bft)
14.09.2024 17:27 31,1 °C 17,0 °C 38 % 54 % 1024,7 hPa 0,0 l/m² 17,1 km/h (3 Bft) NW 319 ° 1 min 301 W/m² 7,6 °C 13,0 °C 24,1 km/h (4 Bft)
14.09.2024 17:28 31,1 °C 16,9 °C 38 % 54 % 1024,8 hPa 0,0 l/m² 18,5 km/h (3 Bft) NW 315 ° 1 min 301 W/m² 7,5 °C 12,6 °C 25,7 km/h (4 Bft)
14.09.2024 17:29 31,2 °C 16,9 °C 38 % 54 % 1024,7 hPa 0,0 l/m² 11,3 km/h (2 Bft) N 350 ° 1 min 283 W/m² 7,5 °C 14,7 °C 24,1 km/h (4 Bft)
14.09.2024 17:30 31,2 °C 16,9 °C 38 % 55 % 1024,7 hPa 0,0 l/m² 13,1 km/h (3 Bft) W-NW 295 ° 1 min 276 W/m² 7,8 °C 14,1 °C 22,5 km/h (4 Bft)
14.09.2024 17:31 31,2 °C 16,9 °C 38 % 55 % 1024,7 hPa 0,0 l/m² 16,9 km/h (3 Bft) N 355 ° 1 min 274 W/m² 7,8 °C 13,0 °C 35,4 km/h (5 Bft)
14.09.2024 17:32 31,3 °C 16,9 °C 38 % 54 % 1024,7 hPa 0,0 l/m² 19,7 km/h (3 Bft) W-NW 298 ° 1 min 267 W/m² 7,5 °C 12,3 °C 32,2 km/h (5 Bft)
14.09.2024 17:33 31,3 °C 16,8 °C 38 % 54 % 1024,7 hPa 0,0 l/m² 15,5 km/h (3 Bft) W-NW 297 ° 1 min 265 W/m² 7,4 °C 13,2 °C 30,6 km/h (5 Bft)
14.09.2024 17:34 31,3 °C 16,9 °C 37 % 54 % 1024,7 hPa 0,0 l/m² 17,8 km/h (3 Bft) NW 321 ° 1 min 258 W/m² 7,5 °C 12,7 °C 30,6 km/h (5 Bft)
14.09.2024 17:35 31,4 °C 16,8 °C 37 % 54 % 1024,7 hPa 0,0 l/m² 24,0 km/h (4 Bft) W-NW 296 ° 1 min 246 W/m² 7,4 °C 11,2 °C 41,8 km/h (6 Bft)
14.09.2024 17:36 31,4 °C 16,8 °C 37 % 54 % 1024,7 hPa 0,0 l/m² 20,9 km/h (4 Bft) W-NW 291 ° 1 min 251 W/m² 7,4 °C 11,9 °C 35,4 km/h (5 Bft)
14.09.2024 17:37 31,4 °C 16,7 °C 37 % 54 % 1024,8 hPa 0,0 l/m² 12,7 km/h (3 Bft) W 276 ° 1 min 248 W/m² 7,3 °C 14,0 °C 22,5 km/h (4 Bft)
14.09.2024 17:38 31,5 °C 16,7 °C 37 % 54 % 1024,8 hPa 0,0 l/m² 16,5 km/h (3 Bft) NW 320 ° 1 min 246 W/m² 7,3 °C 12,8 °C 27,4 km/h (5 Bft)
14.09.2024 17:39 31,5 °C 16,6 °C 37 % 54 % 1024,8 hPa 0,0 l/m² 21,5 km/h (4 Bft) W-NW 283 ° 1 min 236 W/m² 7,3 °C 11,5 °C 37,0 km/h (5 Bft)
14.09.2024 17:40 31,5 °C 16,6 °C 37 % 54 % 1024,8 hPa 0,0 l/m² 19,8 km/h (3 Bft) W-NW 295 ° 1 min 236 W/m² 7,3 °C 11,9 °C 32,2 km/h (5 Bft)
14.09.2024 17:41 31,6 °C 16,6 °C 37 % 54 % 1024,7 hPa 0,0 l/m² 14,3 km/h (3 Bft) W-NW 291 ° 1 min 236 W/m² 7,3 °C 13,3 °C 27,4 km/h (5 Bft)
14.09.2024 17:42 31,6 °C 16,6 °C 36 % 54 % 1024,9 hPa 0,0 l/m² 16,1 km/h (3 Bft) W-NW 297 ° 1 min 232 W/m² 7,3 °C 12,8 °C 22,5 km/h (4 Bft)
14.09.2024 17:43 31,6 °C 16,5 °C 36 % 55 % 1024,8 hPa 0,0 l/m² 15,3 km/h (3 Bft) NW 324 ° 1 min 230 W/m² 7,4 °C 12,9 °C 27,4 km/h (5 Bft)
14.09.2024 17:44 31,6 °C 16,6 °C 36 % 55 % 1024,8 hPa 0,0 l/m² 19,1 km/h (3 Bft) NW 324 ° 1 min 225 W/m² 7,5 °C 12,0 °C 32,2 km/h (5 Bft)
14.09.2024 17:45 31,6 °C 16,5 °C 36 % 54 % 1024,8 hPa 0,0 l/m² 26,8 km/h (4 Bft) N-NW 335 ° 1 min 162 W/m² 7,2 °C 10,3 °C 38,6 km/h (6 Bft)
14.09.2024 17:46 31,7 °C 16,4 °C 36 % 54 % 1024,9 hPa 0,0 l/m² 22,3 km/h (4 Bft) N 355 ° 1 min 220 W/m² 7,1 °C 11,0 °C 30,6 km/h (5 Bft)
14.09.2024 17:47 31,7 °C 16,4 °C 36 % 54 % 1024,9 hPa 0,0 l/m² 16,3 km/h (3 Bft) N-NW 331 ° 1 min 220 W/m² 7,1 °C 12,5 °C 25,7 km/h (4 Bft)
14.09.2024 17:48 31,7 °C 16,4 °C 36 % 55 % 1024,9 hPa 0,0 l/m² 16,1 km/h (3 Bft) N-NW 327 ° 1 min 134 W/m² 7,3 °C 12,6 °C 22,5 km/h (4 Bft)
14.09.2024 17:49 31,8 °C 16,4 °C 36 % 55 % 1024,9 hPa 0,0 l/m² 12,3 km/h (2 Bft) N-NW 337 ° 1 min 125 W/m² 7,3 °C 13,8 °C 17,7 km/h (3 Bft)
14.09.2024 17:50 31,8 °C 16,5 °C 36 % 55 % 1024,9 hPa 0,0 l/m² 14,4 km/h (3 Bft) NW 316 ° 1 min 200 W/m² 7,4 °C 13,2 °C 22,5 km/h (4 Bft)
14.09.2024 17:51 31,8 °C 16,6 °C 36 % 55 % 1024,9 hPa 0,0 l/m² 18,0 km/h (3 Bft) NW 317 ° 1 min 114 W/m² 7,5 °C 12,3 °C 27,4 km/h (5 Bft)
14.09.2024 17:52 31,9 °C 16,5 °C 36 % 54 % 1024,8 hPa 0,0 l/m² 16,4 km/h (3 Bft) N-NW 347 ° 1 min 74 W/m² 7,2 °C 12,6 °C 25,7 km/h (4 Bft)
14.09.2024 17:53 31,9 °C 16,5 °C 36 % 54 % 1024,8 hPa 0,0 l/m² 12,7 km/h (3 Bft) W 273 ° 1 min 197 W/m² 7,2 °C 13,8 °C 20,9 km/h (4 Bft)
14.09.2024 17:54 31,9 °C 16,4 °C 36 % 55 % 1025,0 hPa 0,0 l/m² 16,4 km/h (3 Bft) W 272 ° 1 min 181 W/m² 7,3 °C 12,5 °C 29,0 km/h (5 Bft)
14.09.2024 17:55 32,0 °C 16,4 °C 36 % 54 % 1024,8 hPa 0,0 l/m² 18,2 km/h (3 Bft) W 275 ° 1 min 181 W/m² 7,1 °C 12,0 °C 29,0 km/h (5 Bft)
14.09.2024 17:56 32,0 °C 16,4 °C 36 % 54 % 1024,9 hPa 0,0 l/m² 18,2 km/h (3 Bft) N-NW 331 ° 1 min 127 W/m² 7,1 °C 12,0 °C 30,6 km/h (5 Bft)
14.09.2024 17:57 32,1 °C 16,3 °C 36 % 54 % 1024,9 hPa 0,0 l/m² 22,9 km/h (4 Bft) NW 308 ° 1 min 69 W/m² 7,0 °C 10,8 °C 35,4 km/h (5 Bft)
14.09.2024 17:58 32,1 °C 16,3 °C 36 % 55 % 1024,9 hPa 0,0 l/m² 18,0 km/h (3 Bft) W-NW 292 ° 1 min 53 W/m² 7,2 °C 11,9 °C 25,7 km/h (4 Bft)
14.09.2024 17:59 32,1 °C 16,3 °C 36 % 55 % 1024,8 hPa 0,0 l/m² 21,0 km/h (4 Bft) W-NW 300 ° 1 min 77 W/m² 7,2 °C 11,2 °C 30,6 km/h (5 Bft)
14.09.2024 18:00 32,1 °C 16,2 °C 36 % 55 % 1024,9 hPa 0,0 l/m² 17,7 km/h (3 Bft) W 271 ° 1 min 90 W/m² 7,2 °C 11,9 °C 33,8 km/h (5 Bft)
14.09.2024 18:02 32,2 °C 16,3 °C 36 % 56 % 1024,8 hPa 0,0 l/m² 16,4 km/h (3 Bft) W-NW 284 ° 2 min 104 W/m² 7,5 °C 12,4 °C 25,7 km/h (4 Bft)
14.09.2024 18:03 32,2 °C 16,3 °C 36 % 55 % 1024,8 hPa 0,0 l/m² 14,0 km/h (3 Bft) N-NW 346 ° 1 min 95 W/m² 7,2 °C 13,1 °C 24,1 km/h (4 Bft)
14.09.2024 18:04 32,2 °C 16,4 °C 36 % 56 % 1024,9 hPa 0,0 l/m² 16,2 km/h (3 Bft) N-NW 346 ° 1 min 95 W/m² 7,6 °C 12,5 °C 27,4 km/h (5 Bft)
14.09.2024 18:05 32,2 °C 16,4 °C 35 % 56 % 1024,8 hPa 0,0 l/m² 20,9 km/h (4 Bft) W-NW 290 ° 1 min 86 W/m² 7,6 °C 11,3 °C 27,4 km/h (5 Bft)
14.09.2024 18:06 32,2 °C 16,4 °C 35 % 55 % 1024,8 hPa 0,0 l/m² 23,4 km/h (4 Bft) N-NW 343 ° 1 min 90 W/m² 7,3 °C 10,8 °C 40,2 km/h (6 Bft)
14.09.2024 18:07 32,3 °C 16,4 °C 35 % 55 % 1024,8 hPa 0,0 l/m² 16,0 km/h (3 Bft) W-SW 256 ° 1 min 79 W/m² 7,3 °C 12,6 °C 32,2 km/h (5 Bft)
14.09.2024 18:08 32,3 °C 16,4 °C 35 % 56 % 1024,8 hPa 0,0 l/m² 18,6 km/h (3 Bft) W-NW 298 ° 1 min 74 W/m² 7,6 °C 11,9 °C 24,1 km/h (4 Bft)
14.09.2024 18:09 32,3 °C 16,3 °C 35 % 56 % 1024,8 hPa 0,0 l/m² 12,0 km/h (2 Bft) W 277 ° 1 min 65 W/m² 7,5 °C 13,8 °C 27,4 km/h (5 Bft)
14.09.2024 18:10 32,3 °C 16,4 °C 35 % 56 % 1024,8 hPa 0,0 l/m² 15,5 km/h (3 Bft) NW 321 ° 1 min 56 W/m² 7,6 °C 12,7 °C 25,7 km/h (4 Bft)
14.09.2024 18:11 32,3 °C 16,4 °C 35 % 55 % 1024,8 hPa 0,0 l/m² 22,1 km/h (4 Bft) N 349 ° 0 min 42 W/m² 7,3 °C 11,1 °C 33,8 km/h (5 Bft)
14.09.2024 18:12 32,3 °C 16,3 °C 35 % 54 % 1024,9 hPa 0,0 l/m² 21,3 km/h (4 Bft) N-NW 330 ° 0 min 39 W/m² 7,0 °C 11,1 °C 27,4 km/h (5 Bft)
14.09.2024 18:13 32,3 °C 16,3 °C 35 % 54 % 1024,9 hPa 0,0 l/m² 22,9 km/h (4 Bft) NW 317 ° 0 min 37 W/m² 7,0 °C 10,8 °C 35,4 km/h (5 Bft)
14.09.2024 18:14 32,2 °C 16,3 °C 35 % 54 % 1024,9 hPa 0,0 l/m² 21,1 km/h (4 Bft) NW 320 ° 0 min 51 W/m² 7,0 °C 11,2 °C 30,6 km/h (5 Bft)
14.09.2024 18:15 32,3 °C 16,2 °C 35 % 54 % 1024,8 hPa 0,0 l/m² 24,5 km/h (4 Bft) N-NW 337 ° 0 min 35 W/m² 6,9 °C 10,3 °C 33,8 km/h (5 Bft)
14.09.2024 18:16 32,2 °C 16,2 °C 36 % 54 % 1024,9 hPa 0,0 l/m² 17,1 km/h (3 Bft) N-NW 346 ° 1 min 53 W/m² 6,9 °C 12,0 °C 24,1 km/h (4 Bft)
14.09.2024 18:17 32,2 °C 16,1 °C 36 % 55 % 1025,0 hPa 0,0 l/m² 22,3 km/h (4 Bft) N-NW 332 ° 0 min 37 W/m² 7,1 °C 10,6 °C 29,0 km/h (5 Bft)
14.09.2024 18:18 32,2 °C 16,1 °C 35 % 55 % 1025,0 hPa 0,0 l/m² 15,8 km/h (3 Bft) N-NW 333 ° 0 min 37 W/m² 7,1 °C 12,3 °C 22,5 km/h (4 Bft)
14.09.2024 18:19 32,2 °C 16,0 °C 35 % 55 % 1025,1 hPa 0,0 l/m² 13,6 km/h (3 Bft) N-NW 332 ° 0 min 35 W/m² 7,0 °C 12,9 °C 19,3 km/h (3 Bft)
14.09.2024 18:20 32,2 °C 16,0 °C 35 % 56 % 1025,1 hPa 0,0 l/m² 15,4 km/h (3 Bft) N-NW 342 ° 0 min 35 W/m² 7,2 °C 12,3 °C 25,7 km/h (4 Bft)
14.09.2024 18:21 32,2 °C 16,0 °C 35 % 55 % 1025,0 hPa 0,0 l/m² 16,2 km/h (3 Bft) N-NW 337 ° 0 min 35 W/m² 7,0 °C 12,0 °C 24,1 km/h (4 Bft)
14.09.2024 18:22 32,1 °C 15,9 °C 35 % 55 % 1025,2 hPa 0,0 l/m² 16,2 km/h (3 Bft) N-NW 330 ° 0 min 33 W/m² 6,9 °C 11,9 °C 27,4 km/h (5 Bft)
14.09.2024 18:23 32,1 °C 15,9 °C 35 % 56 % 1025,1 hPa 0,0 l/m² 13,5 km/h (3 Bft) W-NW 303 ° 0 min 33 W/m² 7,1 °C 12,8 °C 17,7 km/h (3 Bft)
14.09.2024 18:24 32,1 °C 15,9 °C 35 % 56 % 1025,1 hPa 0,0 l/m² 15,3 km/h (3 Bft) N-NW 342 ° 0 min 33 W/m² 7,1 °C 12,2 °C 22,5 km/h (4 Bft)
14.09.2024 18:25 32,1 °C 15,9 °C 35 % 55 % 1025,2 hPa 0,0 l/m² 19,0 km/h (3 Bft) W-NW 300 ° 0 min 33 W/m² 6,9 °C 11,2 °C 30,6 km/h (5 Bft)
14.09.2024 18:26 32,1 °C 15,8 °C 35 % 55 % 1025,1 hPa 0,0 l/m² 18,1 km/h (3 Bft) NW 315 ° 0 min 33 W/m² 6,8 °C 11,3 °C 27,4 km/h (5 Bft)
14.09.2024 18:27 32,1 °C 15,8 °C 35 % 55 % 1025,2 hPa 0,0 l/m² 18,6 km/h (3 Bft) N 355 ° 0 min 33 W/m² 6,8 °C 11,1 °C 25,7 km/h (4 Bft)
14.09.2024 18:28 32,1 °C 15,8 °C 35 % 55 % 1025,2 hPa 0,0 l/m² 18,9 km/h (3 Bft) W-NW 303 ° 0 min 39 W/m² 6,8 °C 11,1 °C 27,4 km/h (5 Bft)
14.09.2024 18:29 32,0 °C 15,8 °C 35 % 55 % 1025,2 hPa 0,0 l/m² 20,3 km/h (4 Bft) N-NW 329 ° 0 min 44 W/m² 6,8 °C 10,7 °C 30,6 km/h (5 Bft)
14.09.2024 18:30 32,1 °C 15,8 °C 35 % 55 % 1025,2 hPa 0,0 l/m² 24,2 km/h (4 Bft) N-NW 342 ° 0 min 39 W/m² 6,8 °C 9,9 °C 29,0 km/h (5 Bft)
14.09.2024 18:31 32,1 °C 15,7 °C 35 % 55 % 1025,2 hPa 0,0 l/m² 17,0 km/h (3 Bft) NW 322 ° 0 min 39 W/m² 6,7 °C 11,4 °C 27,4 km/h (5 Bft)
14.09.2024 18:32 32,0 °C 15,7 °C 35 % 55 % 1025,2 hPa 0,0 l/m² 15,0 km/h (3 Bft) N-NW 343 ° 0 min 40 W/m² 6,7 °C 12,0 °C 29,0 km/h (5 Bft)
14.09.2024 18:33 32,0 °C 15,7 °C 35 % 56 % 1025,2 hPa 0,0 l/m² 13,9 km/h (3 Bft) W-SW 248 ° 0 min 39 W/m² 6,9 °C 12,4 °C 22,5 km/h (4 Bft)
14.09.2024 18:34 31,9 °C 15,7 °C 35 % 56 % 1025,2 hPa 0,0 l/m² 16,5 km/h (3 Bft) W-NW 282 ° 0 min 42 W/m² 6,9 °C 11,6 °C 27,4 km/h (5 Bft)
14.09.2024 18:35 31,9 °C 15,7 °C 35 % 56 % 1025,2 hPa 0,0 l/m² 15,0 km/h (3 Bft) N-NW 337 ° 0 min 40 W/m² 6,9 °C 12,0 °C 20,9 km/h (4 Bft)
14.09.2024 18:36 32,0 °C 15,7 °C 35 % 56 % 1025,2 hPa 0,0 l/m² 8,8 km/h (2 Bft) W-SW 238 ° 0 min 37 W/m² 6,9 °C 14,4 °C 16,1 km/h (3 Bft)
14.09.2024 18:37 31,9 °C 15,7 °C 35 % 56 % 1025,1 hPa 0,0 l/m² 11,9 km/h (2 Bft) NW 323 ° 0 min 35 W/m² 6,9 °C 13,1 °C 17,7 km/h (3 Bft)
14.09.2024 18:38 31,9 °C 15,7 °C 35 % 57 % 1025,2 hPa 0,0 l/m² 6,8 km/h (2 Bft) NW 319 ° 0 min 35 W/m² 7,2 °C 15,5 °C 11,3 km/h (2 Bft)
14.09.2024 18:39 31,9 °C 15,6 °C 34 % 57 % 1025,2 hPa 0,0 l/m² 10,1 km/h (2 Bft) NW 322 ° 0 min 37 W/m² 7,1 °C 13,7 °C 19,3 km/h (3 Bft)
14.09.2024 18:40 31,8 °C 15,6 °C 34 % 57 % 1025,3 hPa 0,0 l/m² 18,4 km/h (3 Bft) W-NW 296 ° 0 min 33 W/m² 7,1 °C 10,9 °C 27,4 km/h (5 Bft)
14.09.2024 18:41 31,8 °C 15,6 °C 34 % 57 % 1025,2 hPa 0,0 l/m² 17,9 km/h (3 Bft) W-NW 295 ° 0 min 30 W/m² 7,1 °C 11,1 °C 30,6 km/h (5 Bft)
14.09.2024 18:42 31,8 °C 15,5 °C 34 % 57 % 1025,2 hPa 0,0 l/m² 14,1 km/h (3 Bft) N-NW 342 ° 0 min 28 W/m² 7,0 °C 12,1 °C 22,5 km/h (4 Bft)
14.09.2024 18:43 31,7 °C 15,5 °C 34 % 57 % 1025,2 hPa 0,0 l/m² 19,2 km/h (3 Bft) W-NW 296 ° 0 min 28 W/m² 7,0 °C 10,6 °C 27,4 km/h (5 Bft)
14.09.2024 18:44 31,7 °C 15,5 °C 34 % 57 % 1025,2 hPa 0,0 l/m² 19,6 km/h (3 Bft) NW 309 ° 0 min 25 W/m² 7,0 °C 10,5 °C 32,2 km/h (5 Bft)
14.09.2024 18:46 31,6 °C 15,4 °C 35 % 57 % 1025,2 hPa 0,0 l/m² 14,9 km/h (3 Bft) NW 323 ° 0 min 23 W/m² 6,9 °C 11,7 °C 24,1 km/h (4 Bft)
14.09.2024 18:47 31,6 °C 15,4 °C 35 % 57 % 1025,2 hPa 0,0 l/m² 14,4 km/h (3 Bft) N-NW 340 ° 0 min 23 W/m² 6,9 °C 11,9 °C 22,5 km/h (4 Bft)
14.09.2024 18:48 31,6 °C 15,3 °C 35 % 57 % 1025,2 hPa 0,0 l/m² 17,4 km/h (3 Bft) N-NW 331 ° 0 min 23 W/m² 6,8 °C 10,8 °C 24,1 km/h (4 Bft)
14.09.2024 18:49 31,6 °C 15,3 °C 35 % 57 % 1025,1 hPa 0,0 l/m² 12,6 km/h (3 Bft) NW 314 ° 0 min 21 W/m² 6,8 °C 12,4 °C 19,3 km/h (3 Bft)
14.09.2024 18:50 31,5 °C 15,3 °C 35 % 57 % 1025,1 hPa 0,0 l/m² 18,8 km/h (3 Bft) N-NW 334 ° 0 min 23 W/m² 6,8 °C 10,4 °C 27,4 km/h (5 Bft)
14.09.2024 18:51 31,5 °C 15,2 °C 35 % 57 % 1025,2 hPa 0,0 l/m² 19,1 km/h (3 Bft) N-NW 344 ° 0 min 21 W/m² 6,7 °C 10,2 °C 25,7 km/h (4 Bft)
14.09.2024 18:52 31,4 °C 15,2 °C 35 % 57 % 1025,1 hPa 0,0 l/m² 19,7 km/h (3 Bft) NW 316 ° 0 min 19 W/m² 6,7 °C 10,1 °C 27,4 km/h (5 Bft)
14.09.2024 18:53 31,4 °C 15,2 °C 35 % 57 % 1025,0 hPa 0,0 l/m² 16,0 km/h (3 Bft) N-NW 341 ° 0 min 18 W/m² 6,7 °C 11,1 °C 22,5 km/h (4 Bft)
14.09.2024 18:54 31,3 °C 15,2 °C 35 % 57 % 1025,1 hPa 0,0 l/m² 14,7 km/h (3 Bft) N-NW 333 ° 0 min 18 W/m² 6,7 °C 11,5 °C 19,3 km/h (3 Bft)
14.09.2024 18:55 31,3 °C 15,1 °C 35 % 58 % 1025,1 hPa 0,0 l/m² 13,2 km/h (3 Bft) N-NW 343 ° 0 min 18 W/m² 6,9 °C 11,9 °C 19,3 km/h (3 Bft)
14.09.2024 18:56 31,3 °C 15,1 °C 35 % 58 % 1025,2 hPa 0,0 l/m² 12,7 km/h (3 Bft) N 350 ° 0 min 18 W/m² 6,9 °C 12,1 °C 17,7 km/h (3 Bft)
14.09.2024 18:57 31,3 °C 15,1 °C 35 % 58 % 1025,2 hPa 0,0 l/m² 14,0 km/h (3 Bft) NW 309 ° 0 min 16 W/m² 6,9 °C 11,6 °C 20,9 km/h (4 Bft)
14.09.2024 18:58 31,2 °C 15,0 °C 35 % 58 % 1025,1 hPa 0,0 l/m² 15,6 km/h (3 Bft) NW 314 ° 0 min 16 W/m² 6,8 °C 11,0 °C 22,5 km/h (4 Bft)
14.09.2024 18:59 31,2 °C 14,9 °C 35 % 58 % 1025,1 hPa 0,0 l/m² 17,4 km/h (3 Bft) N 360 ° 0 min 16 W/m² 6,7 °C 10,3 °C 25,7 km/h (4 Bft)
14.09.2024 19:00 31,1 °C 14,9 °C 35 % 58 % 1025,0 hPa 0,0 l/m² 19,6 km/h (3 Bft) NW 309 ° 0 min 14 W/m² 6,7 °C 9,7 °C 22,5 km/h (4 Bft)
14.09.2024 19:01 31,1 °C 14,9 °C 35 % 58 % 1025,2 hPa 0,0 l/m² 15,8 km/h (3 Bft) N-NW 344 ° 0 min 14 W/m² 6,7 °C 10,8 °C 20,9 km/h (4 Bft)
14.09.2024 19:02 31,0 °C 14,9 °C 35 % 59 % 1025,2 hPa 0,0 l/m² 15,6 km/h (3 Bft) W-NW 287 ° 0 min 12 W/m² 7,0 °C 10,9 °C 22,5 km/h (4 Bft)
14.09.2024 19:03 31,0 °C 14,9 °C 35 % 59 % 1025,2 hPa 0,0 l/m² 13,4 km/h (3 Bft) NW 323 ° 0 min 12 W/m² 7,0 °C 11,6 °C 19,3 km/h (3 Bft)
14.09.2024 19:04 30,9 °C 14,8 °C 35 % 59 % 1025,2 hPa 0,0 l/m² 15,1 km/h (3 Bft) NW 312 ° 0 min 11 W/m² 6,9 °C 10,9 °C 20,9 km/h (4 Bft)
14.09.2024 19:05 30,9 °C 14,8 °C 35 % 59 % 1025,3 hPa 0,0 l/m² 13,9 km/h (3 Bft) N-NW 332 ° 0 min 11 W/m² 6,9 °C 11,3 °C 19,3 km/h (3 Bft)
14.09.2024 19:06 30,9 °C 14,8 °C 35 % 59 % 1025,3 hPa 0,0 l/m² 11,7 km/h (2 Bft) NW 311 ° 0 min 11 W/m² 6,9 °C 12,2 °C 20,9 km/h (4 Bft)
14.09.2024 19:07 30,8 °C 14,8 °C 35 % 59 % 1025,3 hPa 0,0 l/m² 10,0 km/h (2 Bft) W-NW 301 ° 0 min 9 W/m² 6,9 °C 12,9 °C 16,1 km/h (3 Bft)
14.09.2024 19:08 30,8 °C 14,7 °C 35 % 59 % 1025,3 hPa 0,0 l/m² 8,9 km/h (2 Bft) NW 316 ° 0 min 9 W/m² 6,8 °C 13,3 °C 19,3 km/h (3 Bft)
14.09.2024 19:09 30,7 °C 14,7 °C 35 % 59 % 1025,3 hPa 0,0 l/m² 10,4 km/h (2 Bft) N-NW 345 ° 0 min 9 W/m² 6,8 °C 12,6 °C 16,1 km/h (3 Bft)
14.09.2024 19:10 30,7 °C 14,6 °C 35 % 59 % 1025,3 hPa 0,0 l/m² 11,3 km/h (2 Bft) N-NW 343 ° 0 min 7 W/m² 6,7 °C 12,1 °C 17,7 km/h (3 Bft)
14.09.2024 19:11 30,7 °C 14,6 °C 35 % 59 % 1025,3 hPa 0,0 l/m² 13,9 km/h (3 Bft) NW 314 ° 0 min 7 W/m² 6,7 °C 11,1 °C 20,9 km/h (4 Bft)
14.09.2024 19:12 30,6 °C 14,6 °C 35 % 59 % 1025,3 hPa 0,0 l/m² 16,7 km/h (3 Bft) NW 325 ° 0 min 7 W/m² 6,7 °C 10,2 °C 20,9 km/h (4 Bft)
14.09.2024 19:13 30,6 °C 14,6 °C 36 % 59 % 1025,4 hPa 0,0 l/m² 14,9 km/h (3 Bft) NW 325 ° 0 min 7 W/m² 6,7 °C 10,7 °C 20,9 km/h (4 Bft)
14.09.2024 19:14 30,6 °C 14,5 °C 36 % 60 % 1025,4 hPa 0,0 l/m² 11,3 km/h (2 Bft) W-NW 291 ° 0 min 5 W/m² 6,8 °C 12,0 °C 17,7 km/h (3 Bft)
14.09.2024 19:15 30,6 °C 14,5 °C 36 % 60 % 1025,3 hPa 0,0 l/m² 12,5 km/h (2 Bft) N-NW 331 ° 0 min 5 W/m² 6,8 °C 11,5 °C 22,5 km/h (4 Bft)
14.09.2024 19:17 30,4 °C 14,4 °C 36 % 60 % 1025,4 hPa 0,0 l/m² 13,8 km/h (3 Bft) N-NW 338 ° 0 min 5 W/m² 6,7 °C 10,9 °C 22,5 km/h (4 Bft)
14.09.2024 19:18 30,4 °C 14,4 °C 36 % 60 % 1025,4 hPa 0,0 l/m² 19,2 km/h (3 Bft) W-NW 300 ° 0 min 5 W/m² 6,7 °C 9,2 °C 24,1 km/h (4 Bft)
14.09.2024 19:19 30,4 °C 14,4 °C 36 % 60 % 1025,3 hPa 0,0 l/m² 16,3 km/h (3 Bft) N-NW 333 ° 0 min 5 W/m² 6,7 °C 10,0 °C 25,7 km/h (4 Bft)
14.09.2024 19:20 30,4 °C 14,4 °C 36 % 60 % 1025,4 hPa 0,0 l/m² 15,0 km/h (3 Bft) N-NW 334 ° 0 min 5 W/m² 6,7 °C 10,5 °C 25,7 km/h (4 Bft)
14.09.2024 19:21 30,4 °C 14,3 °C 36 % 60 % 1025,4 hPa 0,0 l/m² 13,9 km/h (3 Bft) N-NO 22 ° 0 min 0 W/m² 6,6 °C 10,7 °C 19,3 km/h (3 Bft)
14.09.2024 19:22 30,3 °C 14,3 °C 36 % 60 % 1025,4 hPa 0,0 l/m² 10,0 km/h (2 Bft) NW 323 ° 0 min 0 W/m² 6,6 °C 12,3 °C 17,7 km/h (3 Bft)
14.09.2024 19:23 30,3 °C 14,3 °C 36 % 60 % 1025,4 hPa 0,0 l/m² 9,4 km/h (2 Bft) N-NW 340 ° 0 min 0 W/m² 6,6 °C 12,6 °C 14,5 km/h (3 Bft)
14.09.2024 19:24 30,3 °C 14,3 °C 36 % 60 % 1025,5 hPa 0,0 l/m² 12,7 km/h (3 Bft) N-NW 331 ° 0 min 0 W/m² 6,6 °C 11,2 °C 17,7 km/h (3 Bft)
14.09.2024 19:25 30,3 °C 14,2 °C 37 % 60 % 1025,4 hPa 0,0 l/m² 9,0 km/h (2 Bft) N-NW 331 ° 0 min 0 W/m² 6,5 °C 12,7 °C 17,7 km/h (3 Bft)
14.09.2024 19:26 30,3 °C 14,2 °C 37 % 60 % 1025,5 hPa 0,0 l/m² 12,7 km/h (3 Bft) NW 326 ° 0 min 0 W/m² 6,5 °C 11,1 °C 19,3 km/h (3 Bft)
14.09.2024 19:27 30,2 °C 14,2 °C 37 % 60 % 1025,4 hPa 0,0 l/m² 9,4 km/h (2 Bft) N-NW 328 ° 0 min 0 W/m² 6,5 °C 12,5 °C 17,7 km/h (3 Bft)
14.09.2024 19:28 30,2 °C 14,2 °C 37 % 61 % 1025,5 hPa 0,0 l/m² 11,2 km/h (2 Bft) NW 318 ° 0 min 0 W/m² 6,8 °C 11,7 °C 19,3 km/h (3 Bft)
14.09.2024 19:29 30,2 °C 14,2 °C 37 % 60 % 1025,4 hPa 0,0 l/m² 10,9 km/h (2 Bft) NW 319 ° 0 min 0 W/m² 6,5 °C 11,8 °C 19,3 km/h (3 Bft)
14.09.2024 19:30 30,2 °C 14,1 °C 37 % 61 % 1025,4 hPa 0,0 l/m² 9,5 km/h (2 Bft) W-NW 282 ° 0 min 0 W/m² 6,7 °C 12,4 °C 16,1 km/h (3 Bft)
14.09.2024 19:31 30,1 °C 14,1 °C 37 % 61 % 1025,4 hPa 0,0 l/m² 7,6 km/h (2 Bft) W-NW 300 ° 0 min 0 W/m² 6,7 °C 13,4 °C 11,3 km/h (2 Bft)
14.09.2024 19:32 30,1 °C 14,1 °C 37 % 61 % 1025,4 hPa 0,0 l/m² 8,5 km/h (2 Bft) NW 318 ° 0 min 0 W/m² 6,7 °C 12,9 °C 12,9 km/h (3 Bft)
14.09.2024 19:33 30,1 °C 13,9 °C 38 % 61 % 1025,4 hPa 0,0 l/m² 10,4 km/h (2 Bft) W-NW 286 ° 0 min 0 W/m² 6,5 °C 11,7 °C 14,5 km/h (3 Bft)
14.09.2024 19:34 30,0 °C 13,9 °C 38 % 61 % 1025,5 hPa 0,0 l/m² 6,6 km/h (2 Bft) NW 323 ° 0 min 0 W/m² 6,5 °C 13,8 °C 11,3 km/h (2 Bft)
14.09.2024 19:35 30,0 °C 13,9 °C 38 % 62 % 1025,5 hPa 0,0 l/m² 6,1 km/h (2 Bft) NW 313 ° 0 min 0 W/m² 6,7 °C 13,9 °C 12,9 km/h (3 Bft)
14.09.2024 19:36 29,9 °C 13,8 °C 38 % 62 % 1025,5 hPa 0,0 l/m² 6,0 km/h (2 Bft) NW 306 ° 0 min 0 W/m² 6,6 °C 13,8 °C 9,7 km/h (2 Bft)
14.09.2024 19:37 29,9 °C 13,8 °C 38 % 62 % 1025,5 hPa 0,0 l/m² 7,8 km/h (2 Bft) NW 323 ° 0 min 0 W/m² 6,6 °C 13,0 °C 12,9 km/h (3 Bft)
14.09.2024 19:38 29,9 °C 13,7 °C 38 % 62 % 1025,5 hPa 0,0 l/m² 7,3 km/h (2 Bft) W-NW 301 ° 0 min 0 W/m² 6,6 °C 13,2 °C 17,7 km/h (3 Bft)
14.09.2024 19:39 29,9 °C 13,7 °C 38 % 62 % 1025,6 hPa 0,0 l/m² 6,8 km/h (2 Bft) N-NW 334 ° 0 min 0 W/m² 6,6 °C 13,5 °C 9,7 km/h (2 Bft)
14.09.2024 19:40 29,8 °C 13,6 °C 38 % 63 % 1025,6 hPa 0,0 l/m² 6,8 km/h (2 Bft) N-NW 340 ° 0 min 0 W/m² 6,7 °C 13,4 °C 14,5 km/h (3 Bft)
14.09.2024 19:41 29,8 °C 13,6 °C 38 % 63 % 1025,6 hPa 0,0 l/m² 8,7 km/h (2 Bft) NW 306 ° 0 min 0 W/m² 6,7 °C 12,2 °C 12,9 km/h (3 Bft)
14.09.2024 19:42 29,8 °C 13,6 °C 39 % 63 % 1025,7 hPa 0,0 l/m² 6,8 km/h (2 Bft) N-NW 327 ° 0 min 0 W/m² 6,7 °C 13,4 °C 14,5 km/h (3 Bft)
14.09.2024 19:43 29,7 °C 13,5 °C 39 % 63 % 1025,7 hPa 0,0 l/m² 6,8 km/h (2 Bft) NW 320 ° 0 min 0 W/m² 6,6 °C 13,3 °C 12,9 km/h (3 Bft)
14.09.2024 19:44 29,7 °C 13,5 °C 39 % 63 % 1025,7 hPa 0,0 l/m² 6,1 km/h (2 Bft) NW 315 ° 0 min 0 W/m² 6,6 °C 13,5 °C 12,9 km/h (3 Bft)
14.09.2024 19:45 29,7 °C 13,4 °C 39 % 63 % 1025,7 hPa 0,0 l/m² 7,2 km/h (2 Bft) W-NW 294 ° 0 min 0 W/m² 6,5 °C 12,9 °C 12,9 km/h (3 Bft)
14.09.2024 19:47 29,6 °C 13,3 °C 39 % 64 % 1025,8 hPa 0,0 l/m² 7,7 km/h (2 Bft) N-NW 331 ° 0 min 0 W/m² 6,6 °C 12,5 °C 14,5 km/h (3 Bft)
14.09.2024 19:48 29,6 °C 13,3 °C 39 % 63 % 1025,8 hPa 0,0 l/m² 7,5 km/h (2 Bft) N-NW 339 ° 0 min 0 W/m² 6,4 °C 12,6 °C 9,7 km/h (2 Bft)
14.09.2024 19:49 29,5 °C 13,3 °C 39 % 63 % 1025,7 hPa 0,0 l/m² 9,5 km/h (2 Bft) W-NW 296 ° 0 min 0 W/m² 6,4 °C 11,5 °C 20,9 km/h (4 Bft)
14.09.2024 19:50 29,4 °C 13,3 °C 39 % 63 % 1025,7 hPa 0,0 l/m² 12,7 km/h (3 Bft) NW 321 ° 0 min 0 W/m² 6,4 °C 10,0 °C 17,7 km/h (3 Bft)
14.09.2024 19:51 29,4 °C 13,3 °C 39 % 63 % 1025,7 hPa 0,0 l/m² 9,6 km/h (2 Bft) NW 326 ° 0 min 0 W/m² 6,4 °C 11,4 °C 17,7 km/h (3 Bft)
14.09.2024 19:52 29,4 °C 13,3 °C 39 % 63 % 1025,6 hPa 0,0 l/m² 11,7 km/h (2 Bft) N-NW 336 ° 0 min 0 W/m² 6,4 °C 10,4 °C 16,1 km/h (3 Bft)
14.09.2024 19:53 29,3 °C 13,3 °C 39 % 63 % 1025,7 hPa 0,0 l/m² 11,0 km/h (2 Bft) N-NW 331 ° 0 min 0 W/m² 6,4 °C 10,8 °C 20,9 km/h (4 Bft)
14.09.2024 19:54 29,3 °C 13,3 °C 39 % 63 % 1025,7 hPa 0,0 l/m² 9,5 km/h (2 Bft) NW 325 ° 0 min 0 W/m² 6,4 °C 11,5 °C 14,5 km/h (3 Bft)
14.09.2024 19:55 29,3 °C 13,3 °C 39 % 63 % 1025,7 hPa 0,0 l/m² 9,3 km/h (2 Bft) N-NW 345 ° 0 min 0 W/m² 6,4 °C 11,6 °C 20,9 km/h (4 Bft)
14.09.2024 19:56 29,2 °C 13,3 °C 40 % 63 % 1025,7 hPa 0,0 l/m² 10,3 km/h (2 Bft) W-NW 299 ° 0 min 0 W/m² 6,4 °C 11,1 °C 16,1 km/h (3 Bft)
14.09.2024 19:57 29,2 °C 13,3 °C 40 % 63 % 1025,7 hPa 0,0 l/m² 7,6 km/h (2 Bft) W-NW 295 ° 0 min 0 W/m² 6,4 °C 12,6 °C 16,1 km/h (3 Bft)
14.09.2024 19:58 29,1 °C 13,3 °C 40 % 63 % 1025,7 hPa 0,0 l/m² 12,3 km/h (2 Bft) N-NW 330 ° 0 min 0 W/m² 6,4 °C 10,2 °C 20,9 km/h (4 Bft)
14.09.2024 19:59 29,1 °C 13,3 °C 40 % 63 % 1025,8 hPa 0,0 l/m² 7,0 km/h (2 Bft) W-NW 302 ° 0 min 0 W/m² 6,4 °C 12,9 °C 12,9 km/h (3 Bft)
14.09.2024 20:00 29,1 °C 13,3 °C 40 % 63 % 1025,8 hPa 0,0 l/m² 7,8 km/h (2 Bft) N-NW 331 ° 0 min 0 W/m² 6,4 °C 12,4 °C 12,9 km/h (3 Bft)
14.09.2024 20:01 29,0 °C 13,3 °C 40 % 64 % 1025,8 hPa 0,0 l/m² 10,7 km/h (2 Bft) W-NW 303 ° 0 min 0 W/m² 6,6 °C 10,9 °C 16,1 km/h (3 Bft)
14.09.2024 20:02 28,9 °C 13,3 °C 40 % 64 % 1025,9 hPa 0,0 l/m² 9,7 km/h (2 Bft) NW 311 ° 0 min 0 W/m² 6,6 °C 11,4 °C 14,5 km/h (3 Bft)
14.09.2024 20:03 28,9 °C 13,2 °C 40 % 64 % 1025,8 hPa 0,0 l/m² 10,1 km/h (2 Bft) W-NW 295 ° 0 min 0 W/m² 6,5 °C 11,1 °C 16,1 km/h (3 Bft)
14.09.2024 20:04 28,9 °C 13,2 °C 40 % 64 % 1025,9 hPa 0,0 l/m² 7,6 km/h (2 Bft) N-NW 329 ° 0 min 0 W/m² 6,5 °C 12,5 °C 14,5 km/h (3 Bft)
14.09.2024 20:05 28,8 °C 13,2 °C 40 % 64 % 1025,8 hPa 0,0 l/m² 7,5 km/h (2 Bft) N 9 ° 0 min 0 W/m² 6,5 °C 12,5 °C 14,5 km/h (3 Bft)
14.09.2024 20:06 28,8 °C 13,2 °C 40 % 64 % 1025,8 hPa 0,0 l/m² 9,7 km/h (2 Bft) W-NW 301 ° 0 min 0 W/m² 6,5 °C 11,3 °C 16,1 km/h (3 Bft)
14.09.2024 20:07 28,8 °C 13,1 °C 40 % 64 % 1025,8 hPa 0,0 l/m² 8,7 km/h (2 Bft) NW 315 ° 0 min 0 W/m² 6,4 °C 11,7 °C 12,9 km/h (3 Bft)
14.09.2024 20:08 28,8 °C 13,1 °C 41 % 64 % 1025,8 hPa 0,0 l/m² 9,7 km/h (2 Bft) NW 313 ° 0 min 0 W/m² 6,4 °C 11,2 °C 14,5 km/h (3 Bft)
14.09.2024 20:09 28,7 °C 13,1 °C 41 % 64 % 1025,7 hPa 0,0 l/m² 9,5 km/h (2 Bft) N-NW 333 ° 0 min 0 W/m² 6,4 °C 11,3 °C 16,1 km/h (3 Bft)
14.09.2024 20:10 28,8 °C 13,1 °C 41 % 64 % 1025,8 hPa 0,0 l/m² 9,7 km/h (2 Bft) W-NW 288 ° 0 min 0 W/m² 6,4 °C 11,2 °C 12,9 km/h (3 Bft)
14.09.2024 20:11 28,7 °C 13,1 °C 41 % 64 % 1025,8 hPa 0,0 l/m² 9,7 km/h (2 Bft) N-NW 340 ° 0 min 0 W/m² 6,4 °C 11,2 °C 14,5 km/h (3 Bft)
14.09.2024 20:12 28,7 °C 13,1 °C 41 % 64 % 1025,8 hPa 0,0 l/m² 8,9 km/h (2 Bft) NW 316 ° 0 min 0 W/m² 6,4 °C 11,6 °C 14,5 km/h (3 Bft)
14.09.2024 20:13 28,7 °C 13,1 °C 41 % 64 % 1025,7 hPa 0,0 l/m² 8,6 km/h (2 Bft) NW 317 ° 0 min 0 W/m² 6,4 °C 11,8 °C 17,7 km/h (3 Bft)
14.09.2024 20:14 28,7 °C 13,0 °C 41 % 65 % 1025,7 hPa 0,0 l/m² 10,2 km/h (2 Bft) W-NW 284 ° 0 min 0 W/m² 6,6 °C 10,8 °C 16,1 km/h (3 Bft)
14.09.2024 20:15 28,8 °C 12,9 °C 41 % 65 % 1025,8 hPa 0,0 l/m² 7,3 km/h (2 Bft) NW 312 ° 0 min 0 W/m² 6,5 °C 12,3 °C 12,9 km/h (3 Bft)
14.09.2024 20:16 28,7 °C 12,9 °C 41 % 65 % 1025,8 hPa 0,0 l/m² 5,7 km/h (2 Bft) W-NW 302 ° 0 min 0 W/m² 6,5 °C 12,9 °C 9,7 km/h (2 Bft)
14.09.2024 20:17 28,8 °C 12,9 °C 41 % 65 % 1025,8 hPa 0,0 l/m² 6,2 km/h (2 Bft) NW 304 ° 0 min 0 W/m² 6,5 °C 12,9 °C 12,9 km/h (3 Bft)
14.09.2024 20:18 28,8 °C 12,8 °C 41 % 65 % 1025,9 hPa 0,0 l/m² 8,8 km/h (2 Bft) NW 320 ° 0 min 0 W/m² 6,4 °C 11,3 °C 17,7 km/h (3 Bft)
14.09.2024 20:19 28,8 °C 12,8 °C 41 % 65 % 1025,8 hPa 0,0 l/m² 8,6 km/h (2 Bft) NW 315 ° 0 min 0 W/m² 6,4 °C 11,4 °C 14,5 km/h (3 Bft)
14.09.2024 20:20 28,8 °C 12,8 °C 41 % 65 % 1025,8 hPa 0,0 l/m² 4,9 km/h (1 Bft) N-NW 329 ° 0 min 0 W/m² 6,4 °C 12,8 °C 16,1 km/h (3 Bft)
14.09.2024 20:21 28,9 °C 12,8 °C 41 % 65 % 1025,9 hPa 0,0 l/m² 6,2 km/h (2 Bft) N-NW 327 ° 0 min 0 W/m² 6,4 °C 12,8 °C 12,9 km/h (3 Bft)
14.09.2024 20:22 28,8 °C 12,7 °C 41 % 65 % 1025,8 hPa 0,0 l/m² 7,3 km/h (2 Bft) NW 312 ° 0 min 0 W/m² 6,3 °C 12,1 °C 11,3 km/h (2 Bft)
14.09.2024 20:23 28,9 °C 12,7 °C 41 % 65 % 1025,9 hPa 0,0 l/m² 6,4 km/h (2 Bft) N-NW 327 ° 0 min 0 W/m² 6,3 °C 12,7 °C 9,7 km/h (2 Bft)
14.09.2024 20:24 28,9 °C 12,7 °C 41 % 66 % 1025,9 hPa 0,0 l/m² 6,5 km/h (2 Bft) W-NW 300 ° 0 min 0 W/m² 6,5 °C 12,7 °C 8,0 km/h (2 Bft)
14.09.2024 20:25 28,9 °C 12,7 °C 41 % 66 % 1025,9 hPa 0,0 l/m² 3,2 km/h (1 Bft) W-NW 302 ° 0 min 0 W/m² 6,5 °C 12,7 °C 6,4 km/h (2 Bft)
14.09.2024 20:26 28,9 °C 12,7 °C 41 % 66 % 1026,0 hPa 0,0 l/m² 7,0 km/h (2 Bft) NW 310 ° 0 min 0 W/m² 6,5 °C 12,3 °C 11,3 km/h (2 Bft)
14.09.2024 20:27 28,9 °C 12,6 °C 41 % 66 % 1025,9 hPa 0,0 l/m² 9,9 km/h (2 Bft) NW 313 ° 0 min 0 W/m² 6,4 °C 10,5 °C 14,5 km/h (3 Bft)
14.09.2024 20:28 28,9 °C 12,6 °C 41 % 66 % 1025,9 hPa 0,0 l/m² 8,7 km/h (2 Bft) N-NW 337 ° 0 min 0 W/m² 6,4 °C 11,2 °C 14,5 km/h (3 Bft)
14.09.2024 20:29 29,0 °C 12,6 °C 41 % 66 % 1026,0 hPa 0,0 l/m² 8,2 km/h (2 Bft) NW 324 ° 0 min 0 W/m² 6,4 °C 11,5 °C 12,9 km/h (3 Bft)
14.09.2024 20:30 29,0 °C 12,6 °C 41 % 66 % 1026,0 hPa 0,0 l/m² 5,8 km/h (2 Bft) W-NW 294 ° 0 min 0 W/m² 6,4 °C 12,6 °C 11,3 km/h (2 Bft)
14.09.2024 20:31 29,0 °C 12,6 °C 41 % 66 % 1026,0 hPa 0,0 l/m² 7,1 km/h (2 Bft) N-NW 327 ° 0 min 0 W/m² 6,4 °C 12,2 °C 12,9 km/h (3 Bft)
14.09.2024 20:32 29,0 °C 12,6 °C 42 % 66 % 1026,0 hPa 0,0 l/m² 4,8 km/h (1 Bft) NW 309 ° 0 min 0 W/m² 6,4 °C 12,6 °C 8,0 km/h (2 Bft)
14.09.2024 20:33 29,1 °C 12,6 °C 42 % 66 % 1025,9 hPa 0,0 l/m² 6,2 km/h (2 Bft) N-NW 333 ° 0 min 0 W/m² 6,4 °C 12,6 °C 12,9 km/h (3 Bft)
14.09.2024 20:34 29,1 °C 12,6 °C 42 % 66 % 1026,0 hPa 0,0 l/m² 7,4 km/h (2 Bft) NW 309 ° 0 min 0 W/m² 6,4 °C 12,0 °C 11,3 km/h (2 Bft)
14.09.2024 20:35 29,1 °C 12,5 °C 42 % 66 % 1026,0 hPa 0,0 l/m² 4,6 km/h (1 Bft) W-NW 290 ° 0 min 0 W/m² 6,3 °C 12,5 °C 9,7 km/h (2 Bft)
14.09.2024 20:36 29,1 °C 12,5 °C 42 % 66 % 1026,0 hPa 0,0 l/m² 4,8 km/h (1 Bft) W-NW 283 ° 0 min 0 W/m² 6,3 °C 12,5 °C 11,3 km/h (2 Bft)
14.09.2024 20:37 29,2 °C 12,4 °C 42 % 66 % 1025,9 hPa 0,0 l/m² 5,8 km/h (2 Bft) W 267 ° 0 min 0 W/m² 6,2 °C 12,4 °C 9,7 km/h (2 Bft)
14.09.2024 20:38 29,2 °C 12,4 °C 42 % 66 % 1025,9 hPa 0,0 l/m² 4,2 km/h (1 Bft) W 270 ° 0 min 0 W/m² 6,2 °C 12,4 °C 9,7 km/h (2 Bft)
14.09.2024 20:39 29,3 °C 12,4 °C 42 % 67 % 1025,9 hPa 0,0 l/m² 5,9 km/h (2 Bft) NW 317 ° 0 min 0 W/m² 6,4 °C 12,4 °C 11,3 km/h (2 Bft)
14.09.2024 20:40 29,3 °C 12,4 °C 41 % 67 % 1025,9 hPa 0,0 l/m² 5,5 km/h (2 Bft) W-NW 287 ° 0 min 0 W/m² 6,4 °C 12,4 °C 9,7 km/h (2 Bft)
14.09.2024 20:41 29,4 °C 12,3 °C 41 % 67 % 1025,9 hPa 0,0 l/m² 4,4 km/h (1 Bft) W-NW 288 ° 0 min 0 W/m² 6,4 °C 12,3 °C 8,0 km/h (2 Bft)
14.09.2024 20:42 29,4 °C 12,3 °C 41 % 67 % 1026,0 hPa 0,0 l/m² 4,4 km/h (1 Bft) N-NW 329 ° 0 min 0 W/m² 6,4 °C 12,3 °C 8,0 km/h (2 Bft)
14.09.2024 20:43 29,4 °C 12,2 °C 41 % 67 % 1025,9 hPa 0,0 l/m² 3,5 km/h (1 Bft) W-NW 292 ° 0 min 0 W/m² 6,3 °C 12,2 °C 6,4 km/h (2 Bft)
14.09.2024 20:44 29,5 °C 12,2 °C 41 % 67 % 1025,9 hPa 0,0 l/m² 3,4 km/h (1 Bft) NW 311 ° 0 min 0 W/m² 6,3 °C 12,2 °C 6,4 km/h (2 Bft)
14.09.2024 20:45 29,6 °C 12,2 °C 41 % 67 % 1025,9 hPa 0,0 l/m² 3,0 km/h (1 Bft) W-NW 299 ° 0 min 0 W/m² 6,3 °C 12,2 °C 6,4 km/h (2 Bft)
14.09.2024 20:46 29,6 °C 12,1 °C 41 % 67 % 1026,0 hPa 0,0 l/m² 2,9 km/h (1 Bft) NW 311 ° 0 min 0 W/m² 6,2 °C 12,1 °C 4,8 km/h (1 Bft)
14.09.2024 20:47 29,6 °C 12,1 °C 41 % 68 % 1025,9 hPa 0,0 l/m² 4,2 km/h (1 Bft) W-NW 297 ° 0 min 0 W/m² 6,4 °C 12,1 °C 6,4 km/h (2 Bft)
14.09.2024 20:48 29,7 °C 12,0 °C 41 % 68 % 1025,9 hPa 0,0 l/m² 3,6 km/h (1 Bft) W-NW 302 ° 0 min 0 W/m² 6,3 °C 12,0 °C 6,4 km/h (2 Bft)
14.09.2024 20:49 29,7 °C 12,0 °C 41 % 68 % 1026,0 hPa 0,0 l/m² 4,1 km/h (1 Bft) NW 308 ° 0 min 0 W/m² 6,3 °C 12,0 °C 6,4 km/h (2 Bft)
14.09.2024 20:50 29,7 °C 11,9 °C 41 % 68 % 1026,0 hPa 0,0 l/m² 4,7 km/h (1 Bft) N-NW 330 ° 0 min 0 W/m² 6,2 °C 11,9 °C 9,7 km/h (2 Bft)
14.09.2024 20:52 29,8 °C 11,9 °C 41 % 68 % 1026,0 hPa 0,0 l/m² 7,1 km/h (2 Bft) W-NW 298 ° 0 min 0 W/m² 6,2 °C 11,4 °C 14,5 km/h (3 Bft)
14.09.2024 20:53 29,8 °C 11,9 °C 41 % 68 % 1026,0 hPa 0,0 l/m² 3,1 km/h (1 Bft) W-NW 298 ° 0 min 0 W/m² 6,2 °C 11,9 °C 4,8 km/h (1 Bft)
14.09.2024 20:54 29,8 °C 11,8 °C 41 % 69 % 1026,0 hPa 0,0 l/m² 5,7 km/h (2 Bft) NW 307 ° 0 min 0 W/m² 6,3 °C 11,8 °C 8,0 km/h (2 Bft)
14.09.2024 20:55 29,8 °C 11,8 °C 41 % 69 % 1026,0 hPa 0,0 l/m² 3,3 km/h (1 Bft) W 267 ° 0 min 0 W/m² 6,3 °C 11,8 °C 4,8 km/h (1 Bft)
14.09.2024 20:56 29,8 °C 11,8 °C 41 % 69 % 1026,1 hPa 0,0 l/m² 4,4 km/h (1 Bft) W-NW 288 ° 0 min 0 W/m² 6,3 °C 11,8 °C 9,7 km/h (2 Bft)
14.09.2024 20:58 29,9 °C 11,7 °C 41 % 69 % 1026,1 hPa 0,0 l/m² 4,2 km/h (1 Bft) W-NW 289 ° 0 min 0 W/m² 6,2 °C 11,7 °C 6,4 km/h (2 Bft)
14.09.2024 20:59 29,9 °C 11,6 °C 40 % 69 % 1026,1 hPa 0,0 l/m² 6,0 km/h (2 Bft) NW 305 ° 0 min 0 W/m² 6,1 °C 11,6 °C 11,3 km/h (2 Bft)
14.09.2024 21:00 29,9 °C 11,6 °C 40 % 69 % 1026,1 hPa 0,0 l/m² 4,3 km/h (1 Bft) W-NW 296 ° 0 min 0 W/m² 6,1 °C 11,6 °C 6,4 km/h (2 Bft)
14.09.2024 21:01 29,9 °C 11,5 °C 40 % 70 % 1026,0 hPa 0,0 l/m² 2,9 km/h (1 Bft) W-NW 302 ° 0 min 0 W/m² 6,2 °C 11,5 °C 4,8 km/h (1 Bft)
14.09.2024 21:02 29,9 °C 11,5 °C 40 % 70 % 1026,1 hPa 0,0 l/m² 5,6 km/h (2 Bft) W-NW 302 ° 0 min 0 W/m² 6,2 °C 11,5 °C 9,7 km/h (2 Bft)
14.09.2024 21:03 29,9 °C 11,5 °C 40 % 70 % 1026,1 hPa 0,0 l/m² 1,3 km/h (1 Bft) W-NW 303 ° 0 min 0 W/m² 6,2 °C 11,5 °C 6,4 km/h (2 Bft)
14.09.2024 21:04 29,9 °C 11,4 °C 40 % 70 % 1026,1 hPa 0,0 l/m² 4,6 km/h (1 Bft) N-NW 336 ° 0 min 0 W/m² 6,1 °C 11,4 °C 8,0 km/h (2 Bft)
14.09.2024 21:05 29,9 °C 11,4 °C 40 % 70 % 1026,0 hPa 0,0 l/m² 3,2 km/h (1 Bft) NW 307 ° 0 min 0 W/m² 6,1 °C 11,4 °C 4,8 km/h (1 Bft)
14.09.2024 21:06 29,9 °C 11,4 °C 40 % 70 % 1026,0 hPa 0,0 l/m² 3,3 km/h (1 Bft) W-NW 296 ° 0 min 0 W/m² 6,1 °C 11,4 °C 6,4 km/h (2 Bft)
14.09.2024 21:07 30,0 °C 11,4 °C 40 % 71 % 1026,1 hPa 0,0 l/m² 0,1 km/h (0 Bft) W-NW 296 ° 0 min 0 W/m² 6,3 °C 11,4 °C 1,6 km/h (1 Bft)
14.09.2024 21:08 30,0 °C 11,3 °C 40 % 71 % 1026,1 hPa 0,0 l/m² 0,9 km/h (0 Bft) W-NW 300 ° 0 min 0 W/m² 6,2 °C 11,3 °C 3,2 km/h (1 Bft)
14.09.2024 21:09 30,0 °C 11,3 °C 40 % 71 % 1026,0 hPa 0,0 l/m² 2,3 km/h (1 Bft) W-NW 288 ° 0 min 0 W/m² 6,2 °C 11,3 °C 3,2 km/h (1 Bft)
14.09.2024 21:10 30,1 °C 11,3 °C 40 % 71 % 1026,0 hPa 0,0 l/m² 2,4 km/h (1 Bft) W-NW 292 ° 0 min 0 W/m² 6,2 °C 11,3 °C 4,8 km/h (1 Bft)
14.09.2024 21:11 30,1 °C 11,2 °C 40 % 71 % 1025,9 hPa 0,0 l/m² 1,3 km/h (1 Bft) W-NW 284 ° 0 min 0 W/m² 6,1 °C 11,2 °C 4,8 km/h (1 Bft)
14.09.2024 21:12 30,1 °C 11,2 °C 40 % 71 % 1025,9 hPa 0,0 l/m² 1,8 km/h (1 Bft) W-NW 299 ° 0 min 0 W/m² 6,1 °C 11,2 °C 6,4 km/h (2 Bft)
14.09.2024 21:13 30,2 °C 11,2 °C 40 % 71 % 1026,0 hPa 0,0 l/m² 1,5 km/h (1 Bft) W-NW 291 ° 0 min 0 W/m² 6,1 °C 11,2 °C 4,8 km/h (1 Bft)
14.09.2024 21:14 30,2 °C 11,2 °C 40 % 71 % 1026,0 hPa 0,0 l/m² 0,5 km/h (0 Bft) W-NW 291 ° 0 min 0 W/m² 6,1 °C 11,2 °C 1,6 km/h (1 Bft)
14.09.2024 21:15 30,2 °C 11,2 °C 40 % 71 % 1025,9 hPa 0,0 l/m² 0,5 km/h (0 Bft) W-NW 288 ° 0 min 0 W/m² 6,1 °C 11,2 °C 3,2 km/h (1 Bft)
14.09.2024 21:16 30,3 °C 11,1 °C 40 % 72 % 1025,9 hPa 0,0 l/m² 0,5 km/h (0 Bft) W-NW 286 ° 0 min 0 W/m² 6,2 °C 11,1 °C 3,2 km/h (1 Bft)
14.09.2024 21:17 30,3 °C 11,1 °C 40 % 71 % 1026,0 hPa 0,0 l/m² 3,2 km/h (1 Bft) W 278 ° 0 min 0 W/m² 6,0 °C 11,1 °C 6,4 km/h (2 Bft)
14.09.2024 21:18 30,3 °C 11,1 °C 40 % 72 % 1025,9 hPa 0,0 l/m² 1,1 km/h (1 Bft) W-NW 298 ° 0 min 0 W/m² 6,2 °C 11,1 °C 4,8 km/h (1 Bft)
14.09.2024 21:19 30,3 °C 11,0 °C 40 % 72 % 1025,9 hPa 0,0 l/m² 2,1 km/h (1 Bft) W-NW 290 ° 0 min 0 W/m² 6,2 °C 11,0 °C 4,8 km/h (1 Bft)
14.09.2024 21:20 30,4 °C 10,9 °C 39 % 72 % 1025,9 hPa 0,0 l/m² 3,7 km/h (1 Bft) W-NW 288 ° 0 min 0 W/m² 6,1 °C 10,9 °C 6,4 km/h (2 Bft)
14.09.2024 21:21 30,4 °C 11,0 °C 39 % 72 % 1025,9 hPa 0,0 l/m² 1,7 km/h (1 Bft) NW 312 ° 0 min 0 W/m² 6,2 °C 11,0 °C 4,8 km/h (1 Bft)
14.09.2024 21:22 30,4 °C 10,9 °C 39 % 72 % 1026,0 hPa 0,0 l/m² 3,7 km/h (1 Bft) W 269 ° 0 min 0 W/m² 6,1 °C 10,9 °C 11,3 km/h (2 Bft)
14.09.2024 21:23 30,4 °C 10,9 °C 39 % 72 % 1025,9 hPa 0,0 l/m² 1,6 km/h (1 Bft) W 274 ° 0 min 0 W/m² 6,1 °C 10,9 °C 4,8 km/h (1 Bft)
14.09.2024 21:24 30,4 °C 10,9 °C 39 % 72 % 1025,9 hPa 0,0 l/m² 1,4 km/h (1 Bft) W 275 ° 0 min 0 W/m² 6,1 °C 10,9 °C 3,2 km/h (1 Bft)
14.09.2024 21:25 30,4 °C 10,9 °C 39 % 72 % 1025,9 hPa 0,0 l/m² 2,7 km/h (1 Bft) W-NW 289 ° 0 min 0 W/m² 6,1 °C 10,9 °C 4,8 km/h (1 Bft)
14.09.2024 21:26 30,5 °C 10,9 °C 39 % 72 % 1025,9 hPa 0,0 l/m² 1,4 km/h (1 Bft) W-NW 289 ° 0 min 0 W/m² 6,1 °C 10,9 °C 4,8 km/h (1 Bft)
14.09.2024 21:27 30,5 °C 10,8 °C 39 % 72 % 1026,0 hPa 0,0 l/m² 0,9 km/h (0 Bft) W-NW 289 ° 0 min 0 W/m² 6,0 °C 10,8 °C 3,2 km/h (1 Bft)
14.09.2024 21:28 30,6 °C 10,8 °C 39 % 72 % 1026,0 hPa 0,0 l/m² 1,9 km/h (1 Bft) W-NW 289 ° 0 min 0 W/m² 6,0 °C 10,8 °C 4,8 km/h (1 Bft)
14.09.2024 21:29 30,6 °C 10,7 °C 39 % 73 % 1026,0 hPa 0,0 l/m² 1,3 km/h (1 Bft) W-NW 290 ° 0 min 0 W/m² 6,1 °C 10,7 °C 6,4 km/h (2 Bft)
14.09.2024 21:30 30,6 °C 10,7 °C 39 % 73 % 1026,0 hPa 0,0 l/m² 0,7 km/h (0 Bft) W-NW 290 ° 0 min 0 W/m² 6,1 °C 10,7 °C 3,2 km/h (1 Bft)
14.09.2024 21:31 30,6 °C 10,7 °C 39 % 73 % 1026,0 hPa 0,0 l/m² 2,7 km/h (1 Bft) W-NW 290 ° 0 min 0 W/m² 6,1 °C 10,7 °C 4,8 km/h (1 Bft)
14.09.2024 21:33 30,6 °C 10,7 °C 39 % 73 % 1026,0 hPa 0,0 l/m² 0,6 km/h (0 Bft) W-NW 290 ° 0 min 0 W/m² 6,1 °C 10,7 °C 3,2 km/h (1 Bft)
14.09.2024 21:34 30,6 °C 10,7 °C 39 % 73 % 1026,0 hPa 0,0 l/m² 1,6 km/h (1 Bft) W-NW 290 ° 0 min 0 W/m² 6,1 °C 10,7 °C 4,8 km/h (1 Bft)
14.09.2024 21:35 30,6 °C 10,7 °C 39 % 73 % 1026,0 hPa 0,0 l/m² 1,0 km/h (0 Bft) W-NW 290 ° 0 min 0 W/m² 6,1 °C 10,7 °C 3,2 km/h (1 Bft)
14.09.2024 21:36 30,6 °C 10,7 °C 40 % 73 % 1026,1 hPa 0,0 l/m² 1,3 km/h (1 Bft) W-NW 290 ° 0 min 0 W/m² 6,1 °C 10,7 °C 3,2 km/h (1 Bft)
14.09.2024 21:37 30,7 °C 10,6 °C 40 % 73 % 1026,0 hPa 0,0 l/m² 4,4 km/h (1 Bft) NW 306 ° 0 min 0 W/m² 6,0 °C 10,6 °C 8,0 km/h (2 Bft)
14.09.2024 21:38 30,6 °C 10,6 °C 40 % 73 % 1026,0 hPa 0,0 l/m² 1,8 km/h (1 Bft) NW 306 ° 0 min 0 W/m² 6,0 °C 10,6 °C 4,8 km/h (1 Bft)
14.09.2024 21:39 30,6 °C 10,6 °C 40 % 73 % 1026,1 hPa 0,0 l/m² 4,3 km/h (1 Bft) NW 304 ° 0 min 0 W/m² 6,0 °C 10,6 °C 8,0 km/h (2 Bft)
14.09.2024 21:40 30,6 °C 10,6 °C 40 % 74 % 1026,1 hPa 0,0 l/m² 3,9 km/h (1 Bft) W-NW 298 ° 0 min 0 W/m² 6,2 °C 10,6 °C 6,4 km/h (2 Bft)
14.09.2024 21:41 30,6 °C 10,6 °C 40 % 74 % 1026,0 hPa 0,0 l/m² 4,0 km/h (1 Bft) NW 313 ° 0 min 0 W/m² 6,2 °C 10,6 °C 6,4 km/h (2 Bft)
14.09.2024 21:42 30,6 °C 10,6 °C 40 % 74 % 1026,1 hPa 0,0 l/m² 2,0 km/h (1 Bft) W-NW 298 ° 0 min 0 W/m² 6,2 °C 10,6 °C 3,2 km/h (1 Bft)
14.09.2024 21:43 30,6 °C 10,6 °C 40 % 74 % 1026,1 hPa 0,0 l/m² 2,7 km/h (1 Bft) W-NW 300 ° 0 min 0 W/m² 6,2 °C 10,6 °C 12,9 km/h (3 Bft)
14.09.2024 21:44 30,6 °C 10,6 °C 40 % 74 % 1026,1 hPa 0,0 l/m² 0,6 km/h (0 Bft) W-NW 300 ° 0 min 0 W/m² 6,2 °C 10,6 °C 1,6 km/h (1 Bft)
14.09.2024 21:46 30,6 °C 10,4 °C 40 % 74 % 1026,0 hPa 0,0 l/m² 3,5 km/h (1 Bft) NW 312 ° 0 min 0 W/m² 6,0 °C 10,4 °C 6,4 km/h (2 Bft)
14.09.2024 21:47 30,6 °C 10,4 °C 40 % 74 % 1026,0 hPa 0,0 l/m² 2,6 km/h (1 Bft) NW 306 ° 0 min 0 W/m² 6,0 °C 10,4 °C 8,0 km/h (2 Bft)
14.09.2024 21:48 30,6 °C 10,4 °C 40 % 74 % 1026,0 hPa 0,0 l/m² 1,1 km/h (1 Bft) W-NW 290 ° 0 min 0 W/m² 6,0 °C 10,4 °C 4,8 km/h (1 Bft)
14.09.2024 21:49 30,6 °C 10,4 °C 40 % 74 % 1026,0 hPa 0,0 l/m² 1,9 km/h (1 Bft) W-NW 291 ° 0 min 0 W/m² 6,0 °C 10,4 °C 3,2 km/h (1 Bft)
14.09.2024 21:50 30,6 °C 10,4 °C 40 % 74 % 1026,0 hPa 0,0 l/m² 0,5 km/h (0 Bft) W-NW 291 ° 0 min 0 W/m² 6,0 °C 10,4 °C 3,2 km/h (1 Bft)
14.09.2024 21:51 30,6 °C 10,4 °C 40 % 74 % 1025,9 hPa 0,0 l/m² 1,3 km/h (1 Bft) W-NW 294 ° 0 min 0 W/m² 6,0 °C 10,4 °C 4,8 km/h (1 Bft)
14.09.2024 21:52 30,6 °C 10,4 °C 40 % 74 % 1025,9 hPa 0,0 l/m² 1,7 km/h (1 Bft) W-SW 247 ° 0 min 0 W/m² 6,0 °C 10,4 °C 4,8 km/h (1 Bft)
14.09.2024 21:53 30,6 °C 10,4 °C 40 % 74 % 1026,0 hPa 0,0 l/m² 2,3 km/h (1 Bft) W 265 ° 0 min 0 W/m² 6,0 °C 10,4 °C 6,4 km/h (2 Bft)
14.09.2024 21:54 30,5 °C 10,4 °C 40 % 74 % 1025,9 hPa 0,0 l/m² 3,0 km/h (1 Bft) W 266 ° 0 min 0 W/m² 6,0 °C 10,4 °C 4,8 km/h (1 Bft)
14.09.2024 21:55 30,5 °C 10,4 °C 40 % 74 % 1026,0 hPa 0,0 l/m² 2,7 km/h (1 Bft) W 267 ° 0 min 0 W/m² 6,0 °C 10,4 °C 4,8 km/h (1 Bft)
14.09.2024 21:56 30,4 °C 10,4 °C 40 % 74 % 1026,0 hPa 0,0 l/m² 2,3 km/h (1 Bft) W 274 ° 0 min 0 W/m² 6,0 °C 10,4 °C 6,4 km/h (2 Bft)
14.09.2024 21:57 30,4 °C 10,4 °C 40 % 74 % 1025,9 hPa 0,0 l/m² 3,0 km/h (1 Bft) W-SW 257 ° 0 min 0 W/m² 6,0 °C 10,4 °C 6,4 km/h (2 Bft)
14.09.2024 21:58 30,4 °C 10,4 °C 40 % 74 % 1026,0 hPa 0,0 l/m² 2,5 km/h (1 Bft) W 277 ° 0 min 0 W/m² 6,0 °C 10,4 °C 6,4 km/h (2 Bft)
14.09.2024 21:59 30,4 °C 10,4 °C 40 % 74 % 1026,0 hPa 0,0 l/m² 3,0 km/h (1 Bft) W-NW 283 ° 0 min 0 W/m² 6,0 °C 10,4 °C 9,7 km/h (2 Bft)
14.09.2024 22:00 30,4 °C 10,3 °C 40 % 74 % 1026,0 hPa 0,0 l/m² 1,5 km/h (1 Bft) W-NW 283 ° 0 min 0 W/m² 5,9 °C 10,3 °C 3,2 km/h (1 Bft)
14.09.2024 22:01 30,3 °C 10,3 °C 40 % 74 % 1026,0 hPa 0,0 l/m² 2,7 km/h (1 Bft) W-NW 284 ° 0 min 0 W/m² 5,9 °C 10,3 °C 6,4 km/h (2 Bft)
14.09.2024 22:02 30,3 °C 10,3 °C 40 % 74 % 1026,1 hPa 0,0 l/m² 2,6 km/h (1 Bft) W-NW 284 ° 0 min 0 W/m² 5,9 °C 10,3 °C 4,8 km/h (1 Bft)
14.09.2024 22:03 30,3 °C 10,4 °C 40 % 74 % 1026,1 hPa 0,0 l/m² 1,3 km/h (1 Bft) W-NW 284 ° 0 min 0 W/m² 6,0 °C 10,4 °C 4,8 km/h (1 Bft)
14.09.2024 22:04 30,3 °C 10,4 °C 40 % 74 % 1026,2 hPa 0,0 l/m² 1,7 km/h (1 Bft) W-NW 284 ° 0 min 0 W/m² 6,0 °C 10,4 °C 3,2 km/h (1 Bft)
14.09.2024 22:05 30,3 °C 10,4 °C 40 % 74 % 1026,2 hPa 0,0 l/m² 0,5 km/h (0 Bft) W-NW 284 ° 0 min 0 W/m² 6,0 °C 10,4 °C 3,2 km/h (1 Bft)
14.09.2024 22:06 30,2 °C 10,3 °C 40 % 74 % 1026,2 hPa 0,0 l/m² 0,3 km/h (0 Bft) W-NW 284 ° 0 min 0 W/m² 5,9 °C 10,3 °C 1,6 km/h (1 Bft)
14.09.2024 22:07 30,2 °C 10,4 °C 40 % 74 % 1026,2 hPa 0,0 l/m² 1,4 km/h (1 Bft) W-NW 284 ° 0 min 0 W/m² 6,0 °C 10,4 °C 3,2 km/h (1 Bft)
14.09.2024 22:08 30,2 °C 10,3 °C 40 % 74 % 1026,2 hPa 0,0 l/m² 1,5 km/h (1 Bft) W-NW 284 ° 0 min 0 W/m² 5,9 °C 10,3 °C 4,8 km/h (1 Bft)
14.09.2024 22:09 30,1 °C 10,3 °C 40 % 74 % 1026,2 hPa 0,0 l/m² 0,2 km/h (0 Bft) W-NW 284 ° 0 min 0 W/m² 5,9 °C 10,3 °C 1,6 km/h (1 Bft)
14.09.2024 22:10 30,1 °C 10,3 °C 40 % 74 % 1026,2 hPa 0,0 l/m² 3,1 km/h (1 Bft) W-NW 293 ° 0 min 0 W/m² 5,9 °C 10,3 °C 9,7 km/h (2 Bft)
14.09.2024 22:11 30,1 °C 10,3 °C 40 % 74 % 1026,3 hPa 0,0 l/m² 2,5 km/h (1 Bft) W-NW 296 ° 0 min 0 W/m² 5,9 °C 10,3 °C 3,2 km/h (1 Bft)
14.09.2024 22:12 30,0 °C 10,2 °C 40 % 74 % 1026,3 hPa 0,0 l/m² 0,8 km/h (0 Bft) W-NW 296 ° 0 min 0 W/m² 5,8 °C 10,2 °C 3,2 km/h (1 Bft)
14.09.2024 22:13 30,0 °C 10,2 °C 40 % 75 % 1026,3 hPa 0,0 l/m² 1,1 km/h (1 Bft) W-NW 303 ° 0 min 0 W/m² 6,0 °C 10,2 °C 4,8 km/h (1 Bft)
14.09.2024 22:14 29,9 °C 10,2 °C 40 % 75 % 1026,3 hPa 0,0 l/m² 1,3 km/h (1 Bft) W-NW 294 ° 0 min 0 W/m² 6,0 °C 10,2 °C 3,2 km/h (1 Bft)
14.09.2024 22:15 29,9 °C 10,2 °C 41 % 75 % 1026,3 hPa 0,0 l/m² 1,4 km/h (1 Bft) W-NW 296 ° 0 min 0 W/m² 6,0 °C 10,2 °C 4,8 km/h (1 Bft)
14.09.2024 22:16 29,9 °C 10,1 °C 41 % 75 % 1026,3 hPa 0,0 l/m² 2,2 km/h (1 Bft) W-NW 300 ° 0 min 0 W/m² 5,9 °C 10,1 °C 4,8 km/h (1 Bft)
14.09.2024 22:17 29,8 °C 10,1 °C 41 % 75 % 1026,3 hPa 0,0 l/m² 0,7 km/h (0 Bft) W-NW 300 ° 0 min 0 W/m² 5,9 °C 10,1 °C 1,6 km/h (1 Bft)
14.09.2024 22:18 29,8 °C 10,1 °C 41 % 75 % 1026,3 hPa 0,0 l/m² 1,3 km/h (1 Bft) W-NW 300 ° 0 min 0 W/m² 5,9 °C 10,1 °C 3,2 km/h (1 Bft)
14.09.2024 22:19 29,8 °C 10,0 °C 41 % 75 % 1026,3 hPa 0,0 l/m² 0,1 km/h (0 Bft) W-NW 300 ° 0 min 0 W/m² 5,8 °C 10,0 °C 1,6 km/h (1 Bft)
14.09.2024 22:20 29,7 °C 10,0 °C 41 % 75 % 1026,3 hPa 0,0 l/m² 1,6 km/h (1 Bft) W-NW 301 ° 0 min 0 W/m² 5,8 °C 10,0 °C 3,2 km/h (1 Bft)
14.09.2024 22:21 29,7 °C 9,9 °C 41 % 75 % 1026,4 hPa 0,0 l/m² 0,1 km/h (0 Bft) W-NW 301 ° 0 min 0 W/m² 5,7 °C 9,9 °C 1,6 km/h (1 Bft)
14.09.2024 22:22 29,7 °C 9,9 °C 41 % 75 % 1026,3 hPa 0,0 l/m² 3,6 km/h (1 Bft) NW 311 ° 0 min 0 W/m² 5,7 °C 9,9 °C 6,4 km/h (2 Bft)
14.09.2024 22:23 29,7 °C 9,9 °C 41 % 75 % 1026,4 hPa 0,0 l/m² 3,1 km/h (1 Bft) NW 317 ° 0 min 0 W/m² 5,7 °C 9,9 °C 4,8 km/h (1 Bft)
14.09.2024 22:24 29,6 °C 9,9 °C 41 % 76 % 1026,4 hPa 0,0 l/m² 0,6 km/h (0 Bft) NW 317 ° 0 min 0 W/m² 5,9 °C 9,9 °C 1,6 km/h (1 Bft)
14.09.2024 22:25 29,6 °C 9,9 °C 41 % 76 % 1026,4 hPa 0,0 l/m² 2,7 km/h (1 Bft) NW 323 ° 0 min 0 W/m² 5,9 °C 9,9 °C 6,4 km/h (2 Bft)
14.09.2024 22:26 29,5 °C 9,9 °C 41 % 76 % 1026,4 hPa 0,0 l/m² 1,9 km/h (1 Bft) W-NW 303 ° 0 min 0 W/m² 5,9 °C 9,9 °C 4,8 km/h (1 Bft)
14.09.2024 22:27 29,5 °C 9,9 °C 41 % 76 % 1026,4 hPa 0,0 l/m² 6,2 km/h (2 Bft) NW 307 ° 0 min 0 W/m² 5,9 °C 9,9 °C 12,9 km/h (3 Bft)
14.09.2024 22:28 29,4 °C 9,9 °C 41 % 76 % 1026,4 hPa 0,0 l/m² 2,3 km/h (1 Bft) W-NW 289 ° 0 min 0 W/m² 5,9 °C 9,9 °C 4,8 km/h (1 Bft)
14.09.2024 22:29 29,4 °C 9,9 °C 41 % 76 % 1026,4 hPa 0,0 l/m² 3,5 km/h (1 Bft) NW 308 ° 0 min 0 W/m² 5,9 °C 9,9 °C 4,8 km/h (1 Bft)
14.09.2024 22:30 29,3 °C 9,8 °C 41 % 76 % 1026,6 hPa 0,0 l/m² 3,5 km/h (1 Bft) W-NW 295 ° 0 min 0 W/m² 5,8 °C 9,8 °C 4,8 km/h (1 Bft)
14.09.2024 22:31 29,3 °C 9,8 °C 41 % 76 % 1026,5 hPa 0,0 l/m² 1,7 km/h (1 Bft) W-NW 295 ° 0 min 0 W/m² 5,8 °C 9,8 °C 4,8 km/h (1 Bft)
14.09.2024 22:32 29,3 °C 9,8 °C 41 % 76 % 1026,5 hPa 0,0 l/m² 0,4 km/h (0 Bft) W-NW 295 ° 0 min 0 W/m² 5,8 °C 9,8 °C 1,6 km/h (1 Bft)
14.09.2024 22:33 29,2 °C 9,8 °C 41 % 76 % 1026,5 hPa 0,0 l/m² 0,0 km/h (0 Bft) W-NW 295 ° 0 min 0 W/m² 5,8 °C 9,8 °C 0,0 km/h (0 Bft)
14.09.2024 22:34 29,2 °C 9,7 °C 41 % 76 % 1026,4 hPa 0,0 l/m² 0,0 km/h (0 Bft) W-NW 295 ° 0 min 0 W/m² 5,7 °C 9,7 °C 0,0 km/h (0 Bft)
14.09.2024 22:35 29,2 °C 9,7 °C 42 % 76 % 1026,5 hPa 0,0 l/m² 1,3 km/h (1 Bft) W-NW 295 ° 0 min 0 W/m² 5,7 °C 9,7 °C 3,2 km/h (1 Bft)
14.09.2024 22:36 29,1 °C 9,7 °C 42 % 76 % 1026,4 hPa 0,0 l/m² 1,1 km/h (1 Bft) W-NW 286 ° 0 min 0 W/m² 5,7 °C 9,7 °C 4,8 km/h (1 Bft)
14.09.2024 22:37 29,1 °C 9,7 °C 42 % 76 % 1026,4 hPa 0,0 l/m² 1,1 km/h (1 Bft) W-NW 286 ° 0 min 0 W/m² 5,7 °C 9,7 °C 3,2 km/h (1 Bft)
14.09.2024 22:38 29,1 °C 9,6 °C 42 % 77 % 1026,4 hPa 0,0 l/m² 1,7 km/h (1 Bft) W-NW 288 ° 0 min 0 W/m² 5,8 °C 9,6 °C 3,2 km/h (1 Bft)
14.09.2024 22:39 29,0 °C 9,6 °C 42 % 77 % 1026,4 hPa 0,0 l/m² 0,8 km/h (0 Bft) W-NW 288 ° 0 min 0 W/m² 5,8 °C 9,6 °C 3,2 km/h (1 Bft)
14.09.2024 22:40 28,9 °C 9,6 °C 42 % 77 % 1026,4 hPa 0,0 l/m² 1,9 km/h (1 Bft) W 279 ° 0 min 0 W/m² 5,8 °C 9,6 °C 3,2 km/h (1 Bft)
14.09.2024 22:41 28,9 °C 9,6 °C 42 % 77 % 1026,4 hPa 0,0 l/m² 1,6 km/h (1 Bft) W 279 ° 0 min 0 W/m² 5,8 °C 9,6 °C 4,8 km/h (1 Bft)
14.09.2024 22:42 28,9 °C 9,6 °C 42 % 77 % 1026,4 hPa 0,0 l/m² 0,5 km/h (0 Bft) W 279 ° 0 min 0 W/m² 5,8 °C 9,6 °C 1,6 km/h (1 Bft)
14.09.2024 22:43 28,8 °C 9,6 °C 42 % 77 % 1026,4 hPa 0,0 l/m² 1,7 km/h (1 Bft) W 279 ° 0 min 0 W/m² 5,8 °C 9,6 °C 3,2 km/h (1 Bft)
14.09.2024 22:44 28,8 °C 9,6 °C 42 % 77 % 1026,4 hPa 0,0 l/m² 0,7 km/h (0 Bft) W 280 ° 0 min 0 W/m² 5,8 °C 9,6 °C 3,2 km/h (1 Bft)
14.09.2024 22:45 28,8 °C 9,5 °C 42 % 77 % 1026,4 hPa 0,0 l/m² 1,3 km/h (1 Bft) W 280 ° 0 min 0 W/m² 5,7 °C 9,5 °C 3,2 km/h (1 Bft)
14.09.2024 22:46 28,7 °C 9,5 °C 41 % 77 % 1026,4 hPa 0,0 l/m² 0,1 km/h (0 Bft) W 280 ° 0 min 0 W/m² 5,7 °C 9,5 °C 1,6 km/h (1 Bft)
14.09.2024 22:47 28,6 °C 9,5 °C 41 % 77 % 1026,3 hPa 0,0 l/m² 1,1 km/h (1 Bft) W 280 ° 0 min 0 W/m² 5,7 °C 9,5 °C 3,2 km/h (1 Bft)
14.09.2024 22:48 28,6 °C 9,4 °C 41 % 77 % 1026,3 hPa 0,0 l/m² 0,1 km/h (0 Bft) W 280 ° 0 min 0 W/m² 5,6 °C 9,4 °C 1,6 km/h (1 Bft)
14.09.2024 22:49 28,5 °C 9,4 °C 41 % 77 % 1026,4 hPa 0,0 l/m² 0,0 km/h (0 Bft) W 281 ° 0 min 0 W/m² 5,6 °C 9,4 °C 0,0 km/h (0 Bft)
14.09.2024 22:50 28,4 °C 9,4 °C 42 % 77 % 1026,3 hPa 0,0 l/m² 0,2 km/h (0 Bft) W 281 ° 0 min 0 W/m² 5,6 °C 9,4 °C 1,6 km/h (1 Bft)
14.09.2024 22:51 28,4 °C 9,4 °C 42 % 77 % 1026,3 hPa 0,0 l/m² 0,7 km/h (0 Bft) W 281 ° 0 min 0 W/m² 5,6 °C 9,4 °C 3,2 km/h (1 Bft)
14.09.2024 22:52 28,3 °C 9,3 °C 42 % 77 % 1026,3 hPa 0,0 l/m² 0,0 km/h (0 Bft) W 281 ° 0 min 0 W/m² 5,5 °C 9,3 °C 0,0 km/h (0 Bft)
14.09.2024 22:53 28,3 °C 9,3 °C 42 % 78 % 1026,3 hPa 0,0 l/m² 0,0 km/h (0 Bft) W 281 ° 0 min 0 W/m² 5,7 °C 9,3 °C 0,0 km/h (0 Bft)
14.09.2024 22:54 28,2 °C 9,3 °C 42 % 78 % 1026,4 hPa 0,0 l/m² 0,0 km/h (0 Bft) W 281 ° 0 min 0 W/m² 5,7 °C 9,3 °C 0,0 km/h (0 Bft)
14.09.2024 22:55 28,2 °C 9,3 °C 42 % 78 % 1026,5 hPa 0,0 l/m² 0,9 km/h (0 Bft) W 278 ° 0 min 0 W/m² 5,7 °C 9,3 °C 3,2 km/h (1 Bft)
14.09.2024 22:56 28,2 °C 9,3 °C 42 % 78 % 1026,4 hPa 0,0 l/m² 0,9 km/h (0 Bft) W 267 ° 0 min 0 W/m² 5,7 °C 9,3 °C 4,8 km/h (1 Bft)
14.09.2024 22:57 28,1 °C 9,3 °C 43 % 78 % 1026,5 hPa 0,0 l/m² 0,4 km/h (0 Bft) W 267 ° 0 min 0 W/m² 5,7 °C 9,3 °C 3,2 km/h (1 Bft)
14.09.2024 22:58 28,1 °C 9,3 °C 43 % 78 % 1026,4 hPa 0,0 l/m² 0,0 km/h (0 Bft) W 267 ° 0 min 0 W/m² 5,7 °C 9,3 °C 0,0 km/h (0 Bft)
14.09.2024 22:59 28,1 °C 9,2 °C 43 % 78 % 1026,5 hPa 0,0 l/m² 0,0 km/h (0 Bft) W 267 ° 0 min 0 W/m² 5,6 °C 9,2 °C 0,0 km/h (0 Bft)
14.09.2024 23:00 28,0 °C 9,2 °C 43 % 78 % 1026,5 hPa 0,0 l/m² 0,3 km/h (0 Bft) W 267 ° 0 min 0 W/m² 5,6 °C 9,2 °C 1,6 km/h (1 Bft)
14.09.2024 23:01 27,9 °C 9,1 °C 43 % 78 % 1026,5 hPa 0,0 l/m² 0,7 km/h (0 Bft) W 267 ° 0 min 0 W/m² 5,5 °C 9,1 °C 3,2 km/h (1 Bft)
14.09.2024 23:02 27,9 °C 9,1 °C 43 % 78 % 1026,5 hPa 0,0 l/m² 0,5 km/h (0 Bft) W 267 ° 0 min 0 W/m² 5,5 °C 9,1 °C 3,2 km/h (1 Bft)
14.09.2024 23:03 27,9 °C 9,1 °C 43 % 78 % 1026,5 hPa 0,0 l/m² 0,1 km/h (0 Bft) W 267 ° 0 min 0 W/m² 5,5 °C 9,1 °C 1,6 km/h (1 Bft)
14.09.2024 23:04 27,8 °C 9,0 °C 43 % 79 % 1026,5 hPa 0,0 l/m² 0,0 km/h (0 Bft) W 267 ° 0 min 0 W/m² 5,6 °C 9,0 °C 0,0 km/h (0 Bft)
14.09.2024 23:05 27,8 °C 9,0 °C 43 % 79 % 1026,4 hPa 0,0 l/m² 0,9 km/h (0 Bft) W 267 ° 0 min 0 W/m² 5,6 °C 9,0 °C 3,2 km/h (1 Bft)
14.09.2024 23:06 27,7 °C 8,9 °C 43 % 79 % 1026,5 hPa 0,0 l/m² 0,7 km/h (0 Bft) W 267 ° 0 min 0 W/m² 5,5 °C 8,9 °C 3,2 km/h (1 Bft)
14.09.2024 23:07 27,7 °C 8,9 °C 43 % 79 % 1026,5 hPa 0,0 l/m² 0,0 km/h (0 Bft) W 267 ° 0 min 0 W/m² 5,5 °C 8,9 °C 0,0 km/h (0 Bft)
14.09.2024 23:08 27,7 °C 8,9 °C 43 % 79 % 1026,4 hPa 0,0 l/m² 0,0 km/h (0 Bft) W 267 ° 0 min 0 W/m² 5,5 °C 8,9 °C 0,0 km/h (0 Bft)
14.09.2024 23:09 27,7 °C 8,8 °C 44 % 79 % 1026,4 hPa 0,0 l/m² 0,0 km/h (0 Bft) W 267 ° 0 min 0 W/m² 5,4 °C 8,8 °C 0,0 km/h (0 Bft)
14.09.2024 23:10 27,7 °C 8,7 °C 44 % 79 % 1026,4 hPa 0,0 l/m² 0,0 km/h (0 Bft) W 267 ° 0 min 0 W/m² 5,3 °C 8,7 °C 0,0 km/h (0 Bft)
14.09.2024 23:11 27,6 °C 8,7 °C 44 % 79 % 1026,4 hPa 0,0 l/m² 0,0 km/h (0 Bft) W 267 ° 0 min 0 W/m² 5,3 °C 8,7 °C 0,0 km/h (0 Bft)
14.09.2024 23:12 27,6 °C 8,7 °C 44 % 79 % 1026,4 hPa 0,0 l/m² 0,0 km/h (0 Bft) W 267 ° 0 min 0 W/m² 5,3 °C 8,7 °C 0,0 km/h (0 Bft)
14.09.2024 23:13 27,6 °C 8,6 °C 44 % 80 % 1026,3 hPa 0,0 l/m² 0,1 km/h (0 Bft) W 267 ° 0 min 0 W/m² 5,3 °C 8,6 °C 1,6 km/h (1 Bft)
14.09.2024 23:14 27,5 °C 8,6 °C 44 % 80 % 1026,4 hPa 0,0 l/m² 0,1 km/h (0 Bft) W 267 ° 0 min 0 W/m² 5,3 °C 8,6 °C 1,6 km/h (1 Bft)
14.09.2024 23:15 27,4 °C 8,5 °C 44 % 80 % 1026,4 hPa 0,0 l/m² 0,0 km/h (0 Bft) W 267 ° 0 min 0 W/m² 5,3 °C 8,5 °C 0,0 km/h (0 Bft)
14.09.2024 23:16 27,4 °C 8,4 °C 44 % 80 % 1026,5 hPa 0,0 l/m² 0,0 km/h (0 Bft) W 270 ° 0 min 0 W/m² 5,2 °C 8,4 °C 1,6 km/h (1 Bft)
14.09.2024 23:17 27,4 °C 8,4 °C 44 % 80 % 1026,5 hPa 0,0 l/m² 0,0 km/h (0 Bft) N 0 ° 0 min 0 W/m² 5,2 °C 8,4 °C 0,0 km/h (0 Bft)
14.09.2024 23:23 27,2 °C 8,3 °C 44 % 81 % 1026,6 hPa 0,0 l/m² 0,0 km/h (0 Bft) W 267 ° 0 min 0 W/m² 5,2 °C 8,3 °C 0,0 km/h (0 Bft)
14.09.2024 23:25 27,1 °C 8,3 °C 45 % 81 % 1026,5 hPa 0,0 l/m² 0,0 km/h (0 Bft) W 267 ° 0 min 0 W/m² 5,2 °C 8,3 °C 0,0 km/h (0 Bft)
14.09.2024 23:26 27,1 °C 8,3 °C 45 % 81 % 1026,5 hPa 0,0 l/m² 0,0 km/h (0 Bft) W 267 ° 0 min 0 W/m² 5,2 °C 8,3 °C 0,0 km/h (0 Bft)
14.09.2024 23:28 27,1 °C 8,2 °C 45 % 81 % 1026,4 hPa 0,0 l/m² 0,8 km/h (0 Bft) W 267 ° 0 min 0 W/m² 5,1 °C 8,2 °C 3,2 km/h (1 Bft)
14.09.2024 23:30 26,9 °C 8,2 °C 45 % 81 % 1026,6 hPa 0,0 l/m² 1,3 km/h (1 Bft) W 267 ° 0 min 0 W/m² 5,1 °C 8,2 °C 3,2 km/h (1 Bft)
14.09.2024 23:31 26,9 °C 8,2 °C 45 % 81 % 1026,5 hPa 0,0 l/m² 0,2 km/h (0 Bft) W 267 ° 0 min 0 W/m² 5,1 °C 8,2 °C 1,6 km/h (1 Bft)
14.09.2024 23:32 26,9 °C 8,2 °C 45 % 81 % 1026,5 hPa 0,0 l/m² 1,3 km/h (1 Bft) W 267 ° 0 min 0 W/m² 5,1 °C 8,2 °C 3,2 km/h (1 Bft)
14.09.2024 23:35 26,8 °C 8,1 °C 45 % 82 % 1026,6 hPa 0,0 l/m² 1,1 km/h (1 Bft) W 267 ° 0 min 0 W/m² 5,2 °C 8,1 °C 3,2 km/h (1 Bft)
14.09.2024 23:37 26,8 °C 8,1 °C 45 % 82 % 1026,6 hPa 0,0 l/m² 0,1 km/h (0 Bft) W 267 ° 0 min 0 W/m² 5,2 °C 8,1 °C 1,6 km/h (1 Bft)
14.09.2024 23:39 26,7 °C 8,0 °C 45 % 82 % 1026,5 hPa 0,0 l/m² 0,9 km/h (0 Bft) W 267 ° 0 min 0 W/m² 5,1 °C 8,0 °C 3,2 km/h (1 Bft)
14.09.2024 23:40 26,7 °C 8,0 °C 45 % 82 % 1026,5 hPa 0,0 l/m² 1,3 km/h (1 Bft) W 267 ° 0 min 0 W/m² 5,1 °C 8,0 °C 3,2 km/h (1 Bft)
14.09.2024 23:41 26,6 °C 8,0 °C 45 % 82 % 1026,5 hPa 0,0 l/m² 2,0 km/h (1 Bft) W 267 ° 0 min 0 W/m² 5,1 °C 8,0 °C 3,2 km/h (1 Bft)
14.09.2024 23:42 26,6 °C 7,9 °C 45 % 82 % 1026,5 hPa 0,0 l/m² 0,1 km/h (0 Bft) W 267 ° 0 min 0 W/m² 5,0 °C 7,9 °C 1,6 km/h (1 Bft)
14.09.2024 23:45 26,6 °C 7,9 °C 46 % 82 % 1026,4 hPa 0,0 l/m² 0,8 km/h (0 Bft) W 267 ° 0 min 0 W/m² 5,0 °C 7,9 °C 3,2 km/h (1 Bft)
14.09.2024 23:47 26,5 °C 7,9 °C 46 % 82 % 1026,4 hPa 0,0 l/m² 0,0 km/h (0 Bft) W 267 ° 0 min 0 W/m² 5,0 °C 7,9 °C 0,0 km/h (0 Bft)
14.09.2024 23:49 26,5 °C 8,0 °C 46 % 82 % 1026,4 hPa 0,0 l/m² 0,0 km/h (0 Bft) W 267 ° 0 min 0 W/m² 5,1 °C 8,0 °C 0,0 km/h (0 Bft)
14.09.2024 23:50 26,4 °C 7,9 °C 46 % 82 % 1026,4 hPa 0,0 l/m² 0,0 km/h (0 Bft) W 267 ° 0 min 0 W/m² 5,0 °C 7,9 °C 0,0 km/h (0 Bft)
14.09.2024 23:51 26,4 °C 7,9 °C 46 % 82 % 1026,4 hPa 0,0 l/m² 0,0 km/h (0 Bft) W 267 ° 0 min 0 W/m² 5,0 °C 7,9 °C 0,0 km/h (0 Bft)
14.09.2024 23:52 26,4 °C 7,9 °C 46 % 82 % 1026,4 hPa 0,0 l/m² 0,0 km/h (0 Bft) W 267 ° 0 min 0 W/m² 5,0 °C 7,9 °C 0,0 km/h (0 Bft)
14.09.2024 23:54 26,3 °C 7,9 °C 46 % 82 % 1026,4 hPa 0,0 l/m² 0,0 km/h (0 Bft) W 267 ° 0 min 0 W/m² 5,0 °C 7,9 °C 0,0 km/h (0 Bft)
14.09.2024 23:55 26,3 °C 7,8 °C 46 % 83 % 1026,4 hPa 0,0 l/m² 0,0 km/h (0 Bft) W 267 ° 0 min 0 W/m² 5,1 °C 7,8 °C 0,0 km/h (0 Bft)
14.09.2024 23:57 26,3 °C 7,8 °C 46 % 82 % 1026,4 hPa 0,0 l/m² 0,0 km/h (0 Bft) W 267 ° 0 min 0 W/m² 4,9 °C 7,8 °C 0,0 km/h (0 Bft)
14.09.2024 23:59 26,2 °C 7,7 °C 46 % 83 % 1026,3 hPa 0,0 l/m² 0,0 km/h (0 Bft) W 267 ° 0 min 0 W/m² 5,0 °C 7,7 °C 0,0 km/h (0 Bft)
_ Min-Zeit 08:19 23:59 18:44 16:19 01:09 - 23:59 - - - - 23:57 07:46 23:59
Minimum _ 20,9 °C 7,7 °C 34 % 52 % 1021,9 hPa - 0,0 km/h (0 Bft) - - - - 4,9 °C 4,2 °C 0,0 km/h (0 Bft)
_ Max-Zeit 18:15 15:48 09:27 23:59 23:37 23:59 15:56 - - 18:02 13:25 11:11 15:27 16:17
Maximum _ 32,3 °C 17,8 °C 57 % 83 % 1026,6 hPa 0,0 l/m² 29,5 km/h
NW (5 Bft)
- - 2 min 868 W/m² 9,9 °C 17,4 °C 43,5 km/h
NW (6 Bft)
Durchschnitt _ 24,0 °C 13,0 °C 50 % 70 % 1024,2 hPa #0,0 l/m² 12,3 km/h (2 Bft) NW - #10:00 h 182 W/m² 7,5 °C 10,1 °C 21,4 km/h (4 Bft)
© 2009 Mathias Hoßbach